<?xml version='1.0' encoding='UTF-8'?><gpx version="1.1" creator="JPX - https://github.com/jenetics/jpx" xmlns="http://www.topografix.com/GPX/1/1"><trk><trkseg><trkpt lat="43.78259928379587" lon="10.922001318366783"><ele>66.0</ele><time>2026-05-03T08:08:39.125Z</time></trkpt><trkpt lat="43.782544626128306" lon="10.921933685552371"><ele>66.0</ele><time>2026-05-03T08:08:43.989Z</time></trkpt><trkpt lat="43.78248332158605" lon="10.92189343749056"><ele>66.0</ele><time>2026-05-03T08:08:46.991Z</time></trkpt><trkpt lat="43.78242417868728" lon="10.921843835947088"><ele>66.0</ele><time>2026-05-03T08:08:51.994Z</time></trkpt><trkpt lat="43.78236646889612" lon="10.921909020016065"><ele>66.0</ele><time>2026-05-03T08:08:55.995Z</time></trkpt><trkpt lat="43.78232404027997" lon="10.921991520977604"><ele>66.0</ele><time>2026-05-03T08:08:59.996Z</time></trkpt><trkpt lat="43.78234436193844" lon="10.922088303928117"><ele>66.0</ele><time>2026-05-03T08:09:03.997Z</time></trkpt><trkpt lat="43.78234417000815" lon="10.922188173901251"><ele>66.0</ele><time>2026-05-03T08:09:07.997Z</time></trkpt><trkpt lat="43.78234332400996" lon="10.922278490142059"><ele>66.0</ele><time>2026-05-03T08:09:11.998Z</time></trkpt><trkpt lat="43.78234904071457" lon="10.922374895264845"><ele>66.0</ele><time>2026-05-03T08:09:15.998Z</time></trkpt><trkpt lat="43.78233416620335" lon="10.922464347659107"><ele>66.0</ele><time>2026-05-03T08:09:19.998Z</time></trkpt><trkpt lat="43.78232509973601" lon="10.922571328250198"><ele>66.0</ele><time>2026-05-03T08:09:24.999Z</time></trkpt><trkpt lat="43.78232173532987" lon="10.92268201932373"><ele>66.0</ele><time>2026-05-03T08:09:29.999Z</time></trkpt><trkpt lat="43.782310646761296" lon="10.922769354676575"><ele>66.0</ele><time>2026-05-03T08:09:33.999Z</time></trkpt><trkpt lat="43.78231779082859" lon="10.922878050073464"><ele>66.71428571428571</ele><time>2026-05-03T08:09:38.999Z</time></trkpt><trkpt lat="43.782318323519995" lon="10.922979056173649"><ele>67.42857142857143</ele><time>2026-05-03T08:09:43.999Z</time></trkpt><trkpt lat="43.782316862640364" lon="10.923072083143488"><ele>68.14285714285714</ele><time>2026-05-03T08:09:47.999Z</time></trkpt><trkpt lat="43.782318832590654" lon="10.923169915959388"><ele>68.85714285714286</ele><time>2026-05-03T08:09:50.999Z</time></trkpt><trkpt lat="43.782307357189204" lon="10.923280867265063"><ele>69.57142857142857</ele><time>2026-05-03T08:09:54.999Z</time></trkpt><trkpt lat="43.78235109247875" lon="10.923374747090348"><ele>70.28571428571428</ele><time>2026-05-03T08:09:58.999Z</time></trkpt><trkpt lat="43.78241167240306" lon="10.923434389405148"><ele>71.0</ele><time>2026-05-03T08:10:02.999Z</time></trkpt><trkpt lat="43.782485555989815" lon="10.923440999419428"><ele>71.28571428571428</ele><time>2026-05-03T08:10:06.999Z</time></trkpt><trkpt lat="43.782550430187044" lon="10.923462519638008"><ele>71.57142857142857</ele><time>2026-05-03T08:10:10.999Z</time></trkpt><trkpt lat="43.782617389727406" lon="10.923477004041258"><ele>71.85714285714286</ele><time>2026-05-03T08:10:14.999Z</time></trkpt><trkpt lat="43.782678391121884" lon="10.923515841250076"><ele>72.14285714285714</ele><time>2026-05-03T08:10:18.999Z</time></trkpt><trkpt lat="43.7827396577341" lon="10.92353849681095"><ele>72.42857142857143</ele><time>2026-05-03T08:10:21.999Z</time></trkpt><trkpt lat="43.78280301561954" lon="10.923541515575101"><ele>72.71428571428571</ele><time>2026-05-03T08:10:24.999Z</time></trkpt><trkpt lat="43.782870687697184" lon="10.923535474295386"><ele>73.0</ele><time>2026-05-03T08:10:27.999Z</time></trkpt><trkpt lat="43.782934161548106" lon="10.923585069245847"><ele>73.14285714285714</ele><time>2026-05-03T08:10:30.999Z</time></trkpt><trkpt lat="43.78295288776451" lon="10.923670822982805"><ele>73.28571428571429</ele><time>2026-05-03T08:10:33.998Z</time></trkpt><trkpt lat="43.782938784355544" lon="10.923776614615866"><ele>73.42857142857143</ele><time>2026-05-03T08:10:37.998Z</time></trkpt><trkpt lat="43.78293298756998" lon="10.923888453499554"><ele>73.57142857142857</ele><time>2026-05-03T08:10:41.999Z</time></trkpt><trkpt lat="43.78295378020001" lon="10.923992101538627"><ele>73.71428571428571</ele><time>2026-05-03T08:10:45.999Z</time></trkpt><trkpt lat="43.78301750073802" lon="10.92403764126177"><ele>73.85714285714286</ele><time>2026-05-03T08:10:48.999Z</time></trkpt><trkpt lat="43.78303498349949" lon="10.92412633449983"><ele>74.0</ele><time>2026-05-03T08:10:51.999Z</time></trkpt><trkpt lat="43.78307997271257" lon="10.92418997781347"><ele>74.0</ele><time>2026-05-03T08:10:54.999Z</time></trkpt><trkpt lat="43.78315822508439" lon="10.924198916587013"><ele>74.0</ele><time>2026-05-03T08:10:57.999Z</time></trkpt><trkpt lat="43.78324096744591" lon="10.924217289015209"><ele>74.0</ele><time>2026-05-03T08:11:01.999Z</time></trkpt><trkpt lat="43.78330590816817" lon="10.924223832515809"><ele>74.0</ele><time>2026-05-03T08:11:04.999Z</time></trkpt><trkpt lat="43.7833760495767" lon="10.924233245204924"><ele>74.0</ele><time>2026-05-03T08:11:07.999Z</time></trkpt><trkpt lat="43.78343896314156" lon="10.924253403883206"><ele>74.0</ele><time>2026-05-03T08:11:10.999Z</time></trkpt><trkpt lat="43.78350224435386" lon="10.924323883979635"><ele>74.0</ele><time>2026-05-03T08:11:13.999Z</time></trkpt><trkpt lat="43.78357729228257" lon="10.924351419450927"><ele>73.57142857142857</ele><time>2026-05-03T08:11:16.999Z</time></trkpt><trkpt lat="43.78363161190037" lon="10.924426492978249"><ele>73.14285714285714</ele><time>2026-05-03T08:11:19.999Z</time></trkpt><trkpt lat="43.7836288503562" lon="10.92452344161799"><ele>72.71428571428571</ele><time>2026-05-03T08:11:23.999Z</time></trkpt><trkpt lat="43.78360171440379" lon="10.924611193903202"><ele>72.28571428571428</ele><time>2026-05-03T08:11:26.999Z</time></trkpt><trkpt lat="43.78359698949042" lon="10.924708070862685"><ele>71.85714285714285</ele><time>2026-05-03T08:11:30.999Z</time></trkpt><trkpt lat="43.78358722927072" lon="10.92482598054672"><ele>71.42857142857143</ele><time>2026-05-03T08:11:34.999Z</time></trkpt><trkpt lat="43.78356456733416" lon="10.9249177427584"><ele>71.0</ele><time>2026-05-03T08:11:37.999Z</time></trkpt><trkpt lat="43.78355436276697" lon="10.925007878472956"><ele>70.66666666666667</ele><time>2026-05-03T08:11:40.999Z</time></trkpt><trkpt lat="43.78353747536353" lon="10.925102907700474"><ele>70.33333333333334</ele><time>2026-05-03T08:11:43.999Z</time></trkpt><trkpt lat="43.78351572562702" lon="10.925202790215286"><ele>70.0</ele><time>2026-05-03T08:11:46.999Z</time></trkpt><trkpt lat="43.78344545187728" lon="10.925196535414226"><ele>69.66666666666667</ele><time>2026-05-03T08:11:49.999Z</time></trkpt><trkpt lat="43.783409682394854" lon="10.925304637354204"><ele>69.33333333333333</ele><time>2026-05-03T08:11:52.998Z</time></trkpt><trkpt lat="43.783382594666136" lon="10.925402129196039"><ele>69.0</ele><time>2026-05-03T08:11:55.998Z</time></trkpt><trkpt lat="43.78337041671467" lon="10.925514324395719"><ele>69.0</ele><time>2026-05-03T08:11:58.998Z</time></trkpt><trkpt lat="43.78342668295454" lon="10.925628621185211"><ele>69.0</ele><time>2026-05-03T08:12:01.998Z</time></trkpt><trkpt lat="43.78352037581467" lon="10.925669883899669"><ele>69.0</ele><time>2026-05-03T08:12:04.998Z</time></trkpt><trkpt lat="43.78360148474313" lon="10.925709419697403"><ele>69.0</ele><time>2026-05-03T08:12:07.998Z</time></trkpt><trkpt lat="43.78367366252734" lon="10.925769475743014"><ele>69.0</ele><time>2026-05-03T08:12:10.998Z</time></trkpt><trkpt lat="43.78372890129676" lon="10.925858808880477"><ele>67.83333333333333</ele><time>2026-05-03T08:12:13.998Z</time></trkpt><trkpt lat="43.78369053155628" lon="10.925970533605366"><ele>66.66666666666667</ele><time>2026-05-03T08:12:16.998Z</time></trkpt><trkpt lat="43.78364048143849" lon="10.92602481442139"><ele>65.5</ele><time>2026-05-03T08:12:18.998Z</time></trkpt><trkpt lat="43.78358170670321" lon="10.926104956567492"><ele>64.33333333333334</ele><time>2026-05-03T08:12:21.998Z</time></trkpt><trkpt lat="43.78351050486066" lon="10.926161503607839"><ele>63.16666666666667</ele><time>2026-05-03T08:12:24.998Z</time></trkpt><trkpt lat="43.78343879666569" lon="10.92622999332992"><ele>62.0</ele><time>2026-05-03T08:12:27.998Z</time></trkpt><trkpt lat="43.78338258104222" lon="10.926302063030988"><ele>62.00000000000001</ele><time>2026-05-03T08:12:30.998Z</time></trkpt><trkpt lat="43.78330263680623" lon="10.92635396105279"><ele>62.0</ele><time>2026-05-03T08:12:33.998Z</time></trkpt><trkpt lat="43.78324451882623" lon="10.9264077225793"><ele>62.0</ele><time>2026-05-03T08:12:35.998Z</time></trkpt><trkpt lat="43.783171026134816" lon="10.926476928817733"><ele>62.0</ele><time>2026-05-03T08:12:38.998Z</time></trkpt><trkpt lat="43.78310415664617" lon="10.926539761794322"><ele>62.00000000000001</ele><time>2026-05-03T08:12:41.998Z</time></trkpt><trkpt lat="43.7830406077127" lon="10.926570290907748"><ele>62.0</ele><time>2026-05-03T08:12:43.998Z</time></trkpt><trkpt lat="43.78299160387989" lon="10.926666514349607"><ele>60.00000000000001</ele><time>2026-05-03T08:12:46.999Z</time></trkpt><trkpt lat="43.78297018154087" lon="10.926764268140836"><ele>58.0</ele><time>2026-05-03T08:12:49.999Z</time></trkpt><trkpt lat="43.78293181998649" lon="10.926871278771669"><ele>56.0</ele><time>2026-05-03T08:12:52.999Z</time></trkpt><trkpt lat="43.78289058768278" lon="10.926963370098118"><ele>54.0</ele><time>2026-05-03T08:12:55.999Z</time></trkpt><trkpt lat="43.782856294074406" lon="10.927060373948764"><ele>52.00000000000001</ele><time>2026-05-03T08:12:58.999Z</time></trkpt><trkpt lat="43.78282613162829" lon="10.92716371836198"><ele>50.0</ele><time>2026-05-03T08:13:01.999Z</time></trkpt><trkpt lat="43.782792622580175" lon="10.927257293286754"><ele>50.00000000000001</ele><time>2026-05-03T08:13:04.999Z</time></trkpt><trkpt lat="43.78275082421992" lon="10.927346961274512"><ele>50.0</ele><time>2026-05-03T08:13:07.999Z</time></trkpt><trkpt lat="43.78269628783993" lon="10.927429581735746"><ele>50.0</ele><time>2026-05-03T08:13:10.999Z</time></trkpt><trkpt lat="43.782635335121455" lon="10.927522811064295"><ele>50.0</ele><time>2026-05-03T08:13:13.999Z</time></trkpt><trkpt lat="43.7825989113743" lon="10.927618132331652"><ele>50.00000000000001</ele><time>2026-05-03T08:13:16.999Z</time></trkpt><trkpt lat="43.782545911882615" lon="10.927701082027488"><ele>50.0</ele><time>2026-05-03T08:13:19.999Z</time></trkpt><trkpt lat="43.78249785265573" lon="10.927795528460976"><ele>49.50000000000001</ele><time>2026-05-03T08:13:22.999Z</time></trkpt><trkpt lat="43.78245346636155" lon="10.927877429367266"><ele>49.0</ele><time>2026-05-03T08:13:25.999Z</time></trkpt><trkpt lat="43.7823941566983" lon="10.927966404713294"><ele>48.5</ele><time>2026-05-03T08:13:28.999Z</time></trkpt><trkpt lat="43.78233694999357" lon="10.928030033413474"><ele>48.0</ele><time>2026-05-03T08:13:31.999Z</time></trkpt><trkpt lat="43.78226397680147" lon="10.928071933631463"><ele>47.5</ele><time>2026-05-03T08:13:34.999Z</time></trkpt><trkpt lat="43.78218860815534" lon="10.928107993131077"><ele>47.0</ele><time>2026-05-03T08:13:37.999Z</time></trkpt><trkpt lat="43.78210851261908" lon="10.928138873721023"><ele>47.0</ele><time>2026-05-03T08:13:40.999Z</time></trkpt><trkpt lat="43.78203612360575" lon="10.92817441366472"><ele>47.0</ele><time>2026-05-03T08:13:43.999Z</time></trkpt><trkpt lat="43.781957856900085" lon="10.928207498581134"><ele>47.0</ele><time>2026-05-03T08:13:46.999Z</time></trkpt><trkpt lat="43.78187780832318" lon="10.928236349298682"><ele>47.0</ele><time>2026-05-03T08:13:49.999Z</time></trkpt><trkpt lat="43.781799731517566" lon="10.928255266847737"><ele>47.0</ele><time>2026-05-03T08:13:52.999Z</time></trkpt><trkpt lat="43.78172119536626" lon="10.928270177359842"><ele>47.0</ele><time>2026-05-03T08:13:55.999Z</time></trkpt><trkpt lat="43.78164712798304" lon="10.928305175324416"><ele>47.0</ele><time>2026-05-03T08:13:58.999Z</time></trkpt><trkpt lat="43.781570131776874" lon="10.928327330444414"><ele>47.0</ele><time>2026-05-03T08:14:01.999Z</time></trkpt><trkpt lat="43.7814904079394" lon="10.928358358874847"><ele>47.0</ele><time>2026-05-03T08:14:04.999Z</time></trkpt><trkpt lat="43.78140678897366" lon="10.928369972179476"><ele>47.0</ele><time>2026-05-03T08:14:07.999Z</time></trkpt><trkpt lat="43.78133001115034" lon="10.928400006128689"><ele>47.0</ele><time>2026-05-03T08:14:10.999Z</time></trkpt><trkpt lat="43.78124974766007" lon="10.928418373797784"><ele>47.0</ele><time>2026-05-03T08:14:13.999Z</time></trkpt><trkpt lat="43.78117653176276" lon="10.928448524427926"><ele>46.83333333333333</ele><time>2026-05-03T08:14:16.999Z</time></trkpt><trkpt lat="43.781107958963645" lon="10.928482909221467"><ele>46.666666666666664</ele><time>2026-05-03T08:14:19.999Z</time></trkpt><trkpt lat="43.78102102454018" lon="10.928487802077385"><ele>46.5</ele><time>2026-05-03T08:14:22.999Z</time></trkpt><trkpt lat="43.78095241521846" lon="10.928539507476488"><ele>46.333333333333336</ele><time>2026-05-03T08:14:25.999Z</time></trkpt><trkpt lat="43.78089675029791" lon="10.928605191092476"><ele>46.16666666666667</ele><time>2026-05-03T08:14:28.999Z</time></trkpt><trkpt lat="43.7808451964797" lon="10.928679673613965"><ele>46.0</ele><time>2026-05-03T08:14:31.999Z</time></trkpt><trkpt lat="43.780799820158364" lon="10.928758652318349"><ele>45.833333333333336</ele><time>2026-05-03T08:14:34.999Z</time></trkpt><trkpt lat="43.78075894832421" lon="10.92885502747849"><ele>45.66666666666667</ele><time>2026-05-03T08:14:37.999Z</time></trkpt><trkpt lat="43.78070176105641" lon="10.92891907130607"><ele>45.5</ele><time>2026-05-03T08:14:40.998Z</time></trkpt><trkpt lat="43.78062380043042" lon="10.92890432693094"><ele>45.333333333333336</ele><time>2026-05-03T08:14:43.998Z</time></trkpt><trkpt lat="43.780553189572586" lon="10.928850899755007"><ele>45.166666666666664</ele><time>2026-05-03T08:14:46.998Z</time></trkpt><trkpt lat="43.78048322373633" lon="10.928794036606236"><ele>45.0</ele><time>2026-05-03T08:14:49.998Z</time></trkpt><trkpt lat="43.780417507118884" lon="10.928729373221804"><ele>45.0</ele><time>2026-05-03T08:14:53Z</time></trkpt><trkpt lat="43.78035675515711" lon="10.928672698650947"><ele>45.0</ele><time>2026-05-03T08:14:56Z</time></trkpt><trkpt lat="43.78029885015515" lon="10.928595969247361"><ele>45.0</ele><time>2026-05-03T08:14:59Z</time></trkpt><trkpt lat="43.78023592100815" lon="10.928524143901488"><ele>45.0</ele><time>2026-05-03T08:15:02Z</time></trkpt><trkpt lat="43.780173250218915" lon="10.928458139239156"><ele>45.0</ele><time>2026-05-03T08:15:05Z</time></trkpt><trkpt lat="43.780112386765865" lon="10.928392453216684"><ele>45.0</ele><time>2026-05-03T08:15:08Z</time></trkpt><trkpt lat="43.780051088482914" lon="10.928319888022584"><ele>44.833333333333336</ele><time>2026-05-03T08:15:11Z</time></trkpt><trkpt lat="43.77997073755008" lon="10.928275930485546"><ele>44.666666666666664</ele><time>2026-05-03T08:15:14Z</time></trkpt><trkpt lat="43.779899512060766" lon="10.92822405439379"><ele>44.5</ele><time>2026-05-03T08:15:17Z</time></trkpt><trkpt lat="43.77982447089518" lon="10.928184200950492"><ele>44.33333333333333</ele><time>2026-05-03T08:15:20Z</time></trkpt><trkpt lat="43.779754149458434" lon="10.92813049373997"><ele>44.166666666666664</ele><time>2026-05-03T08:15:23Z</time></trkpt><trkpt lat="43.77968456733748" lon="10.928059772527677"><ele>44.0</ele><time>2026-05-03T08:15:26Z</time></trkpt><trkpt lat="43.77961554236763" lon="10.92800360238021"><ele>44.0</ele><time>2026-05-03T08:15:28.999Z</time></trkpt><trkpt lat="43.77955211995483" lon="10.92795505399794"><ele>44.0</ele><time>2026-05-03T08:15:31.999Z</time></trkpt><trkpt lat="43.77948285551035" lon="10.927913451174003"><ele>44.0</ele><time>2026-05-03T08:15:34.999Z</time></trkpt><trkpt lat="43.77940937645552" lon="10.927893081776153"><ele>44.0</ele><time>2026-05-03T08:15:37.999Z</time></trkpt><trkpt lat="43.77933117596177" lon="10.927857432996737"><ele>44.0</ele><time>2026-05-03T08:15:40.999Z</time></trkpt><trkpt lat="43.77925975308827" lon="10.927823723112333"><ele>44.0</ele><time>2026-05-03T08:15:43.999Z</time></trkpt><trkpt lat="43.77919326648757" lon="10.927767189804337"><ele>44.0</ele><time>2026-05-03T08:15:46.999Z</time></trkpt><trkpt lat="43.77912497297638" lon="10.9277241324949"><ele>44.0</ele><time>2026-05-03T08:15:49.999Z</time></trkpt><trkpt lat="43.77906205516289" lon="10.92766209790935"><ele>44.0</ele><time>2026-05-03T08:15:52.999Z</time></trkpt><trkpt lat="43.778993847777095" lon="10.927607912985986"><ele>44.0</ele><time>2026-05-03T08:15:55.999Z</time></trkpt><trkpt lat="43.77894011630185" lon="10.927526469792731"><ele>44.0</ele><time>2026-05-03T08:15:58.999Z</time></trkpt><trkpt lat="43.778862276651836" lon="10.927469489686622"><ele>44.0</ele><time>2026-05-03T08:16:01.999Z</time></trkpt><trkpt lat="43.778785549692735" lon="10.927422654417137"><ele>43.83333333333333</ele><time>2026-05-03T08:16:04.999Z</time></trkpt><trkpt lat="43.778716599468034" lon="10.927386078731951"><ele>43.666666666666664</ele><time>2026-05-03T08:16:07.999Z</time></trkpt><trkpt lat="43.778644958305826" lon="10.927354302655893"><ele>43.5</ele><time>2026-05-03T08:16:10.999Z</time></trkpt><trkpt lat="43.77856317944843" lon="10.927324523158958"><ele>43.333333333333336</ele><time>2026-05-03T08:16:13.999Z</time></trkpt><trkpt lat="43.77848600638756" lon="10.927325953835748"><ele>43.16666666666667</ele><time>2026-05-03T08:16:16.999Z</time></trkpt><trkpt lat="43.7784052591358" lon="10.92732484629054"><ele>43.0</ele><time>2026-05-03T08:16:19.999Z</time></trkpt><trkpt lat="43.77832028192832" lon="10.927311180861729"><ele>42.833333333333336</ele><time>2026-05-03T08:16:22.999Z</time></trkpt><trkpt lat="43.77824166490904" lon="10.927295183707544"><ele>42.66666666666667</ele><time>2026-05-03T08:16:25.999Z</time></trkpt><trkpt lat="43.778155898913944" lon="10.927276770105983"><ele>42.5</ele><time>2026-05-03T08:16:28.999Z</time></trkpt><trkpt lat="43.77808263974735" lon="10.9272740133058"><ele>42.333333333333336</ele><time>2026-05-03T08:16:31.999Z</time></trkpt><trkpt lat="43.77800646140554" lon="10.927265151575357"><ele>42.166666666666664</ele><time>2026-05-03T08:16:34.999Z</time></trkpt><trkpt lat="43.7779241582271" lon="10.927228357399784"><ele>42.0</ele><time>2026-05-03T08:16:37.999Z</time></trkpt><trkpt lat="43.77783940614866" lon="10.927226289469095"><ele>42.0</ele><time>2026-05-03T08:16:40.999Z</time></trkpt><trkpt lat="43.77776099486294" lon="10.927204250967769"><ele>42.0</ele><time>2026-05-03T08:16:43.999Z</time></trkpt><trkpt lat="43.77768034240711" lon="10.927161945523709"><ele>42.0</ele><time>2026-05-03T08:16:46.999Z</time></trkpt><trkpt lat="43.77760445864161" lon="10.927138272895366"><ele>42.0</ele><time>2026-05-03T08:16:49.999Z</time></trkpt><trkpt lat="43.77752205024634" lon="10.927167914807923"><ele>42.0</ele><time>2026-05-03T08:16:52.999Z</time></trkpt><trkpt lat="43.77744283503687" lon="10.927119292697515"><ele>42.0</ele><time>2026-05-03T08:16:55.999Z</time></trkpt><trkpt lat="43.77736246888737" lon="10.927090989813435"><ele>42.0</ele><time>2026-05-03T08:16:59Z</time></trkpt><trkpt lat="43.77728176602435" lon="10.927102840317662"><ele>42.0</ele><time>2026-05-03T08:17:02Z</time></trkpt><trkpt lat="43.7772037238859" lon="10.927090881267073"><ele>42.0</ele><time>2026-05-03T08:17:05Z</time></trkpt><trkpt lat="43.777119560328416" lon="10.9270387848456"><ele>42.0</ele><time>2026-05-03T08:17:08Z</time></trkpt><trkpt lat="43.77703992333302" lon="10.927012630037755"><ele>42.0</ele><time>2026-05-03T08:17:11Z</time></trkpt><trkpt lat="43.776955789004155" lon="10.92698263504497"><ele>42.0</ele><time>2026-05-03T08:17:14Z</time></trkpt><trkpt lat="43.77687475474602" lon="10.92696744922398"><ele>41.666666666666664</ele><time>2026-05-03T08:17:17Z</time></trkpt><trkpt lat="43.77680051249396" lon="10.926920521031224"><ele>41.333333333333336</ele><time>2026-05-03T08:17:20Z</time></trkpt><trkpt lat="43.77672484451354" lon="10.926888469038879"><ele>41.0</ele><time>2026-05-03T08:17:23Z</time></trkpt><trkpt lat="43.77664276750725" lon="10.926885868529597"><ele>40.66666666666667</ele><time>2026-05-03T08:17:26Z</time></trkpt><trkpt lat="43.77656817878018" lon="10.926841594311767"><ele>40.333333333333336</ele><time>2026-05-03T08:17:29Z</time></trkpt><trkpt lat="43.776488463845695" lon="10.92681793195672"><ele>40.0</ele><time>2026-05-03T08:17:32Z</time></trkpt><trkpt lat="43.77642129631084" lon="10.926792299769229"><ele>40.0</ele><time>2026-05-03T08:17:34.999Z</time></trkpt><trkpt lat="43.77634050431121" lon="10.92677084413817"><ele>40.0</ele><time>2026-05-03T08:17:37.999Z</time></trkpt><trkpt lat="43.77626267735933" lon="10.926787322589666"><ele>40.0</ele><time>2026-05-03T08:17:40.999Z</time></trkpt><trkpt lat="43.776186251351334" lon="10.926772324905613"><ele>40.0</ele><time>2026-05-03T08:17:43.999Z</time></trkpt><trkpt lat="43.77611180525048" lon="10.92679863052403"><ele>40.0</ele><time>2026-05-03T08:17:46.999Z</time></trkpt><trkpt lat="43.77604323013394" lon="10.926838562892021"><ele>40.0</ele><time>2026-05-03T08:17:49.999Z</time></trkpt><trkpt lat="43.77597016891074" lon="10.926860677739962"><ele>40.16666666666667</ele><time>2026-05-03T08:17:52.999Z</time></trkpt><trkpt lat="43.775890372194695" lon="10.926886023284897"><ele>40.333333333333336</ele><time>2026-05-03T08:17:55.999Z</time></trkpt><trkpt lat="43.77582105666132" lon="10.926922155962961"><ele>40.5</ele><time>2026-05-03T08:17:58.999Z</time></trkpt><trkpt lat="43.77575181659029" lon="10.926947439609082"><ele>40.666666666666664</ele><time>2026-05-03T08:18:01.999Z</time></trkpt><trkpt lat="43.775672917413864" lon="10.926970932489441"><ele>40.83333333333333</ele><time>2026-05-03T08:18:04.999Z</time></trkpt><trkpt lat="43.775605066389076" lon="10.927008224203929"><ele>41.0</ele><time>2026-05-03T08:18:07.999Z</time></trkpt><trkpt lat="43.77552292333796" lon="10.927017438942284"><ele>40.99999999999999</ele><time>2026-05-03T08:18:10.999Z</time></trkpt><trkpt lat="43.77544506653039" lon="10.927028524364616"><ele>41.0</ele><time>2026-05-03T08:18:13.999Z</time></trkpt><trkpt lat="43.77536987154298" lon="10.927056862490678"><ele>41.0</ele><time>2026-05-03T08:18:16.999Z</time></trkpt><trkpt lat="43.775298888692966" lon="10.927084460545927"><ele>41.0</ele><time>2026-05-03T08:18:19.999Z</time></trkpt><trkpt lat="43.7752234897271" lon="10.927106165474555"><ele>41.0</ele><time>2026-05-03T08:18:22.999Z</time></trkpt><trkpt lat="43.77515681967906" lon="10.92710081842554"><ele>40.99999999999999</ele><time>2026-05-03T08:18:25.999Z</time></trkpt><trkpt lat="43.77508638816731" lon="10.927108079088462"><ele>41.0</ele><time>2026-05-03T08:18:28.999Z</time></trkpt><trkpt lat="43.77501389054103" lon="10.927107956335213"><ele>41.42857142857142</ele><time>2026-05-03T08:18:31.999Z</time></trkpt><trkpt lat="43.774942444897604" lon="10.927107278608004"><ele>41.857142857142854</ele><time>2026-05-03T08:18:34.999Z</time></trkpt><trkpt lat="43.77487428724557" lon="10.927117468821228"><ele>42.285714285714285</ele><time>2026-05-03T08:18:37.999Z</time></trkpt><trkpt lat="43.77480750500914" lon="10.927131757010834"><ele>42.71428571428571</ele><time>2026-05-03T08:18:40.999Z</time></trkpt><trkpt lat="43.77474622491422" lon="10.92716425143694"><ele>43.14285714285714</ele><time>2026-05-03T08:18:43.999Z</time></trkpt><trkpt lat="43.77467692279228" lon="10.927180417986346"><ele>43.57142857142857</ele><time>2026-05-03T08:18:46.999Z</time></trkpt><trkpt lat="43.77461276616813" lon="10.927184637346993"><ele>44.0</ele><time>2026-05-03T08:18:49.999Z</time></trkpt><trkpt lat="43.774543064460225" lon="10.927195918564694"><ele>44.0</ele><time>2026-05-03T08:18:52.999Z</time></trkpt><trkpt lat="43.774477566749106" lon="10.92720696863079"><ele>44.0</ele><time>2026-05-03T08:18:55.999Z</time></trkpt><trkpt lat="43.77441102788841" lon="10.927214674805144"><ele>44.0</ele><time>2026-05-03T08:18:58.998Z</time></trkpt><trkpt lat="43.77433606475682" lon="10.927221444563669"><ele>44.0</ele><time>2026-05-03T08:19:02.998Z</time></trkpt><trkpt lat="43.7742655166896" lon="10.927203967532993"><ele>44.0</ele><time>2026-05-03T08:19:07Z</time></trkpt><trkpt lat="43.77419637630756" lon="10.927236257415466"><ele>44.0</ele><time>2026-05-03T08:19:11Z</time></trkpt><trkpt lat="43.77411948940506" lon="10.927251794496712"><ele>44.0</ele><time>2026-05-03T08:19:15Z</time></trkpt><trkpt lat="43.77404648721469" lon="10.927293000750371"><ele>44.714285714285715</ele><time>2026-05-03T08:19:19Z</time></trkpt><trkpt lat="43.773982721202785" lon="10.927297342784785"><ele>45.42857142857143</ele><time>2026-05-03T08:19:23Z</time></trkpt><trkpt lat="43.77391439066582" lon="10.927314160442611"><ele>46.14285714285714</ele><time>2026-05-03T08:19:27Z</time></trkpt><trkpt lat="43.77384640127615" lon="10.927315647222017"><ele>46.85714285714286</ele><time>2026-05-03T08:19:31Z</time></trkpt><trkpt lat="43.773778806801324" lon="10.927325042799259"><ele>47.57142857142857</ele><time>2026-05-03T08:19:35Z</time></trkpt><trkpt lat="43.773717557789475" lon="10.927346263711772"><ele>48.285714285714285</ele><time>2026-05-03T08:19:39Z</time></trkpt><trkpt lat="43.77365478046383" lon="10.927378431403453"><ele>49.0</ele><time>2026-05-03T08:19:42.999Z</time></trkpt><trkpt lat="43.77359831296485" lon="10.927417985347095"><ele>49.0</ele><time>2026-05-03T08:19:46.999Z</time></trkpt><trkpt lat="43.77354310403674" lon="10.927481486133734"><ele>49.0</ele><time>2026-05-03T08:19:51.999Z</time></trkpt><trkpt lat="43.773510246579924" lon="10.927564710773028"><ele>49.0</ele><time>2026-05-03T08:19:56.999Z</time></trkpt><trkpt lat="43.773459731689165" lon="10.927619470603634"><ele>49.0</ele><time>2026-05-03T08:20:00.999Z</time></trkpt><trkpt lat="43.77340447239057" lon="10.927689145886562"><ele>49.0</ele><time>2026-05-03T08:20:05.999Z</time></trkpt><trkpt lat="43.773344965892655" lon="10.927754594696943"><ele>49.0</ele><time>2026-05-03T08:20:11.999Z</time></trkpt><trkpt lat="43.773286437742755" lon="10.927806947238144"><ele>49.0</ele><time>2026-05-03T08:20:15.999Z</time></trkpt><trkpt lat="43.77322034387157" lon="10.92787331013077"><ele>51.85714285714286</ele><time>2026-05-03T08:20:21.999Z</time></trkpt><trkpt lat="43.77316959104528" lon="10.927948928615278"><ele>54.714285714285715</ele><time>2026-05-03T08:20:26.999Z</time></trkpt><trkpt lat="43.77311083948102" lon="10.927991473864084"><ele>57.57142857142857</ele><time>2026-05-03T08:20:32.999Z</time></trkpt><trkpt lat="43.7730505878562" lon="10.928057165186136"><ele>60.42857142857143</ele><time>2026-05-03T08:20:37.999Z</time></trkpt><trkpt lat="43.77299604205756" lon="10.928109769724825"><ele>63.28571428571429</ele><time>2026-05-03T08:20:41.999Z</time></trkpt><trkpt lat="43.77293211001362" lon="10.928157197636445"><ele>66.14285714285714</ele><time>2026-05-03T08:20:46.999Z</time></trkpt><trkpt lat="43.772873744234246" lon="10.92819292281703"><ele>69.0</ele><time>2026-05-03T08:20:50.999Z</time></trkpt><trkpt lat="43.772812114589705" lon="10.928222103897042"><ele>69.0</ele><time>2026-05-03T08:20:55.999Z</time></trkpt><trkpt lat="43.772743939405935" lon="10.92826219930922"><ele>69.0</ele><time>2026-05-03T08:21:00.999Z</time></trkpt><trkpt lat="43.77268654136089" lon="10.928308440006072"><ele>69.0</ele><time>2026-05-03T08:21:03.999Z</time></trkpt><trkpt lat="43.772621203446775" lon="10.928357978441362"><ele>69.0</ele><time>2026-05-03T08:21:07.998Z</time></trkpt><trkpt lat="43.772557349334846" lon="10.9284278692632"><ele>69.0</ele><time>2026-05-03T08:21:12Z</time></trkpt><trkpt lat="43.77250254058749" lon="10.928502501457421"><ele>69.0</ele><time>2026-05-03T08:21:16Z</time></trkpt><trkpt lat="43.772463187230855" lon="10.928575140051533"><ele>69.0</ele><time>2026-05-03T08:21:19Z</time></trkpt><trkpt lat="43.7724194431996" lon="10.928662065759863"><ele>69.71428571428572</ele><time>2026-05-03T08:21:23Z</time></trkpt><trkpt lat="43.77237250736696" lon="10.928752443178334"><ele>70.42857142857143</ele><time>2026-05-03T08:21:27Z</time></trkpt><trkpt lat="43.772336918834796" lon="10.928836671539823"><ele>71.14285714285714</ele><time>2026-05-03T08:21:30Z</time></trkpt><trkpt lat="43.772290627165056" lon="10.928910794405962"><ele>71.85714285714286</ele><time>2026-05-03T08:21:33Z</time></trkpt><trkpt lat="43.77224517899817" lon="10.928988699075957"><ele>72.57142857142857</ele><time>2026-05-03T08:21:36Z</time></trkpt><trkpt lat="43.77218900659353" lon="10.929050639932708"><ele>73.28571428571429</ele><time>2026-05-03T08:21:39Z</time></trkpt><trkpt lat="43.772148862927544" lon="10.92912727908374"><ele>74.0</ele><time>2026-05-03T08:21:41.999Z</time></trkpt><trkpt lat="43.77211018252853" lon="10.929198966669492"><ele>74.42857142857143</ele><time>2026-05-03T08:21:44.999Z</time></trkpt><trkpt lat="43.772049109147716" lon="10.929274255490784"><ele>74.85714285714286</ele><time>2026-05-03T08:21:48.999Z</time></trkpt><trkpt lat="43.77198312830758" lon="10.9293394062647"><ele>75.28571428571428</ele><time>2026-05-03T08:21:52.999Z</time></trkpt><trkpt lat="43.77192040155608" lon="10.929383434817067"><ele>75.71428571428572</ele><time>2026-05-03T08:21:55.999Z</time></trkpt><trkpt lat="43.77185822261354" lon="10.92942041679543"><ele>76.14285714285714</ele><time>2026-05-03T08:21:58.999Z</time></trkpt><trkpt lat="43.771799683348874" lon="10.929471038071913"><ele>76.57142857142857</ele><time>2026-05-03T08:22:01.999Z</time></trkpt><trkpt lat="43.77174261305612" lon="10.929516727311997"><ele>77.0</ele><time>2026-05-03T08:22:04.999Z</time></trkpt><trkpt lat="43.7716670533784" lon="10.929533563416825"><ele>77.42857142857143</ele><time>2026-05-03T08:22:07.999Z</time></trkpt><trkpt lat="43.771602265289175" lon="10.929569407685007"><ele>77.85714285714286</ele><time>2026-05-03T08:22:10.999Z</time></trkpt><trkpt lat="43.77154090912131" lon="10.92960872813432"><ele>78.28571428571428</ele><time>2026-05-03T08:22:13.999Z</time></trkpt><trkpt lat="43.77148084702776" lon="10.929650757915358"><ele>78.71428571428572</ele><time>2026-05-03T08:22:16.999Z</time></trkpt><trkpt lat="43.77142022256906" lon="10.929686496205168"><ele>79.14285714285714</ele><time>2026-05-03T08:22:19.999Z</time></trkpt><trkpt lat="43.771351451717635" lon="10.929711679670133"><ele>79.57142857142857</ele><time>2026-05-03T08:22:22.999Z</time></trkpt><trkpt lat="43.77129186052878" lon="10.929760192955094"><ele>80.0</ele><time>2026-05-03T08:22:25.999Z</time></trkpt><trkpt lat="43.7712353776751" lon="10.92980488273972"><ele>80.0</ele><time>2026-05-03T08:22:28.999Z</time></trkpt><trkpt lat="43.77117694524101" lon="10.929848239427168"><ele>80.0</ele><time>2026-05-03T08:22:31.999Z</time></trkpt><trkpt lat="43.77111131281276" lon="10.92987604843248"><ele>80.0</ele><time>2026-05-03T08:22:34.999Z</time></trkpt><trkpt lat="43.771048524470224" lon="10.929913937594891"><ele>80.0</ele><time>2026-05-03T08:22:37.999Z</time></trkpt><trkpt lat="43.770987445831004" lon="10.929957704319431"><ele>80.0</ele><time>2026-05-03T08:22:40.999Z</time></trkpt><trkpt lat="43.77092061993478" lon="10.930002069690795"><ele>80.0</ele><time>2026-05-03T08:22:43.999Z</time></trkpt><trkpt lat="43.7708649148324" lon="10.930082159988542"><ele>80.0</ele><time>2026-05-03T08:22:46.999Z</time></trkpt><trkpt lat="43.770809699702696" lon="10.930150054321432"><ele>80.71428571428571</ele><time>2026-05-03T08:22:49.999Z</time></trkpt><trkpt lat="43.77076254199561" lon="10.93022912116024"><ele>81.42857142857143</ele><time>2026-05-03T08:22:52.999Z</time></trkpt><trkpt lat="43.770726632105884" lon="10.930301671389508"><ele>82.14285714285714</ele><time>2026-05-03T08:22:55.999Z</time></trkpt><trkpt lat="43.77069219831251" lon="10.930402468203834"><ele>82.85714285714286</ele><time>2026-05-03T08:22:59.999Z</time></trkpt><trkpt lat="43.77068123449718" lon="10.930490066697269"><ele>83.57142857142857</ele><time>2026-05-03T08:23:02.998Z</time></trkpt><trkpt lat="43.77068644406279" lon="10.930590461332796"><ele>84.28571428571429</ele><time>2026-05-03T08:23:06.998Z</time></trkpt><trkpt lat="43.77067776328561" lon="10.930702535971907"><ele>85.0</ele><time>2026-05-03T08:23:10.998Z</time></trkpt><trkpt lat="43.770657893383955" lon="10.930803285561167"><ele>85.5</ele><time>2026-05-03T08:23:14.998Z</time></trkpt><trkpt lat="43.77064510710951" lon="10.930904535486253"><ele>86.0</ele><time>2026-05-03T08:23:19Z</time></trkpt><trkpt lat="43.77065774260577" lon="10.931015542600328"><ele>86.5</ele><time>2026-05-03T08:23:23Z</time></trkpt><trkpt lat="43.770663050871974" lon="10.931127638418102"><ele>87.0</ele><time>2026-05-03T08:23:27Z</time></trkpt><trkpt lat="43.77064476524329" lon="10.93122865537065"><ele>87.5</ele><time>2026-05-03T08:23:31Z</time></trkpt><trkpt lat="43.77063425499948" lon="10.931340010034623"><ele>88.0</ele><time>2026-05-03T08:23:34.999Z</time></trkpt><trkpt lat="43.77062310514095" lon="10.931436772084028"><ele>88.0</ele><time>2026-05-03T08:23:38.999Z</time></trkpt><trkpt lat="43.77062405484175" lon="10.931546916557789"><ele>88.0</ele><time>2026-05-03T08:23:42.999Z</time></trkpt><trkpt lat="43.77060625872882" lon="10.931654336481104"><ele>88.0</ele><time>2026-05-03T08:23:46.999Z</time></trkpt><trkpt lat="43.770578145915145" lon="10.931740372878624"><ele>88.0</ele><time>2026-05-03T08:23:49.999Z</time></trkpt><trkpt lat="43.77055453678628" lon="10.931822202879976"><ele>88.0</ele><time>2026-05-03T08:23:52.999Z</time></trkpt><trkpt lat="43.770537528117096" lon="10.93191057729692"><ele>88.0</ele><time>2026-05-03T08:23:55.999Z</time></trkpt><trkpt lat="43.770508351944294" lon="10.931990694595228"><ele>88.0</ele><time>2026-05-03T08:23:58.999Z</time></trkpt><trkpt lat="43.770473279986675" lon="10.932097181981732"><ele>87.28571428571429</ele><time>2026-05-03T08:24:02.999Z</time></trkpt><trkpt lat="43.77045527171194" lon="10.932192914681977"><ele>86.57142857142857</ele><time>2026-05-03T08:24:05.999Z</time></trkpt><trkpt lat="43.77041786904509" lon="10.932269994844404"><ele>85.85714285714286</ele><time>2026-05-03T08:24:08.999Z</time></trkpt><trkpt lat="43.77038167302036" lon="10.932354452077671"><ele>85.14285714285714</ele><time>2026-05-03T08:24:11.999Z</time></trkpt><trkpt lat="43.770339923877515" lon="10.93244352313908"><ele>84.42857142857143</ele><time>2026-05-03T08:24:14.999Z</time></trkpt><trkpt lat="43.770304711199294" lon="10.932537141191945"><ele>83.71428571428571</ele><time>2026-05-03T08:24:17.999Z</time></trkpt><trkpt lat="43.77026981994935" lon="10.932622495569674"><ele>83.0</ele><time>2026-05-03T08:24:20.999Z</time></trkpt><trkpt lat="43.7702251949038" lon="10.932709630617186"><ele>83.16666666666667</ele><time>2026-05-03T08:24:23.999Z</time></trkpt><trkpt lat="43.77017017399122" lon="10.932792598647259"><ele>83.33333333333334</ele><time>2026-05-03T08:24:26.999Z</time></trkpt><trkpt lat="43.77012540196597" lon="10.932881521154366"><ele>83.5</ele><time>2026-05-03T08:24:29.999Z</time></trkpt><trkpt lat="43.770071864309685" lon="10.932962181161313"><ele>83.66666666666667</ele><time>2026-05-03T08:24:32.999Z</time></trkpt><trkpt lat="43.770019416410044" lon="10.933046872619652"><ele>83.83333333333333</ele><time>2026-05-03T08:24:35.999Z</time></trkpt><trkpt lat="43.769959817705036" lon="10.933127240813103"><ele>84.0</ele><time>2026-05-03T08:24:38.999Z</time></trkpt><trkpt lat="43.76991372130695" lon="10.933215601837903"><ele>84.0</ele><time>2026-05-03T08:24:41.999Z</time></trkpt><trkpt lat="43.769863053645146" lon="10.93328871474503"><ele>84.0</ele><time>2026-05-03T08:24:44.999Z</time></trkpt><trkpt lat="43.76981132778366" lon="10.933351193769788"><ele>84.0</ele><time>2026-05-03T08:24:47.999Z</time></trkpt><trkpt lat="43.76976487698854" lon="10.93345121775547"><ele>84.0</ele><time>2026-05-03T08:24:50.999Z</time></trkpt><trkpt lat="43.76973979081954" lon="10.93356253486583"><ele>84.0</ele><time>2026-05-03T08:24:53.999Z</time></trkpt><trkpt lat="43.76972872999089" lon="10.933666760236555"><ele>84.0</ele><time>2026-05-03T08:24:56.999Z</time></trkpt><trkpt lat="43.76967758232444" lon="10.933750474688647"><ele>84.33333333333333</ele><time>2026-05-03T08:24:59.998Z</time></trkpt><trkpt lat="43.76961996782982" lon="10.933823888783987"><ele>84.66666666666667</ele><time>2026-05-03T08:25:02.998Z</time></trkpt><trkpt lat="43.76955877345246" lon="10.933892752397181"><ele>85.0</ele><time>2026-05-03T08:25:05.998Z</time></trkpt><trkpt lat="43.7695010677772" lon="10.933959351018466"><ele>85.33333333333334</ele><time>2026-05-03T08:25:08.998Z</time></trkpt><trkpt lat="43.76942953600134" lon="10.9340241085774"><ele>85.66666666666667</ele><time>2026-05-03T08:25:11.998Z</time></trkpt><trkpt lat="43.76937200450007" lon="10.934104759272737"><ele>86.0</ele><time>2026-05-03T08:25:14.998Z</time></trkpt><trkpt lat="43.76929990006697" lon="10.93416220488804"><ele>85.5</ele><time>2026-05-03T08:25:17.998Z</time></trkpt><trkpt lat="43.769229244301314" lon="10.934216597209861"><ele>85.0</ele><time>2026-05-03T08:25:20.998Z</time></trkpt><trkpt lat="43.7691492278954" lon="10.934262499850497"><ele>84.5</ele><time>2026-05-03T08:25:23.999Z</time></trkpt><trkpt lat="43.769065358326905" lon="10.934292376782333"><ele>84.0</ele><time>2026-05-03T08:25:26.999Z</time></trkpt><trkpt lat="43.76899180875792" lon="10.934355860646233"><ele>83.5</ele><time>2026-05-03T08:25:29.999Z</time></trkpt><trkpt lat="43.76894140148195" lon="10.93441662162755"><ele>83.0</ele><time>2026-05-03T08:25:31.999Z</time></trkpt><trkpt lat="43.76887875608643" lon="10.934492760004051"><ele>83.0</ele><time>2026-05-03T08:25:34.999Z</time></trkpt><trkpt lat="43.76882413102949" lon="10.934592647332856"><ele>83.0</ele><time>2026-05-03T08:25:37.999Z</time></trkpt><trkpt lat="43.768760439528066" lon="10.934673481179564"><ele>83.0</ele><time>2026-05-03T08:25:40.999Z</time></trkpt><trkpt lat="43.768694438840974" lon="10.934756757267095"><ele>83.0</ele><time>2026-05-03T08:25:43.999Z</time></trkpt><trkpt lat="43.76864147747727" lon="10.934853147831367"><ele>83.0</ele><time>2026-05-03T08:25:46.999Z</time></trkpt><trkpt lat="43.76859879917076" lon="10.93495103569243"><ele>83.0</ele><time>2026-05-03T08:25:49.999Z</time></trkpt><trkpt lat="43.76853511760918" lon="10.93502844848504"><ele>83.0</ele><time>2026-05-03T08:25:52.999Z</time></trkpt><trkpt lat="43.768462244140586" lon="10.935072887020086"><ele>83.0</ele><time>2026-05-03T08:25:55.999Z</time></trkpt><trkpt lat="43.76840363577068" lon="10.93512818141518"><ele>83.0</ele><time>2026-05-03T08:25:58.999Z</time></trkpt><trkpt lat="43.76833250216287" lon="10.935182682385667"><ele>83.0</ele><time>2026-05-03T08:26:01.999Z</time></trkpt><trkpt lat="43.76826379168877" lon="10.93522189128475"><ele>83.0</ele><time>2026-05-03T08:26:04.999Z</time></trkpt><trkpt lat="43.768190448124926" lon="10.935257129897776"><ele>83.0</ele><time>2026-05-03T08:26:07.999Z</time></trkpt><trkpt lat="43.76811138498183" lon="10.93525525007498"><ele>83.0</ele><time>2026-05-03T08:26:10.999Z</time></trkpt><trkpt lat="43.768036937762005" lon="10.93525075123024"><ele>83.0</ele><time>2026-05-03T08:26:13.999Z</time></trkpt><trkpt lat="43.76796661383375" lon="10.935254725956543"><ele>83.0</ele><time>2026-05-03T08:26:16.999Z</time></trkpt><trkpt lat="43.76789783552606" lon="10.935252422293816"><ele>83.0</ele><time>2026-05-03T08:26:19.999Z</time></trkpt><trkpt lat="43.7678252509961" lon="10.935251249189823"><ele>83.0</ele><time>2026-05-03T08:26:22.999Z</time></trkpt><trkpt lat="43.76775869309649" lon="10.935266897940869"><ele>83.0</ele><time>2026-05-03T08:26:25.999Z</time></trkpt><trkpt lat="43.767687778909654" lon="10.935259831733106"><ele>83.0</ele><time>2026-05-03T08:26:28.999Z</time></trkpt><trkpt lat="43.767618855507" lon="10.93524275314356"><ele>83.42857142857143</ele><time>2026-05-03T08:26:31.999Z</time></trkpt><trkpt lat="43.76755663108173" lon="10.93522541047699"><ele>83.85714285714286</ele><time>2026-05-03T08:26:34.999Z</time></trkpt><trkpt lat="43.767489800340655" lon="10.935225886398939"><ele>84.28571428571429</ele><time>2026-05-03T08:26:37.999Z</time></trkpt><trkpt lat="43.76742437809941" lon="10.93519809955624"><ele>84.71428571428572</ele><time>2026-05-03T08:26:40.999Z</time></trkpt><trkpt lat="43.76735881328326" lon="10.935203574203216"><ele>85.14285714285714</ele><time>2026-05-03T08:26:43.999Z</time></trkpt><trkpt lat="43.767293674527146" lon="10.935211628141554"><ele>85.57142857142858</ele><time>2026-05-03T08:26:46.999Z</time></trkpt><trkpt lat="43.76721309261737" lon="10.935240173268468"><ele>86.0</ele><time>2026-05-03T08:26:50.999Z</time></trkpt><trkpt lat="43.767155638421166" lon="10.93529885370334"><ele>86.00000000000001</ele><time>2026-05-03T08:26:53.999Z</time></trkpt><trkpt lat="43.76711888165889" lon="10.935374095827722"><ele>86.0</ele><time>2026-05-03T08:26:56.999Z</time></trkpt><trkpt lat="43.767077405428225" lon="10.935440684412193"><ele>86.0</ele><time>2026-05-03T08:26:59.999Z</time></trkpt><trkpt lat="43.76702792119389" lon="10.935524378308592"><ele>86.0</ele><time>2026-05-03T08:27:03.999Z</time></trkpt><trkpt lat="43.76697807745461" lon="10.935601997691027"><ele>86.0</ele><time>2026-05-03T08:27:07.998Z</time></trkpt><trkpt lat="43.766930277037034" lon="10.935683685606367"><ele>86.00000000000001</ele><time>2026-05-03T08:27:11.998Z</time></trkpt><trkpt lat="43.766881116844786" lon="10.935758486073027"><ele>86.0</ele><time>2026-05-03T08:27:15.998Z</time></trkpt><trkpt lat="43.766845062261886" lon="10.93583548334957"><ele>86.14285714285715</ele><time>2026-05-03T08:27:19.998Z</time></trkpt><trkpt lat="43.7668064286756" lon="10.935923113166329"><ele>86.28571428571429</ele><time>2026-05-03T08:27:23.998Z</time></trkpt><trkpt lat="43.766779800013396" lon="10.936004045484562"><ele>86.42857142857143</ele><time>2026-05-03T08:27:26.998Z</time></trkpt><trkpt lat="43.7667433066995" lon="10.93607889281569"><ele>86.57142857142858</ele><time>2026-05-03T08:27:30Z</time></trkpt><trkpt lat="43.76669084658579" lon="10.936138077472378"><ele>86.71428571428572</ele><time>2026-05-03T08:27:33Z</time></trkpt><trkpt lat="43.76664991431893" lon="10.936215533584056"><ele>86.85714285714286</ele><time>2026-05-03T08:27:36Z</time></trkpt><trkpt lat="43.7666085500857" lon="10.936299791929066"><ele>87.0</ele><time>2026-05-03T08:27:39Z</time></trkpt><trkpt lat="43.7665546681378" lon="10.936372558577164"><ele>87.0</ele><time>2026-05-03T08:27:42Z</time></trkpt><trkpt lat="43.766522647310396" lon="10.936464614116598"><ele>87.0</ele><time>2026-05-03T08:27:44.999Z</time></trkpt><trkpt lat="43.766489214426464" lon="10.936568188016617"><ele>87.0</ele><time>2026-05-03T08:27:47.999Z</time></trkpt><trkpt lat="43.76643656747293" lon="10.936645056806551"><ele>87.0</ele><time>2026-05-03T08:27:50.999Z</time></trkpt><trkpt lat="43.76640983858073" lon="10.936747962309083"><ele>87.0</ele><time>2026-05-03T08:27:53.999Z</time></trkpt><trkpt lat="43.76636648410005" lon="10.936842310481286"><ele>87.0</ele><time>2026-05-03T08:27:56.999Z</time></trkpt><trkpt lat="43.766317060716" lon="10.936929319453846"><ele>86.5</ele><time>2026-05-03T08:27:59.999Z</time></trkpt><trkpt lat="43.766262831776224" lon="10.937016101528528"><ele>86.0</ele><time>2026-05-03T08:28:02.999Z</time></trkpt><trkpt lat="43.766214715393374" lon="10.937104944668755"><ele>85.5</ele><time>2026-05-03T08:28:05.999Z</time></trkpt><trkpt lat="43.76616226499765" lon="10.937192165665465"><ele>85.0</ele><time>2026-05-03T08:28:08.999Z</time></trkpt><trkpt lat="43.766109292688384" lon="10.937281737872674"><ele>84.5</ele><time>2026-05-03T08:28:11.999Z</time></trkpt><trkpt lat="43.76605399601488" lon="10.937361760248473"><ele>84.0</ele><time>2026-05-03T08:28:14.999Z</time></trkpt><trkpt lat="43.76601109064994" lon="10.937462990101336"><ele>83.5</ele><time>2026-05-03T08:28:17.999Z</time></trkpt><trkpt lat="43.76595913179276" lon="10.937556513852298"><ele>83.0</ele><time>2026-05-03T08:28:20.999Z</time></trkpt><trkpt lat="43.765907349611034" lon="10.937653243187738"><ele>82.5</ele><time>2026-05-03T08:28:23.999Z</time></trkpt><trkpt lat="43.765849942713864" lon="10.937731884977365"><ele>82.0</ele><time>2026-05-03T08:28:26.999Z</time></trkpt><trkpt lat="43.7658088659001" lon="10.937822275676963"><ele>81.5</ele><time>2026-05-03T08:28:29.999Z</time></trkpt><trkpt lat="43.76577112171083" lon="10.937909098944674"><ele>81.0</ele><time>2026-05-03T08:28:32.999Z</time></trkpt><trkpt lat="43.76571895666327" lon="10.937999947482238"><ele>81.0</ele><time>2026-05-03T08:28:35.999Z</time></trkpt><trkpt lat="43.76567738630527" lon="10.938096332621296"><ele>81.0</ele><time>2026-05-03T08:28:38.999Z</time></trkpt><trkpt lat="43.76565373345669" lon="10.938194029811424"><ele>81.0</ele><time>2026-05-03T08:28:41.999Z</time></trkpt><trkpt lat="43.76564394332815" lon="10.938294406537821"><ele>81.0</ele><time>2026-05-03T08:28:44.999Z</time></trkpt><trkpt lat="43.76564066114651" lon="10.938405138698505"><ele>81.0</ele><time>2026-05-03T08:28:47.999Z</time></trkpt><trkpt lat="43.765635949213014" lon="10.938512742255128"><ele>81.0</ele><time>2026-05-03T08:28:50.999Z</time></trkpt><trkpt lat="43.76564236105647" lon="10.938626036253698"><ele>80.33333333333333</ele><time>2026-05-03T08:28:53.999Z</time></trkpt><trkpt lat="43.76563776873716" lon="10.93873629941341"><ele>79.66666666666667</ele><time>2026-05-03T08:28:56.998Z</time></trkpt><trkpt lat="43.76561066105149" lon="10.93881515332056"><ele>79.0</ele><time>2026-05-03T08:28:58.998Z</time></trkpt><trkpt lat="43.76559142859807" lon="10.938911984832837"><ele>78.33333333333334</ele><time>2026-05-03T08:29:01.998Z</time></trkpt><trkpt lat="43.76555330145672" lon="10.939018017641725"><ele>77.66666666666667</ele><time>2026-05-03T08:29:04.998Z</time></trkpt><trkpt lat="43.76553525214102" lon="10.939131222094977"><ele>77.0</ele><time>2026-05-03T08:29:07.998Z</time></trkpt><trkpt lat="43.765496531396344" lon="10.93923678208489"><ele>76.16666666666667</ele><time>2026-05-03T08:29:10.998Z</time></trkpt><trkpt lat="43.76547793163803" lon="10.939336476838818"><ele>75.33333333333334</ele><time>2026-05-03T08:29:13.998Z</time></trkpt><trkpt lat="43.765445786733686" lon="10.939437643206904"><ele>74.5</ele><time>2026-05-03T08:29:16.998Z</time></trkpt><trkpt lat="43.765424058135935" lon="10.939543716213656"><ele>73.66666666666667</ele><time>2026-05-03T08:29:19.998Z</time></trkpt><trkpt lat="43.7653833530215" lon="10.939640012623595"><ele>72.83333333333333</ele><time>2026-05-03T08:29:22.998Z</time></trkpt><trkpt lat="43.765354226759044" lon="10.939747674252507"><ele>72.0</ele><time>2026-05-03T08:29:25.998Z</time></trkpt><trkpt lat="43.765324189681905" lon="10.939860751129244"><ele>72.0</ele><time>2026-05-03T08:29:28.998Z</time></trkpt><trkpt lat="43.7652964616786" lon="10.93995993480685"><ele>72.0</ele><time>2026-05-03T08:29:31.998Z</time></trkpt><trkpt lat="43.76526701495383" lon="10.940065934671562"><ele>72.0</ele><time>2026-05-03T08:29:34.999Z</time></trkpt><trkpt lat="43.76525270058061" lon="10.94017491841288"><ele>72.0</ele><time>2026-05-03T08:29:37.999Z</time></trkpt><trkpt lat="43.76522332741567" lon="10.940284892851755"><ele>72.0</ele><time>2026-05-03T08:29:40.999Z</time></trkpt><trkpt lat="43.76519331943777" lon="10.94039090028212"><ele>72.0</ele><time>2026-05-03T08:29:43.999Z</time></trkpt><trkpt lat="43.76516501882882" lon="10.94050170107877"><ele>70.0</ele><time>2026-05-03T08:29:46.999Z</time></trkpt><trkpt lat="43.765138626634716" lon="10.940612085067063"><ele>68.0</ele><time>2026-05-03T08:29:49.999Z</time></trkpt><trkpt lat="43.765102593474545" lon="10.940716891265717"><ele>66.0</ele><time>2026-05-03T08:29:52.999Z</time></trkpt><trkpt lat="43.765090664123846" lon="10.94083475456719"><ele>64.0</ele><time>2026-05-03T08:29:55.999Z</time></trkpt><trkpt lat="43.76506789436276" lon="10.940935906947049"><ele>62.0</ele><time>2026-05-03T08:29:58.999Z</time></trkpt><trkpt lat="43.76505031679229" lon="10.941055878447417"><ele>60.0</ele><time>2026-05-03T08:30:01.999Z</time></trkpt><trkpt lat="43.76504765414885" lon="10.941167856313186"><ele>59.166666666666664</ele><time>2026-05-03T08:30:04.999Z</time></trkpt><trkpt lat="43.76503751269083" lon="10.941285827535083"><ele>58.33333333333333</ele><time>2026-05-03T08:30:07.999Z</time></trkpt><trkpt lat="43.76502118346166" lon="10.941404828877085"><ele>57.5</ele><time>2026-05-03T08:30:10.999Z</time></trkpt><trkpt lat="43.764997114717104" lon="10.941485424750683"><ele>56.666666666666664</ele><time>2026-05-03T08:30:12.999Z</time></trkpt><trkpt lat="43.764989462851496" lon="10.941613613269926"><ele>55.83333333333333</ele><time>2026-05-03T08:30:15.999Z</time></trkpt><trkpt lat="43.764975597257035" lon="10.941732691672325"><ele>55.0</ele><time>2026-05-03T08:30:18.999Z</time></trkpt><trkpt lat="43.76495570754361" lon="10.941844378100098"><ele>53.49999999999999</ele><time>2026-05-03T08:30:21.999Z</time></trkpt><trkpt lat="43.76493712108492" lon="10.941965797139074"><ele>52.0</ele><time>2026-05-03T08:30:24.999Z</time></trkpt><trkpt lat="43.76490361350215" lon="10.942081818754259"><ele>50.5</ele><time>2026-05-03T08:30:27.999Z</time></trkpt><trkpt lat="43.76486546831285" lon="10.9421983583005"><ele>49.0</ele><time>2026-05-03T08:30:30.999Z</time></trkpt><trkpt lat="43.76482256514027" lon="10.942300021473095"><ele>47.5</ele><time>2026-05-03T08:30:33.999Z</time></trkpt><trkpt lat="43.764782934004856" lon="10.942405534556395"><ele>46.0</ele><time>2026-05-03T08:30:36.999Z</time></trkpt><trkpt lat="43.76474176763822" lon="10.942474862016724"><ele>45.833333333333336</ele><time>2026-05-03T08:30:38.999Z</time></trkpt><trkpt lat="43.7647012736169" lon="10.942576533825298"><ele>45.66666666666667</ele><time>2026-05-03T08:30:41.999Z</time></trkpt><trkpt lat="43.764674064576504" lon="10.942669368728664"><ele>45.5</ele><time>2026-05-03T08:30:44.999Z</time></trkpt><trkpt lat="43.76464648764741" lon="10.942777186945804"><ele>45.333333333333336</ele><time>2026-05-03T08:30:47.999Z</time></trkpt><trkpt lat="43.76461677816819" lon="10.942886924440561"><ele>45.166666666666664</ele><time>2026-05-03T08:30:50.999Z</time></trkpt><trkpt lat="43.764610038019" lon="10.942995526827113"><ele>45.0</ele><time>2026-05-03T08:30:53.999Z</time></trkpt><trkpt lat="43.76460633623356" lon="10.943104125533237"><ele>45.0</ele><time>2026-05-03T08:30:56.999Z</time></trkpt><trkpt lat="43.764616277233685" lon="10.94320944326967"><ele>45.0</ele><time>2026-05-03T08:30:59.999Z</time></trkpt><trkpt lat="43.764617902815786" lon="10.94331949521257"><ele>45.0</ele><time>2026-05-03T08:31:02.999Z</time></trkpt><trkpt lat="43.76463132602302" lon="10.943412059505423"><ele>45.0</ele><time>2026-05-03T08:31:05.999Z</time></trkpt><trkpt lat="43.76464503134702" lon="10.943506405184005"><ele>45.0</ele><time>2026-05-03T08:31:08.999Z</time></trkpt><trkpt lat="43.76466647515253" lon="10.94361661116085"><ele>45.0</ele><time>2026-05-03T08:31:12.998Z</time></trkpt><trkpt lat="43.76469811643413" lon="10.943710029841514"><ele>45.57142857142857</ele><time>2026-05-03T08:31:16.998Z</time></trkpt><trkpt lat="43.764724376051475" lon="10.943801504324323"><ele>46.142857142857146</ele><time>2026-05-03T08:31:20.998Z</time></trkpt><trkpt lat="43.76474515661387" lon="10.943895750779689"><ele>46.714285714285715</ele><time>2026-05-03T08:31:24.998Z</time></trkpt><trkpt lat="43.764769505045024" lon="10.943982299067928"><ele>47.285714285714285</ele><time>2026-05-03T08:31:28.998Z</time></trkpt><trkpt lat="43.76479559123505" lon="10.944068223179109"><ele>47.85714285714286</ele><time>2026-05-03T08:31:32.998Z</time></trkpt><trkpt lat="43.764815587791794" lon="10.944152048623947"><ele>48.42857142857143</ele><time>2026-05-03T08:31:36.998Z</time></trkpt><trkpt lat="43.76483707664136" lon="10.944242811961688"><ele>49.0</ele><time>2026-05-03T08:31:40.999Z</time></trkpt><trkpt lat="43.76486890103214" lon="10.944332183428067"><ele>50.42857142857143</ele><time>2026-05-03T08:31:45.999Z</time></trkpt><trkpt lat="43.764884981576046" lon="10.94442708535341"><ele>51.85714285714286</ele><time>2026-05-03T08:31:49.999Z</time></trkpt><trkpt lat="43.76484692746455" lon="10.944519797865508"><ele>53.285714285714285</ele><time>2026-05-03T08:31:53.999Z</time></trkpt><trkpt lat="43.764809044336225" lon="10.944608256199212"><ele>54.714285714285715</ele><time>2026-05-03T08:31:57.999Z</time></trkpt><trkpt lat="43.76477389086225" lon="10.944693188601002"><ele>56.142857142857146</ele><time>2026-05-03T08:32:01.999Z</time></trkpt><trkpt lat="43.764730431353385" lon="10.944771522726326"><ele>57.57142857142857</ele><time>2026-05-03T08:32:05.999Z</time></trkpt><trkpt lat="43.764690796146226" lon="10.944849430285968"><ele>59.0</ele><time>2026-05-03T08:32:09.999Z</time></trkpt><trkpt lat="43.76463666626005" lon="10.944918144111321"><ele>59.0</ele><time>2026-05-03T08:32:13.999Z</time></trkpt><trkpt lat="43.764599815010044" lon="10.94500639061682"><ele>59.0</ele><time>2026-05-03T08:32:17.999Z</time></trkpt><trkpt lat="43.76455883577727" lon="10.945098607795208"><ele>59.0</ele><time>2026-05-03T08:32:22.999Z</time></trkpt><trkpt lat="43.7645207413191" lon="10.945171373255214"><ele>59.0</ele><time>2026-05-03T08:32:26.999Z</time></trkpt><trkpt lat="43.764485002285426" lon="10.945255804852495"><ele>59.0</ele><time>2026-05-03T08:32:30.999Z</time></trkpt><trkpt lat="43.76444078075222" lon="10.945319227675439"><ele>59.0</ele><time>2026-05-03T08:32:34.999Z</time></trkpt><trkpt lat="43.764404643898786" lon="10.945399442120237"><ele>59.0</ele><time>2026-05-03T08:32:38.999Z</time></trkpt><trkpt lat="43.76434954479525" lon="10.945475197799503"><ele>60.57142857142857</ele><time>2026-05-03T08:32:43.999Z</time></trkpt><trkpt lat="43.76430668735145" lon="10.94554800712765"><ele>62.142857142857146</ele><time>2026-05-03T08:32:47.999Z</time></trkpt><trkpt lat="43.7642674763809" lon="10.945624308632983"><ele>63.714285714285715</ele><time>2026-05-03T08:32:51.999Z</time></trkpt><trkpt lat="43.764233483800005" lon="10.945700815824416"><ele>65.28571428571428</ele><time>2026-05-03T08:32:55.999Z</time></trkpt><trkpt lat="43.76419046706265" lon="10.945787217267322"><ele>66.85714285714286</ele><time>2026-05-03T08:33:00.999Z</time></trkpt><trkpt lat="43.76415155393477" lon="10.945876951794698"><ele>68.42857142857143</ele><time>2026-05-03T08:33:05.999Z</time></trkpt><trkpt lat="43.76410640021394" lon="10.945963663885284"><ele>70.0</ele><time>2026-05-03T08:33:10.999Z</time></trkpt><trkpt lat="43.76406527941795" lon="10.946038167390904"><ele>71.57142857142857</ele><time>2026-05-03T08:33:14.999Z</time></trkpt><trkpt lat="43.764017711012784" lon="10.946118014372857"><ele>73.14285714285714</ele><time>2026-05-03T08:33:19.999Z</time></trkpt><trkpt lat="43.763969525292005" lon="10.946186991869753"><ele>74.71428571428572</ele><time>2026-05-03T08:33:25.999Z</time></trkpt><trkpt lat="43.763919113644974" lon="10.946264585234111"><ele>76.28571428571428</ele><time>2026-05-03T08:33:30.998Z</time></trkpt><trkpt lat="43.76386411357913" lon="10.946340828537256"><ele>77.85714285714286</ele><time>2026-05-03T08:33:35.998Z</time></trkpt><trkpt lat="43.763812105954614" lon="10.946395354097524"><ele>79.42857142857143</ele><time>2026-05-03T08:33:39.998Z</time></trkpt><trkpt lat="43.763775679710164" lon="10.946496260183638"><ele>81.0</ele><time>2026-05-03T08:33:44.998Z</time></trkpt><trkpt lat="43.76372616617848" lon="10.94656969819138"><ele>81.0</ele><time>2026-05-03T08:33:48.999Z</time></trkpt><trkpt lat="43.76369974662423" lon="10.946668347338129"><ele>81.0</ele><time>2026-05-03T08:33:52.999Z</time></trkpt><trkpt lat="43.76364041300297" lon="10.946735416775216"><ele>81.0</ele><time>2026-05-03T08:33:57Z</time></trkpt><trkpt lat="43.763597177631674" lon="10.946815650537134"><ele>81.0</ele><time>2026-05-03T08:34:01Z</time></trkpt><trkpt lat="43.76354845136695" lon="10.946895934377142"><ele>81.0</ele><time>2026-05-03T08:34:04.999Z</time></trkpt><trkpt lat="43.763498735734316" lon="10.94696675249441"><ele>81.0</ele><time>2026-05-03T08:34:08.999Z</time></trkpt><trkpt lat="43.763456423926634" lon="10.947040787170785"><ele>81.0</ele><time>2026-05-03T08:34:12.999Z</time></trkpt><trkpt lat="43.76341610299584" lon="10.947110763138921"><ele>81.14285714285714</ele><time>2026-05-03T08:34:16.999Z</time></trkpt><trkpt lat="43.763347615591016" lon="10.947160010107291"><ele>81.28571428571428</ele><time>2026-05-03T08:34:20.999Z</time></trkpt><trkpt lat="43.76327812047322" lon="10.947205507256871"><ele>81.42857142857142</ele><time>2026-05-03T08:34:24.999Z</time></trkpt><trkpt lat="43.76320727315157" lon="10.947255366005086"><ele>81.57142857142857</ele><time>2026-05-03T08:34:28.999Z</time></trkpt><trkpt lat="43.763157876740046" lon="10.947311313063587"><ele>81.71428571428571</ele><time>2026-05-03T08:35:01.999Z</time></trkpt><trkpt lat="43.76312688385858" lon="10.947393525547866"><ele>81.85714285714285</ele><time>2026-05-03T08:35:04.999Z</time></trkpt><trkpt lat="43.763104167664764" lon="10.94749558937181"><ele>82.0</ele><time>2026-05-03T08:35:07.999Z</time></trkpt><trkpt lat="43.76311241590361" lon="10.947592465289212"><ele>80.71428571428571</ele><time>2026-05-03T08:35:11.999Z</time></trkpt><trkpt lat="43.76312789467345" lon="10.947680010883929"><ele>79.42857142857143</ele><time>2026-05-03T08:35:14.999Z</time></trkpt><trkpt lat="43.763141520827276" lon="10.947767431037578"><ele>78.14285714285714</ele><time>2026-05-03T08:35:17.999Z</time></trkpt><trkpt lat="43.76315168988667" lon="10.947865193756375"><ele>76.85714285714286</ele><time>2026-05-03T08:35:20.999Z</time></trkpt><trkpt lat="43.763166275078234" lon="10.94796207559854"><ele>75.57142857142857</ele><time>2026-05-03T08:35:23.999Z</time></trkpt><trkpt lat="43.76319890023217" lon="10.948052104434455"><ele>74.28571428571428</ele><time>2026-05-03T08:35:26.999Z</time></trkpt><trkpt lat="43.7632151338735" lon="10.948158443338917"><ele>73.0</ele><time>2026-05-03T08:35:29.999Z</time></trkpt><trkpt lat="43.763219193229" lon="10.948259171645107"><ele>73.0</ele><time>2026-05-03T08:35:32.999Z</time></trkpt><trkpt lat="43.763223566801216" lon="10.948362184883825"><ele>73.0</ele><time>2026-05-03T08:35:35.999Z</time></trkpt><trkpt lat="43.76323271837222" lon="10.948467139134376"><ele>73.0</ele><time>2026-05-03T08:35:38.999Z</time></trkpt><trkpt lat="43.7632418409812" lon="10.948568003686571"><ele>73.0</ele><time>2026-05-03T08:35:41.999Z</time></trkpt><trkpt lat="43.76326797276899" lon="10.948672617229171"><ele>73.0</ele><time>2026-05-03T08:35:44.999Z</time></trkpt><trkpt lat="43.763283663746485" lon="10.948781938748374"><ele>73.0</ele><time>2026-05-03T08:35:47.998Z</time></trkpt><trkpt lat="43.76334238208109" lon="10.94886773320017"><ele>72.33333333333333</ele><time>2026-05-03T08:35:50.998Z</time></trkpt><trkpt lat="43.763402566517215" lon="10.948942429196828"><ele>71.66666666666666</ele><time>2026-05-03T08:35:54Z</time></trkpt><trkpt lat="43.763464593719156" lon="10.949021698246291"><ele>71.0</ele><time>2026-05-03T08:35:57Z</time></trkpt><trkpt lat="43.76353052374249" lon="10.949082085697627"><ele>70.33333333333333</ele><time>2026-05-03T08:36:00Z</time></trkpt><trkpt lat="43.763606854907025" lon="10.949098680484866"><ele>69.66666666666667</ele><time>2026-05-03T08:36:03Z</time></trkpt><trkpt lat="43.76368283171898" lon="10.949128959280268"><ele>69.0</ele><time>2026-05-03T08:36:06Z</time></trkpt><trkpt lat="43.76376124331234" lon="10.949155497883181"><ele>69.0</ele><time>2026-05-03T08:36:09Z</time></trkpt><trkpt lat="43.76383011196273" lon="10.949207699071177"><ele>69.0</ele><time>2026-05-03T08:36:12Z</time></trkpt><trkpt lat="43.76390199014019" lon="10.949263072893583"><ele>69.0</ele><time>2026-05-03T08:36:15Z</time></trkpt><trkpt lat="43.7639637781502" lon="10.949306870892949"><ele>69.0</ele><time>2026-05-03T08:36:17.999Z</time></trkpt><trkpt lat="43.764034596523764" lon="10.949361648142528"><ele>69.0</ele><time>2026-05-03T08:36:20.999Z</time></trkpt><trkpt lat="43.76408104977553" lon="10.94942101378623"><ele>69.0</ele><time>2026-05-03T08:36:22.999Z</time></trkpt><trkpt lat="43.76415551086591" lon="10.94947276593478"><ele>67.83333333333333</ele><time>2026-05-03T08:36:25.999Z</time></trkpt><trkpt lat="43.764224292228825" lon="10.949542600043374"><ele>66.66666666666667</ele><time>2026-05-03T08:36:28.999Z</time></trkpt><trkpt lat="43.76428740388467" lon="10.94956851121562"><ele>65.5</ele><time>2026-05-03T08:36:30.999Z</time></trkpt><trkpt lat="43.76435563238512" lon="10.949597815588813"><ele>64.33333333333334</ele><time>2026-05-03T08:36:33.999Z</time></trkpt><trkpt lat="43.76443051766695" lon="10.949639136877064"><ele>63.16666666666667</ele><time>2026-05-03T08:36:36.999Z</time></trkpt><trkpt lat="43.76449740402444" lon="10.94969086781083"><ele>62.0</ele><time>2026-05-03T08:36:39.999Z</time></trkpt><trkpt lat="43.76456218753987" lon="10.949757251777667"><ele>62.0</ele><time>2026-05-03T08:36:42.999Z</time></trkpt><trkpt lat="43.764633524125685" lon="10.949822172950098"><ele>62.00000000000001</ele><time>2026-05-03T08:36:45.999Z</time></trkpt><trkpt lat="43.7647013028032" lon="10.949884023561337"><ele>62.0</ele><time>2026-05-03T08:36:48.999Z</time></trkpt><trkpt lat="43.76475946014698" lon="10.949950310957723"><ele>62.0</ele><time>2026-05-03T08:36:51.999Z</time></trkpt><trkpt lat="43.76481371119523" lon="10.950005907842685"><ele>62.00000000000001</ele><time>2026-05-03T08:36:54.999Z</time></trkpt><trkpt lat="43.764880334870384" lon="10.950041673771993"><ele>62.0</ele><time>2026-05-03T08:36:57.999Z</time></trkpt><trkpt lat="43.76493978901967" lon="10.950086454266458"><ele>62.0</ele><time>2026-05-03T08:37:00.999Z</time></trkpt><trkpt lat="43.76499888754428" lon="10.950143603478871"><ele>61.833333333333336</ele><time>2026-05-03T08:37:03.999Z</time></trkpt><trkpt lat="43.76506348974984" lon="10.95019061202344"><ele>61.66666666666667</ele><time>2026-05-03T08:37:06.999Z</time></trkpt><trkpt lat="43.765132241623334" lon="10.950251815968555"><ele>61.5</ele><time>2026-05-03T08:37:09.999Z</time></trkpt><trkpt lat="43.76519013574185" lon="10.950346065345364"><ele>61.33333333333333</ele><time>2026-05-03T08:37:12.999Z</time></trkpt><trkpt lat="43.765273163713196" lon="10.950403471001472"><ele>61.166666666666664</ele><time>2026-05-03T08:37:15.999Z</time></trkpt><trkpt lat="43.765344864711906" lon="10.950460282500211"><ele>61.0</ele><time>2026-05-03T08:37:18.999Z</time></trkpt><trkpt lat="43.76541239986071" lon="10.950532114690363"><ele>60.99999999999999</ele><time>2026-05-03T08:37:21.999Z</time></trkpt><trkpt lat="43.7654801878817" lon="10.950587315247622"><ele>61.0</ele><time>2026-05-03T08:37:24.999Z</time></trkpt><trkpt lat="43.76555319301987" lon="10.950602544149934"><ele>61.0</ele><time>2026-05-03T08:37:27.999Z</time></trkpt><trkpt lat="43.76562032486461" lon="10.950666405051539"><ele>61.0</ele><time>2026-05-03T08:37:30.999Z</time></trkpt><trkpt lat="43.76568770751062" lon="10.950707412827954"><ele>60.99999999999999</ele><time>2026-05-03T08:37:33.999Z</time></trkpt><trkpt lat="43.76575129349394" lon="10.950762401838231"><ele>61.0</ele><time>2026-05-03T08:37:36.999Z</time></trkpt><trkpt lat="43.765823044941236" lon="10.950819592581363"><ele>61.166666666666664</ele><time>2026-05-03T08:37:39.999Z</time></trkpt><trkpt lat="43.76589149649954" lon="10.950877977291624"><ele>61.33333333333333</ele><time>2026-05-03T08:37:42.999Z</time></trkpt><trkpt lat="43.765962370383" lon="10.950922304070582"><ele>61.5</ele><time>2026-05-03T08:37:45.999Z</time></trkpt><trkpt lat="43.76603244228323" lon="10.950959053407448"><ele>61.66666666666667</ele><time>2026-05-03T08:37:48.999Z</time></trkpt><trkpt lat="43.766101163902285" lon="10.951023221980794"><ele>61.833333333333336</ele><time>2026-05-03T08:37:51.999Z</time></trkpt><trkpt lat="43.76616839099616" lon="10.951080969143314"><ele>62.0</ele><time>2026-05-03T08:37:54.999Z</time></trkpt><trkpt lat="43.766224902136166" lon="10.951144007174003"><ele>62.0</ele><time>2026-05-03T08:37:57.998Z</time></trkpt><trkpt lat="43.76628388721023" lon="10.951197228729336"><ele>62.00000000000001</ele><time>2026-05-03T08:38:00.999Z</time></trkpt><trkpt lat="43.76634535606287" lon="10.951237140677392"><ele>62.0</ele><time>2026-05-03T08:38:03.999Z</time></trkpt><trkpt lat="43.766401815439295" lon="10.951299966630263"><ele>62.0</ele><time>2026-05-03T08:38:06.999Z</time></trkpt><trkpt lat="43.76646526888703" lon="10.951346372364197"><ele>62.00000000000001</ele><time>2026-05-03T08:38:09.999Z</time></trkpt><trkpt lat="43.766521355036915" lon="10.951413915488274"><ele>62.0</ele><time>2026-05-03T08:38:12.999Z</time></trkpt><trkpt lat="43.76659794652693" lon="10.951468181119543"><ele>62.0</ele><time>2026-05-03T08:38:16.999Z</time></trkpt><trkpt lat="43.76664965745734" lon="10.951521906616565"><ele>62.0</ele><time>2026-05-03T08:38:19.999Z</time></trkpt><trkpt lat="43.76669621188333" lon="10.95160436320515"><ele>62.00000000000001</ele><time>2026-05-03T08:38:22.999Z</time></trkpt><trkpt lat="43.766754932198175" lon="10.95165101843181"><ele>62.0</ele><time>2026-05-03T08:38:25.999Z</time></trkpt><trkpt lat="43.766826918184876" lon="10.951699937348703"><ele>62.0</ele><time>2026-05-03T08:38:29.999Z</time></trkpt><trkpt lat="43.76688678021497" lon="10.951743191968689"><ele>62.00000000000001</ele><time>2026-05-03T08:38:32.999Z</time></trkpt><trkpt lat="43.76694733638649" lon="10.951790354383604"><ele>62.0</ele><time>2026-05-03T08:38:35.999Z</time></trkpt><trkpt lat="43.7670061726415" lon="10.951835988153775"><ele>62.0</ele><time>2026-05-03T08:38:38.999Z</time></trkpt><trkpt lat="43.76707188313051" lon="10.951885642152332"><ele>62.28571428571429</ele><time>2026-05-03T08:38:41.999Z</time></trkpt><trkpt lat="43.76712247883624" lon="10.951952845594425"><ele>62.57142857142858</ele><time>2026-05-03T08:38:44.999Z</time></trkpt><trkpt lat="43.767197961988934" lon="10.95199860100341"><ele>62.85714285714286</ele><time>2026-05-03T08:38:48.999Z</time></trkpt><trkpt lat="43.76727307266245" lon="10.952052588562468"><ele>63.14285714285714</ele><time>2026-05-03T08:38:52.999Z</time></trkpt><trkpt lat="43.76731758575353" lon="10.952127564656852"><ele>63.42857142857142</ele><time>2026-05-03T08:38:55.999Z</time></trkpt><trkpt lat="43.76733375362388" lon="10.952216055524753"><ele>63.71428571428571</ele><time>2026-05-03T08:38:58.999Z</time></trkpt><trkpt lat="43.76733459989924" lon="10.952319694398462"><ele>64.0</ele><time>2026-05-03T08:39:01.999Z</time></trkpt><trkpt lat="43.767323176138774" lon="10.952409971762757"><ele>64.0</ele><time>2026-05-03T08:39:04.999Z</time></trkpt><trkpt lat="43.767297273678324" lon="10.952496369654742"><ele>63.99999999999999</ele><time>2026-05-03T08:39:07.999Z</time></trkpt><trkpt lat="43.76728194534349" lon="10.952587530759455"><ele>64.0</ele><time>2026-05-03T08:39:10.999Z</time></trkpt><trkpt lat="43.767260363307635" lon="10.95268271677765"><ele>64.0</ele><time>2026-05-03T08:39:13.999Z</time></trkpt><trkpt lat="43.76721900426159" lon="10.952769103314095"><ele>63.99999999999999</ele><time>2026-05-03T08:39:16.999Z</time></trkpt><trkpt lat="43.76718174901949" lon="10.952852850714384"><ele>64.0</ele><time>2026-05-03T08:39:19.999Z</time></trkpt><trkpt lat="43.76714292966272" lon="10.952949352489519"><ele>64.0</ele><time>2026-05-03T08:39:22.999Z</time></trkpt><trkpt lat="43.767123535523865" lon="10.953048481348981"><ele>64.14285714285714</ele><time>2026-05-03T08:39:25.999Z</time></trkpt><trkpt lat="43.76709311658487" lon="10.95312872865937"><ele>64.28571428571428</ele><time>2026-05-03T08:39:28.999Z</time></trkpt><trkpt lat="43.76706774469331" lon="10.953214954940501"><ele>64.42857142857143</ele><time>2026-05-03T08:39:31.999Z</time></trkpt><trkpt lat="43.76702829000884" lon="10.953283845495678"><ele>64.57142857142857</ele><time>2026-05-03T08:39:34.999Z</time></trkpt><trkpt lat="43.766975660687656" lon="10.953331783114772"><ele>64.71428571428572</ele><time>2026-05-03T08:39:37.999Z</time></trkpt><trkpt lat="43.76690520138686" lon="10.953391798258009"><ele>64.85714285714286</ele><time>2026-05-03T08:39:41.999Z</time></trkpt><trkpt lat="43.76684298644955" lon="10.953419579370355"><ele>65.0</ele><time>2026-05-03T08:39:44.999Z</time></trkpt><trkpt lat="43.76677673960203" lon="10.953438904732272"><ele>66.42857142857143</ele><time>2026-05-03T08:39:47.999Z</time></trkpt><trkpt lat="43.766715292165856" lon="10.953463176055148"><ele>67.85714285714286</ele><time>2026-05-03T08:39:50.999Z</time></trkpt><trkpt lat="43.76663487865322" lon="10.953481070498471"><ele>69.28571428571428</ele><time>2026-05-03T08:39:54.999Z</time></trkpt><trkpt lat="43.76656583910953" lon="10.953477077000413"><ele>70.71428571428572</ele><time>2026-05-03T08:39:57.999Z</time></trkpt><trkpt lat="43.766498052389885" lon="10.953497496385324"><ele>72.14285714285714</ele><time>2026-05-03T08:40:01.999Z</time></trkpt><trkpt lat="43.76642282985374" lon="10.953463627717278"><ele>73.57142857142857</ele><time>2026-05-03T08:40:05.999Z</time></trkpt><trkpt lat="43.76636091337219" lon="10.953446692493033"><ele>75.0</ele><time>2026-05-03T08:40:08.999Z</time></trkpt><trkpt lat="43.766298598550634" lon="10.95342403138718"><ele>74.99999999999999</ele><time>2026-05-03T08:40:12.999Z</time></trkpt><trkpt lat="43.76623191015833" lon="10.953417204587367"><ele>75.0</ele><time>2026-05-03T08:40:16.999Z</time></trkpt><trkpt lat="43.76616081905333" lon="10.953411193425039"><ele>75.0</ele><time>2026-05-03T08:40:20.999Z</time></trkpt><trkpt lat="43.76608694148791" lon="10.95341777091846"><ele>75.0</ele><time>2026-05-03T08:40:25.999Z</time></trkpt><trkpt lat="43.766010124315144" lon="10.95344505776775"><ele>75.0</ele><time>2026-05-03T08:40:31.999Z</time></trkpt><trkpt lat="43.76594108386063" lon="10.953470776103492"><ele>74.99999999999999</ele><time>2026-05-03T08:40:35.999Z</time></trkpt><trkpt lat="43.765869006785394" lon="10.953477402512616"><ele>75.0</ele><time>2026-05-03T08:40:39.999Z</time></trkpt><trkpt lat="43.7657903675245" lon="10.953495675593276"><ele>75.83333333333333</ele><time>2026-05-03T08:40:43.999Z</time></trkpt><trkpt lat="43.765714226715495" lon="10.953501573339445"><ele>76.66666666666667</ele><time>2026-05-03T08:40:47.999Z</time></trkpt><trkpt lat="43.765636065661134" lon="10.953532441162077"><ele>77.5</ele><time>2026-05-03T08:40:51.999Z</time></trkpt><trkpt lat="43.765561309667135" lon="10.953550206284158"><ele>78.33333333333334</ele><time>2026-05-03T08:40:55.999Z</time></trkpt><trkpt lat="43.765482043184846" lon="10.953532566967457"><ele>79.16666666666667</ele><time>2026-05-03T08:40:59.999Z</time></trkpt><trkpt lat="43.76541864661784" lon="10.95351797193536"><ele>80.0</ele><time>2026-05-03T08:41:02.999Z</time></trkpt><trkpt lat="43.765339870916186" lon="10.953507886547577"><ele>80.0</ele><time>2026-05-03T08:41:06.999Z</time></trkpt><trkpt lat="43.765275699225626" lon="10.953496866636065"><ele>80.0</ele><time>2026-05-03T08:41:09.999Z</time></trkpt><trkpt lat="43.76519708655635" lon="10.953480426513844"><ele>80.0</ele><time>2026-05-03T08:41:13.999Z</time></trkpt><trkpt lat="43.76512739780787" lon="10.953470852291648"><ele>80.0</ele><time>2026-05-03T08:41:16.999Z</time></trkpt><trkpt lat="43.76506125107019" lon="10.95347288770576"><ele>80.0</ele><time>2026-05-03T08:41:19.999Z</time></trkpt><trkpt lat="43.76499681550885" lon="10.953466894691285"><ele>80.0</ele><time>2026-05-03T08:41:22.999Z</time></trkpt><trkpt lat="43.764928874352044" lon="10.953463995171576"><ele>80.0</ele><time>2026-05-03T08:41:25.999Z</time></trkpt><trkpt lat="43.76485448446959" lon="10.953437647983442"><ele>80.14285714285714</ele><time>2026-05-03T08:41:28.999Z</time></trkpt><trkpt lat="43.76477992579172" lon="10.953437059114037"><ele>80.28571428571429</ele><time>2026-05-03T08:41:31.999Z</time></trkpt><trkpt lat="43.76470415363795" lon="10.953435696698907"><ele>80.42857142857143</ele><time>2026-05-03T08:41:34.999Z</time></trkpt><trkpt lat="43.76463201997169" lon="10.953434386766345"><ele>80.57142857142857</ele><time>2026-05-03T08:41:37.999Z</time></trkpt><trkpt lat="43.76456322297861" lon="10.953440909948643"><ele>80.71428571428571</ele><time>2026-05-03T08:41:40.999Z</time></trkpt><trkpt lat="43.764495745293985" lon="10.95345732804627"><ele>80.85714285714286</ele><time>2026-05-03T08:41:43.999Z</time></trkpt><trkpt lat="43.76442733906974" lon="10.95342840410718"><ele>81.0</ele><time>2026-05-03T08:41:46.999Z</time></trkpt><trkpt lat="43.764358642113635" lon="10.95340477848208"><ele>80.42857142857143</ele><time>2026-05-03T08:41:49.999Z</time></trkpt><trkpt lat="43.76428880889151" lon="10.953356759962785"><ele>79.85714285714286</ele><time>2026-05-03T08:41:52.999Z</time></trkpt><trkpt lat="43.764212324642834" lon="10.953344929797463"><ele>79.28571428571428</ele><time>2026-05-03T08:41:55.999Z</time></trkpt><trkpt lat="43.76414641875376" lon="10.953372709310052"><ele>78.71428571428572</ele><time>2026-05-03T08:41:58.999Z</time></trkpt><trkpt lat="43.76409052654429" lon="10.953422179929166"><ele>78.14285714285714</ele><time>2026-05-03T08:42:01.999Z</time></trkpt><trkpt lat="43.7640380029035" lon="10.953490337348448"><ele>77.57142857142857</ele><time>2026-05-03T08:42:05.998Z</time></trkpt><trkpt lat="43.76398119658602" lon="10.953561510366729"><ele>77.0</ele><time>2026-05-03T08:42:09.998Z</time></trkpt><trkpt lat="43.76390733323832" lon="10.953603763101105"><ele>77.0</ele><time>2026-05-03T08:42:13.999Z</time></trkpt><trkpt lat="43.76385537245812" lon="10.95367931665473"><ele>77.0</ele><time>2026-05-03T08:42:17.999Z</time></trkpt><trkpt lat="43.76378920571544" lon="10.95373097720089"><ele>77.0</ele><time>2026-05-03T08:42:21.999Z</time></trkpt><trkpt lat="43.76373227385174" lon="10.9537987076562"><ele>77.0</ele><time>2026-05-03T08:42:26Z</time></trkpt><trkpt lat="43.7636728170525" lon="10.953863743474734"><ele>77.0</ele><time>2026-05-03T08:42:30Z</time></trkpt><trkpt lat="43.76361792508872" lon="10.953937464081891"><ele>77.0</ele><time>2026-05-03T08:42:33.999Z</time></trkpt><trkpt lat="43.763573309725096" lon="10.954013974873572"><ele>77.85714285714286</ele><time>2026-05-03T08:42:37.999Z</time></trkpt><trkpt lat="43.76352678519458" lon="10.95408590749006"><ele>78.71428571428572</ele><time>2026-05-03T08:42:42.999Z</time></trkpt><trkpt lat="43.76349833956372" lon="10.954174131361137"><ele>79.57142857142857</ele><time>2026-05-03T08:42:46.999Z</time></trkpt><trkpt lat="43.763448386109275" lon="10.954242483925933"><ele>80.42857142857143</ele><time>2026-05-03T08:42:50.999Z</time></trkpt><trkpt lat="43.76342059681172" lon="10.954325622999663"><ele>81.28571428571429</ele><time>2026-05-03T08:42:54.999Z</time></trkpt><trkpt lat="43.76338268169611" lon="10.954406984858878"><ele>82.14285714285714</ele><time>2026-05-03T08:42:59.999Z</time></trkpt><trkpt lat="43.76331889984996" lon="10.954476380242358"><ele>83.0</ele><time>2026-05-03T08:43:03.999Z</time></trkpt><trkpt lat="43.76328565606411" lon="10.954567927496482"><ele>83.0</ele><time>2026-05-03T08:43:07.999Z</time></trkpt><trkpt lat="43.76324534393068" lon="10.954648047433684"><ele>83.0</ele><time>2026-05-03T08:43:11.999Z</time></trkpt><trkpt lat="43.76320717357483" lon="10.954727880166098"><ele>83.0</ele><time>2026-05-03T08:43:15.999Z</time></trkpt><trkpt lat="43.763169185939056" lon="10.954813161748167"><ele>83.0</ele><time>2026-05-03T08:43:20.999Z</time></trkpt><trkpt lat="43.76311196373466" lon="10.954900100567965"><ele>83.0</ele><time>2026-05-03T08:43:26.999Z</time></trkpt><trkpt lat="43.763075654072075" lon="10.954981115856887"><ele>83.0</ele><time>2026-05-03T08:43:31.999Z</time></trkpt><trkpt lat="43.76304521885178" lon="10.9550772368203"><ele>83.0</ele><time>2026-05-03T08:43:36.999Z</time></trkpt><trkpt lat="43.76301472946214" lon="10.955175722460805"><ele>84.57142857142857</ele><time>2026-05-03T08:43:40.999Z</time></trkpt><trkpt lat="43.762997904519366" lon="10.9552796801754"><ele>86.14285714285715</ele><time>2026-05-03T08:43:44.999Z</time></trkpt><trkpt lat="43.76299688600432" lon="10.955396614175092"><ele>87.71428571428572</ele><time>2026-05-03T08:43:48.999Z</time></trkpt><trkpt lat="43.76296836344845" lon="10.955487943852225"><ele>89.28571428571428</ele><time>2026-05-03T08:43:52.999Z</time></trkpt><trkpt lat="43.762936674663806" lon="10.955576864844343"><ele>90.85714285714286</ele><time>2026-05-03T08:43:56.999Z</time></trkpt><trkpt lat="43.762912803288714" lon="10.955661109029016"><ele>92.42857142857143</ele><time>2026-05-03T08:44:00.999Z</time></trkpt><trkpt lat="43.76288784039387" lon="10.955757655683662"><ele>94.0</ele><time>2026-05-03T08:44:05.999Z</time></trkpt><trkpt lat="43.762861830286234" lon="10.955857804043417"><ele>93.42857142857143</ele><time>2026-05-03T08:44:10.999Z</time></trkpt><trkpt lat="43.762836178084406" lon="10.955940887764587"><ele>92.85714285714286</ele><time>2026-05-03T08:44:14.999Z</time></trkpt><trkpt lat="43.762803158696606" lon="10.956030750157302"><ele>92.28571428571428</ele><time>2026-05-03T08:44:20Z</time></trkpt><trkpt lat="43.762772369575714" lon="10.956117619512508"><ele>91.71428571428572</ele><time>2026-05-03T08:44:24Z</time></trkpt><trkpt lat="43.762766650948" lon="10.956209084479745"><ele>91.14285714285715</ele><time>2026-05-03T08:44:31Z</time></trkpt><trkpt lat="43.7628340150507" lon="10.956214990156901"><ele>90.57142857142857</ele><time>2026-05-03T08:44:35Z</time></trkpt><trkpt lat="43.762914841405625" lon="10.95621490441773"><ele>90.0</ele><time>2026-05-03T08:44:38.999Z</time></trkpt><trkpt lat="43.76297990318941" lon="10.956213749147485"><ele>90.0</ele><time>2026-05-03T08:44:42.999Z</time></trkpt><trkpt lat="43.76304896397446" lon="10.95619078316589"><ele>90.0</ele><time>2026-05-03T08:44:46.999Z</time></trkpt><trkpt lat="43.76312592765712" lon="10.956209065674372"><ele>90.0</ele><time>2026-05-03T08:44:50.999Z</time></trkpt><trkpt lat="43.76319732077718" lon="10.956183183712634"><ele>90.0</ele><time>2026-05-03T08:44:54.999Z</time></trkpt><trkpt lat="43.763278088128835" lon="10.956220293850441"><ele>90.0</ele><time>2026-05-03T08:44:58.999Z</time></trkpt><trkpt lat="43.763347857566444" lon="10.956249168698479"><ele>90.0</ele><time>2026-05-03T08:45:02.999Z</time></trkpt><trkpt lat="43.76340946419774" lon="10.956275075016757"><ele>90.0</ele><time>2026-05-03T08:45:06.999Z</time></trkpt><trkpt lat="43.763482038520394" lon="10.956280831254725"><ele>91.0</ele><time>2026-05-03T08:45:10.999Z</time></trkpt><trkpt lat="43.76355383575299" lon="10.956301488287423"><ele>92.0</ele><time>2026-05-03T08:45:14.999Z</time></trkpt><trkpt lat="43.763620961737296" lon="10.956328756190887"><ele>93.0</ele><time>2026-05-03T08:45:18.999Z</time></trkpt><trkpt lat="43.76369276575074" lon="10.956354964900115"><ele>94.0</ele><time>2026-05-03T08:45:22.999Z</time></trkpt><trkpt lat="43.76377169723133" lon="10.956362821309606"><ele>95.0</ele><time>2026-05-03T08:45:27.999Z</time></trkpt><trkpt lat="43.763832510314614" lon="10.956396157593968"><ele>96.0</ele><time>2026-05-03T08:45:31.999Z</time></trkpt><trkpt lat="43.76390504515308" lon="10.956375837985822"><ele>97.0</ele><time>2026-05-03T08:45:36.999Z</time></trkpt><trkpt lat="43.763973553277324" lon="10.956393132655991"><ele>97.0</ele><time>2026-05-03T08:45:40.999Z</time></trkpt><trkpt lat="43.764047347606876" lon="10.95638093962717"><ele>97.0</ele><time>2026-05-03T08:45:46.999Z</time></trkpt><trkpt lat="43.764113116790234" lon="10.956386819321688"><ele>97.0</ele><time>2026-05-03T08:45:51.999Z</time></trkpt><trkpt lat="43.764180959741175" lon="10.956441096324163"><ele>97.0</ele><time>2026-05-03T08:45:56.999Z</time></trkpt><trkpt lat="43.764248173350104" lon="10.956438831807898"><ele>97.0</ele><time>2026-05-03T08:46:02.999Z</time></trkpt><trkpt lat="43.76431990654597" lon="10.956438087351268"><ele>97.0</ele><time>2026-05-03T08:46:06.999Z</time></trkpt><trkpt lat="43.76438872329442" lon="10.95642210680309"><ele>97.0</ele><time>2026-05-03T08:46:10.999Z</time></trkpt><trkpt lat="43.76445821258503" lon="10.95636530688309"><ele>97.66666666666667</ele><time>2026-05-03T08:46:14.999Z</time></trkpt><trkpt lat="43.76452591198226" lon="10.956302969044724"><ele>98.33333333333334</ele><time>2026-05-03T08:46:18.999Z</time></trkpt><trkpt lat="43.764594520689165" lon="10.95626044627863"><ele>99.0</ele><time>2026-05-03T08:46:23Z</time></trkpt><trkpt lat="43.764672065498004" lon="10.956260639751164"><ele>99.66666666666666</ele><time>2026-05-03T08:46:27Z</time></trkpt><trkpt lat="43.764763857273415" lon="10.956279568380586"><ele>100.33333333333333</ele><time>2026-05-03T08:46:32Z</time></trkpt><trkpt lat="43.764839791524544" lon="10.956309957830475"><ele>101.0</ele><time>2026-05-03T08:46:36Z</time></trkpt><trkpt lat="43.76490349059037" lon="10.956297562634948"><ele>101.0</ele><time>2026-05-03T08:46:39Z</time></trkpt><trkpt lat="43.76496579419966" lon="10.956315617928455"><ele>101.0</ele><time>2026-05-03T08:46:42Z</time></trkpt><trkpt lat="43.7650308365588" lon="10.95630946131877"><ele>101.0</ele><time>2026-05-03T08:46:45Z</time></trkpt><trkpt lat="43.76511221240083" lon="10.956318161536407"><ele>101.0</ele><time>2026-05-03T08:46:49Z</time></trkpt><trkpt lat="43.76519143754744" lon="10.95630141178083"><ele>101.0</ele><time>2026-05-03T08:46:53Z</time></trkpt><trkpt lat="43.76527014613827" lon="10.956315680134304"><ele>101.0</ele><time>2026-05-03T08:46:57Z</time></trkpt><trkpt lat="43.7653291680192" lon="10.956348753195648"><ele>101.0</ele><time>2026-05-03T08:47:00Z</time></trkpt><trkpt lat="43.76540632300755" lon="10.956376466358346"><ele>101.33333333333333</ele><time>2026-05-03T08:47:04Z</time></trkpt><trkpt lat="43.76548404488217" lon="10.956431213811694"><ele>101.66666666666666</ele><time>2026-05-03T08:47:07.999Z</time></trkpt><trkpt lat="43.7655617316513" lon="10.956473134497378"><ele>102.0</ele><time>2026-05-03T08:47:11.999Z</time></trkpt><trkpt lat="43.765631591618906" lon="10.956535492432517"><ele>102.33333333333334</ele><time>2026-05-03T08:47:15.999Z</time></trkpt><trkpt lat="43.76569683057072" lon="10.956609608486096"><ele>102.66666666666667</ele><time>2026-05-03T08:47:19.999Z</time></trkpt><trkpt lat="43.7657440288093" lon="10.956671947939085"><ele>103.0</ele><time>2026-05-03T08:47:22.999Z</time></trkpt><trkpt lat="43.76580590451309" lon="10.956742267897313"><ele>102.99999999999999</ele><time>2026-05-03T08:47:26.999Z</time></trkpt><trkpt lat="43.765859598359924" lon="10.956790039900355"><ele>103.0</ele><time>2026-05-03T08:47:29.999Z</time></trkpt><trkpt lat="43.765922510701905" lon="10.956831824369957"><ele>103.0</ele><time>2026-05-03T08:47:32.999Z</time></trkpt><trkpt lat="43.76598685064391" lon="10.956844156020596"><ele>103.0</ele><time>2026-05-03T08:47:35.999Z</time></trkpt><trkpt lat="43.76606481321473" lon="10.956829868046526"><ele>103.0</ele><time>2026-05-03T08:47:39.999Z</time></trkpt><trkpt lat="43.766141804884086" lon="10.956836487673566"><ele>102.99999999999999</ele><time>2026-05-03T08:47:43.999Z</time></trkpt><trkpt lat="43.76621227271286" lon="10.956879989826476"><ele>103.0</ele><time>2026-05-03T08:47:47.999Z</time></trkpt><trkpt lat="43.76627052851961" lon="10.95694649793872"><ele>103.71428571428571</ele><time>2026-05-03T08:47:51.999Z</time></trkpt><trkpt lat="43.76633105244146" lon="10.957008674742465"><ele>104.42857142857143</ele><time>2026-05-03T08:47:55.999Z</time></trkpt><trkpt lat="43.766398968024916" lon="10.957038293124679"><ele>105.14285714285714</ele><time>2026-05-03T08:47:59.999Z</time></trkpt><trkpt lat="43.76646002688439" lon="10.957069383109106"><ele>105.85714285714286</ele><time>2026-05-03T08:48:03.999Z</time></trkpt><trkpt lat="43.76652498496992" lon="10.957085685489194"><ele>106.57142857142857</ele><time>2026-05-03T08:48:07.999Z</time></trkpt><trkpt lat="43.76658785775721" lon="10.95706468713995"><ele>107.28571428571428</ele><time>2026-05-03T08:48:11.999Z</time></trkpt><trkpt lat="43.7666518732615" lon="10.957070530654967"><ele>108.0</ele><time>2026-05-03T08:48:15.999Z</time></trkpt><trkpt lat="43.76671758145182" lon="10.957072318219064"><ele>108.0</ele><time>2026-05-03T08:48:19.999Z</time></trkpt><trkpt lat="43.76678357208957" lon="10.957083335035858"><ele>108.0</ele><time>2026-05-03T08:48:23.999Z</time></trkpt><trkpt lat="43.76685575121574" lon="10.957083695539596"><ele>108.0</ele><time>2026-05-03T08:48:29Z</time></trkpt><trkpt lat="43.7669186139416" lon="10.957074698180676"><ele>108.0</ele><time>2026-05-03T08:48:33Z</time></trkpt><trkpt lat="43.76698831686349" lon="10.957062997308704"><ele>108.0</ele><time>2026-05-03T08:48:38Z</time></trkpt><trkpt lat="43.76706075496529" lon="10.957078539266524"><ele>108.0</ele><time>2026-05-03T08:48:44Z</time></trkpt><trkpt lat="43.76712414734604" lon="10.957062033270464"><ele>108.0</ele><time>2026-05-03T08:48:48Z</time></trkpt><trkpt lat="43.76719054088797" lon="10.95705850780575"><ele>108.57142857142857</ele><time>2026-05-03T08:48:52Z</time></trkpt><trkpt lat="43.767262064356295" lon="10.957033711134974"><ele>109.14285714285714</ele><time>2026-05-03T08:48:56.999Z</time></trkpt><trkpt lat="43.76733315091425" lon="10.957046085585565"><ele>109.71428571428572</ele><time>2026-05-03T08:49:00.999Z</time></trkpt><trkpt lat="43.767399225066626" lon="10.957065148104874"><ele>110.28571428571428</ele><time>2026-05-03T08:49:05.999Z</time></trkpt><trkpt lat="43.767471928305035" lon="10.95705643246929"><ele>110.85714285714286</ele><time>2026-05-03T08:49:09.999Z</time></trkpt><trkpt lat="43.767537612464665" lon="10.957073294699631"><ele>111.42857142857143</ele><time>2026-05-03T08:49:13.999Z</time></trkpt><trkpt lat="43.767601142692236" lon="10.957082127417332"><ele>112.0</ele><time>2026-05-03T08:49:17.999Z</time></trkpt><trkpt lat="43.76768087434944" lon="10.957095695669688"><ele>112.28571428571428</ele><time>2026-05-03T08:49:21.999Z</time></trkpt><trkpt lat="43.76774260797867" lon="10.957114844327652"><ele>112.57142857142857</ele><time>2026-05-03T08:49:24.999Z</time></trkpt><trkpt lat="43.767805858846586" lon="10.957119466716309"><ele>112.85714285714286</ele><time>2026-05-03T08:49:27.999Z</time></trkpt><trkpt lat="43.767885589406454" lon="10.957141309095878"><ele>113.14285714285714</ele><time>2026-05-03T08:49:31.999Z</time></trkpt><trkpt lat="43.76794829814687" lon="10.957149898130217"><ele>113.42857142857142</ele><time>2026-05-03T08:49:34.999Z</time></trkpt><trkpt lat="43.768030644150244" lon="10.957166206735678"><ele>113.71428571428571</ele><time>2026-05-03T08:49:38.999Z</time></trkpt><trkpt lat="43.76809947712129" lon="10.957198712041874"><ele>114.0</ele><time>2026-05-03T08:49:41.999Z</time></trkpt><trkpt lat="43.76818304903756" lon="10.957232388503671"><ele>114.0</ele><time>2026-05-03T08:49:45.999Z</time></trkpt><trkpt lat="43.768271771047026" lon="10.957243419698196"><ele>114.0</ele><time>2026-05-03T08:49:49.999Z</time></trkpt><trkpt lat="43.76833708220949" lon="10.95722097375318"><ele>114.0</ele><time>2026-05-03T08:49:52.999Z</time></trkpt><trkpt lat="43.76840229709654" lon="10.95721809000636"><ele>114.0</ele><time>2026-05-03T08:49:55.999Z</time></trkpt><trkpt lat="43.76848156657548" lon="10.957232661396903"><ele>114.0</ele><time>2026-05-03T08:49:59.999Z</time></trkpt><trkpt lat="43.76855835705426" lon="10.957213753353889"><ele>114.0</ele><time>2026-05-03T08:50:03.999Z</time></trkpt><trkpt lat="43.76863888101361" lon="10.957186357140852"><ele>115.14285714285714</ele><time>2026-05-03T08:50:07.999Z</time></trkpt><trkpt lat="43.76869116597438" lon="10.957136180156072"><ele>116.28571428571428</ele><time>2026-05-03T08:50:10.999Z</time></trkpt><trkpt lat="43.76875032236463" lon="10.95708693589103"><ele>117.42857142857142</ele><time>2026-05-03T08:50:13.999Z</time></trkpt><trkpt lat="43.76881089962805" lon="10.9570620801013"><ele>118.57142857142856</ele><time>2026-05-03T08:50:16.999Z</time></trkpt><trkpt lat="43.76888675039092" lon="10.957033402129515"><ele>119.71428571428571</ele><time>2026-05-03T08:50:20.999Z</time></trkpt><trkpt lat="43.76896342220273" lon="10.9570234026756"><ele>120.85714285714283</ele><time>2026-05-03T08:50:24.999Z</time></trkpt><trkpt lat="43.76903873749251" lon="10.957038238140692"><ele>121.99999999999999</ele><time>2026-05-03T08:50:28.999Z</time></trkpt><trkpt lat="43.76910453598742" lon="10.957038183260893"><ele>121.99999999999999</ele><time>2026-05-03T08:50:32.999Z</time></trkpt><trkpt lat="43.769171700360936" lon="10.957067474300787"><ele>122.0</ele><time>2026-05-03T08:50:36.999Z</time></trkpt><trkpt lat="43.76924062689708" lon="10.957123317830437"><ele>121.99999999999999</ele><time>2026-05-03T08:50:42Z</time></trkpt><trkpt lat="43.769306597311775" lon="10.957167270233315"><ele>121.99999999999999</ele><time>2026-05-03T08:50:47Z</time></trkpt><trkpt lat="43.76936236619461" lon="10.957211412492269"><ele>122.0</ele><time>2026-05-03T08:50:51Z</time></trkpt><trkpt lat="43.76941982403279" lon="10.957269746814005"><ele>121.99999999999999</ele><time>2026-05-03T08:50:56Z</time></trkpt><trkpt lat="43.76947842240466" lon="10.957316206883208"><ele>121.99999999999999</ele><time>2026-05-03T08:51:03.999Z</time></trkpt><trkpt lat="43.76954524388249" lon="10.957319073628911"><ele>123.7142857142857</ele><time>2026-05-03T08:51:11.999Z</time></trkpt><trkpt lat="43.76961444581463" lon="10.957303871623505"><ele>125.42857142857142</ele><time>2026-05-03T08:51:18.999Z</time></trkpt><trkpt lat="43.76968704476006" lon="10.957297144752687"><ele>127.14285714285714</ele><time>2026-05-03T08:51:24.999Z</time></trkpt><trkpt lat="43.76975341286874" lon="10.95729932011257"><ele>128.85714285714283</ele><time>2026-05-03T08:51:29.999Z</time></trkpt><trkpt lat="43.76982132797091" lon="10.957310241349012"><ele>130.57142857142856</ele><time>2026-05-03T08:51:33.999Z</time></trkpt><trkpt lat="43.7698921987741" lon="10.957338571360923"><ele>132.28571428571428</ele><time>2026-05-03T08:51:38.999Z</time></trkpt><trkpt lat="43.76996183030118" lon="10.957355184052826"><ele>134.0</ele><time>2026-05-03T08:51:43.999Z</time></trkpt><trkpt lat="43.77003905323433" lon="10.957371331268801"><ele>134.0</ele><time>2026-05-03T08:51:50.999Z</time></trkpt><trkpt lat="43.770104126429906" lon="10.957350942300367"><ele>134.0</ele><time>2026-05-03T08:51:55.999Z</time></trkpt><trkpt lat="43.770170626950936" lon="10.957339173475741"><ele>134.0</ele><time>2026-05-03T08:52:00.999Z</time></trkpt><trkpt lat="43.77024424423796" lon="10.95730366324698"><ele>134.0</ele><time>2026-05-03T08:52:07.999Z</time></trkpt><trkpt lat="43.770319405551085" lon="10.957303959814015"><ele>134.0</ele><time>2026-05-03T08:52:15.999Z</time></trkpt><trkpt lat="43.77038962092999" lon="10.957299983085019"><ele>134.0</ele><time>2026-05-03T08:52:20.999Z</time></trkpt><trkpt lat="43.77045608781403" lon="10.95732263640664"><ele>134.0</ele><time>2026-05-03T08:52:26.999Z</time></trkpt><trkpt lat="43.77052072159762" lon="10.957352534249557"><ele>135.14285714285714</ele><time>2026-05-03T08:52:31.999Z</time></trkpt><trkpt lat="43.77058003404163" lon="10.957405477096826"><ele>136.28571428571428</ele><time>2026-05-03T08:52:37.999Z</time></trkpt><trkpt lat="43.770642498267264" lon="10.95742614114962"><ele>137.42857142857142</ele><time>2026-05-03T08:52:44Z</time></trkpt><trkpt lat="43.7707081988736" lon="10.957441187330598"><ele>138.57142857142856</ele><time>2026-05-03T08:52:49.999Z</time></trkpt><trkpt lat="43.770779100395266" lon="10.957449335814376"><ele>139.7142857142857</ele><time>2026-05-03T08:52:56Z</time></trkpt><trkpt lat="43.770846298941294" lon="10.95745423036635"><ele>140.85714285714286</ele><time>2026-05-03T08:53:01.999Z</time></trkpt><trkpt lat="43.7709176438298" lon="10.957452665777524"><ele>142.0</ele><time>2026-05-03T08:53:07.999Z</time></trkpt><trkpt lat="43.77097794687024" lon="10.957484446405097"><ele>143.28571428571428</ele><time>2026-05-03T08:53:12.999Z</time></trkpt><trkpt lat="43.77101969069797" lon="10.957572239318464"><ele>144.57142857142856</ele><time>2026-05-03T08:53:19.999Z</time></trkpt><trkpt lat="43.77105666470901" lon="10.95764781432434"><ele>145.85714285714286</ele><time>2026-05-03T08:53:25.999Z</time></trkpt><trkpt lat="43.771110576145205" lon="10.957720670801232"><ele>147.14285714285714</ele><time>2026-05-03T08:53:31.999Z</time></trkpt><trkpt lat="43.77116305994474" lon="10.957776664974649"><ele>148.42857142857144</ele><time>2026-05-03T08:53:36.999Z</time></trkpt><trkpt lat="43.77121443863536" lon="10.957855410708971"><ele>149.71428571428572</ele><time>2026-05-03T08:53:42.999Z</time></trkpt><trkpt lat="43.771271054982726" lon="10.95791399932128"><ele>151.0</ele><time>2026-05-03T08:53:48.999Z</time></trkpt><trkpt lat="43.77130560504576" lon="10.95799496375492"><ele>152.42857142857144</ele><time>2026-05-03T08:53:54.999Z</time></trkpt><trkpt lat="43.77129532359009" lon="10.958092182730072"><ele>153.85714285714286</ele><time>2026-05-03T08:54:00.999Z</time></trkpt><trkpt lat="43.77129506775866" lon="10.958185312046218"><ele>155.28571428571428</ele><time>2026-05-03T08:54:07.999Z</time></trkpt><trkpt lat="43.771326468447384" lon="10.958275109083743"><ele>156.71428571428572</ele><time>2026-05-03T08:54:14.999Z</time></trkpt><trkpt lat="43.7713890277209" lon="10.95834171933738"><ele>158.14285714285714</ele><time>2026-05-03T08:54:21.999Z</time></trkpt><trkpt lat="43.77143131687689" lon="10.958429040426969"><ele>159.57142857142858</ele><time>2026-05-03T08:54:27.999Z</time></trkpt><trkpt lat="43.771487867255345" lon="10.958506649271033"><ele>161.0</ele><time>2026-05-03T08:54:33.999Z</time></trkpt><trkpt lat="43.77153877193675" lon="10.958561445996082"><ele>161.71428571428572</ele><time>2026-05-03T08:54:38.999Z</time></trkpt><trkpt lat="43.77159104582455" lon="10.95862521990175"><ele>162.42857142857144</ele><time>2026-05-03T08:54:45Z</time></trkpt><trkpt lat="43.77164820856866" lon="10.958680413272575"><ele>163.14285714285714</ele><time>2026-05-03T08:54:52Z</time></trkpt><trkpt lat="43.771702780673294" lon="10.95874523536636"><ele>163.85714285714286</ele><time>2026-05-03T08:54:58Z</time></trkpt><trkpt lat="43.77175620098382" lon="10.95880912503876"><ele>164.57142857142858</ele><time>2026-05-03T08:55:03Z</time></trkpt><trkpt lat="43.77181583860421" lon="10.958859750102953"><ele>165.28571428571428</ele><time>2026-05-03T08:55:09.999Z</time></trkpt><trkpt lat="43.77185570070178" lon="10.958945086054166"><ele>166.0</ele><time>2026-05-03T08:55:15.999Z</time></trkpt><trkpt lat="43.77190593641274" lon="10.959007824740736"><ele>167.14285714285714</ele><time>2026-05-03T08:55:20.999Z</time></trkpt><trkpt lat="43.7719471438429" lon="10.95908634848595"><ele>168.2857142857143</ele><time>2026-05-03T08:55:25.999Z</time></trkpt><trkpt lat="43.771995160151526" lon="10.959147719089684"><ele>169.42857142857144</ele><time>2026-05-03T08:55:30.999Z</time></trkpt><trkpt lat="43.77205453223201" lon="10.959225542055853"><ele>170.57142857142856</ele><time>2026-05-03T08:55:36.999Z</time></trkpt><trkpt lat="43.77209842137892" lon="10.959315344244212"><ele>171.71428571428572</ele><time>2026-05-03T08:55:41.999Z</time></trkpt><trkpt lat="43.772148368681336" lon="10.959389135343201"><ele>172.85714285714286</ele><time>2026-05-03T08:55:46.999Z</time></trkpt><trkpt lat="43.77221576821805" lon="10.959444496810763"><ele>174.0</ele><time>2026-05-03T08:55:52.999Z</time></trkpt><trkpt lat="43.77227447944497" lon="10.959518458030244"><ele>174.14285714285714</ele><time>2026-05-03T08:55:58.999Z</time></trkpt><trkpt lat="43.77233289910484" lon="10.959567655501248"><ele>174.28571428571428</ele><time>2026-05-03T08:56:03.999Z</time></trkpt><trkpt lat="43.77239570153726" lon="10.959599486514568"><ele>174.42857142857144</ele><time>2026-05-03T08:56:08.999Z</time></trkpt><trkpt lat="43.77246098049403" lon="10.959621225580259"><ele>174.57142857142856</ele><time>2026-05-03T08:56:13.999Z</time></trkpt><trkpt lat="43.77252389159443" lon="10.959667943929"><ele>174.71428571428572</ele><time>2026-05-03T08:56:18.999Z</time></trkpt><trkpt lat="43.772596159211425" lon="10.959711621015623"><ele>174.85714285714286</ele><time>2026-05-03T08:56:23.999Z</time></trkpt><trkpt lat="43.772663615888" lon="10.959750475006675"><ele>175.0</ele><time>2026-05-03T08:56:29.999Z</time></trkpt><trkpt lat="43.77273642884083" lon="10.959769888230772"><ele>175.85714285714286</ele><time>2026-05-03T08:56:34.999Z</time></trkpt><trkpt lat="43.77280171331169" lon="10.959825639447395"><ele>176.71428571428572</ele><time>2026-05-03T08:56:39.999Z</time></trkpt><trkpt lat="43.77285813362604" lon="10.959879953605817"><ele>177.57142857142856</ele><time>2026-05-03T08:56:44.999Z</time></trkpt><trkpt lat="43.77292116512314" lon="10.959908286062669"><ele>178.42857142857144</ele><time>2026-05-03T08:56:48.999Z</time></trkpt><trkpt lat="43.77299402823487" lon="10.959932100063694"><ele>179.28571428571428</ele><time>2026-05-03T08:56:52.999Z</time></trkpt><trkpt lat="43.77306813050694" lon="10.959960736690967"><ele>180.14285714285714</ele><time>2026-05-03T08:56:56.999Z</time></trkpt><trkpt lat="43.773132648645486" lon="10.959997816217362"><ele>181.0</ele><time>2026-05-03T08:57:01Z</time></trkpt><trkpt lat="43.77320162799844" lon="10.960042055842502"><ele>181.0</ele><time>2026-05-03T08:57:04.999Z</time></trkpt><trkpt lat="43.77326647166641" lon="10.960085932344768"><ele>181.0</ele><time>2026-05-03T08:57:08.999Z</time></trkpt><trkpt lat="43.77333728958641" lon="10.96014165957184"><ele>181.0</ele><time>2026-05-03T08:57:12.999Z</time></trkpt><trkpt lat="43.77340520695135" lon="10.960168597228884"><ele>181.0</ele><time>2026-05-03T08:57:16.999Z</time></trkpt><trkpt lat="43.773476083479125" lon="10.960200782914152"><ele>181.0</ele><time>2026-05-03T08:57:20.999Z</time></trkpt><trkpt lat="43.77355022506324" lon="10.960222939980545"><ele>181.0</ele><time>2026-05-03T08:57:24.999Z</time></trkpt><trkpt lat="43.77361792396733" lon="10.96024782938832"><ele>181.0</ele><time>2026-05-03T08:57:28.999Z</time></trkpt><trkpt lat="43.77368008060238" lon="10.960289965789888"><ele>181.5</ele><time>2026-05-03T08:57:32.999Z</time></trkpt><trkpt lat="43.7737437173105" lon="10.960343169022503"><ele>182.0</ele><time>2026-05-03T08:57:36.999Z</time></trkpt><trkpt lat="43.77378773461868" lon="10.960420887863716"><ele>182.5</ele><time>2026-05-03T08:57:40.999Z</time></trkpt><trkpt lat="43.773870454385104" lon="10.9604396923006"><ele>183.0</ele><time>2026-05-03T08:57:44.999Z</time></trkpt><trkpt lat="43.773952246799766" lon="10.960451892716387"><ele>183.5</ele><time>2026-05-03T08:57:48.999Z</time></trkpt><trkpt lat="43.77402660085343" lon="10.960470582120443"><ele>184.0</ele><time>2026-05-03T08:57:52.999Z</time></trkpt><trkpt lat="43.77409713032768" lon="10.960476593470345"><ele>184.0</ele><time>2026-05-03T08:57:56.999Z</time></trkpt><trkpt lat="43.77417106576136" lon="10.960502154588774"><ele>184.0</ele><time>2026-05-03T08:58:00.999Z</time></trkpt><trkpt lat="43.77424187501246" lon="10.96052104588513"><ele>184.0</ele><time>2026-05-03T08:58:04.999Z</time></trkpt><trkpt lat="43.77432057188818" lon="10.960528753513968"><ele>184.0</ele><time>2026-05-03T08:58:08.999Z</time></trkpt><trkpt lat="43.77440116157321" lon="10.960557406050363"><ele>184.0</ele><time>2026-05-03T08:58:12.999Z</time></trkpt><trkpt lat="43.77448069042199" lon="10.960542296555547"><ele>184.0</ele><time>2026-05-03T08:58:16.999Z</time></trkpt><trkpt lat="43.77453882744121" lon="10.960577289248684"><ele>184.0</ele><time>2026-05-03T08:58:19.999Z</time></trkpt><trkpt lat="43.7746040854355" lon="10.96060017485527"><ele>184.0</ele><time>2026-05-03T08:58:22.999Z</time></trkpt><trkpt lat="43.77469002902391" lon="10.960627800617527"><ele>184.0</ele><time>2026-05-03T08:58:26.999Z</time></trkpt><trkpt lat="43.77475573512857" lon="10.960644566812174"><ele>184.0</ele><time>2026-05-03T08:58:29.999Z</time></trkpt><trkpt lat="43.77482535895169" lon="10.960648121004581"><ele>184.0</ele><time>2026-05-03T08:58:32.999Z</time></trkpt><trkpt lat="43.774892567960215" lon="10.960664028768553"><ele>184.0</ele><time>2026-05-03T08:58:35.999Z</time></trkpt><trkpt lat="43.77495592037412" lon="10.960683167664579"><ele>184.0</ele><time>2026-05-03T08:58:38.999Z</time></trkpt><trkpt lat="43.775020454428294" lon="10.960706248724273"><ele>184.0</ele><time>2026-05-03T08:58:41.999Z</time></trkpt><trkpt lat="43.77508131155639" lon="10.96072993524803"><ele>184.0</ele><time>2026-05-03T08:58:44.999Z</time></trkpt><trkpt lat="43.77514377900864" lon="10.96074852156991"><ele>184.0</ele><time>2026-05-03T08:58:47.999Z</time></trkpt><trkpt lat="43.77522582768784" lon="10.960763839130006"><ele>184.0</ele><time>2026-05-03T08:58:51.999Z</time></trkpt><trkpt lat="43.77529816802312" lon="10.96079107807719"><ele>184.0</ele><time>2026-05-03T08:58:55.999Z</time></trkpt><trkpt lat="43.775377305695145" lon="10.960794360000849"><ele>184.0</ele><time>2026-05-03T08:59:00Z</time></trkpt><trkpt lat="43.77544778077099" lon="10.960803870160396"><ele>184.0</ele><time>2026-05-03T08:59:04Z</time></trkpt><trkpt lat="43.77551859950186" lon="10.960806259300458"><ele>184.42857142857144</ele><time>2026-05-03T08:59:08Z</time></trkpt><trkpt lat="43.77559492538715" lon="10.960783200259067"><ele>184.85714285714283</ele><time>2026-05-03T08:59:12Z</time></trkpt><trkpt lat="43.77566546115738" lon="10.960772909097003"><ele>185.28571428571428</ele><time>2026-05-03T08:59:16Z</time></trkpt><trkpt lat="43.77573159619948" lon="10.960749389206768"><ele>185.71428571428572</ele><time>2026-05-03T08:59:20Z</time></trkpt><trkpt lat="43.77579217339671" lon="10.960711604994067"><ele>186.14285714285717</ele><time>2026-05-03T08:59:24Z</time></trkpt><trkpt lat="43.775851192736205" lon="10.960680874736394"><ele>186.57142857142856</ele><time>2026-05-03T08:59:28Z</time></trkpt><trkpt lat="43.77591316447483" lon="10.960637180322076"><ele>187.0</ele><time>2026-05-03T08:59:31.999Z</time></trkpt><trkpt lat="43.77598836761249" lon="10.960602350283438"><ele>187.57142857142856</ele><time>2026-05-03T08:59:36.999Z</time></trkpt><trkpt lat="43.77605158644312" lon="10.960572693822131"><ele>188.14285714285717</ele><time>2026-05-03T08:59:40.999Z</time></trkpt><trkpt lat="43.77611888860433" lon="10.960547174589006"><ele>188.71428571428572</ele><time>2026-05-03T08:59:44.999Z</time></trkpt><trkpt lat="43.77618410360536" lon="10.960531121864285"><ele>189.28571428571428</ele><time>2026-05-03T08:59:48.999Z</time></trkpt><trkpt lat="43.776246393062614" lon="10.960501765938444"><ele>189.85714285714283</ele><time>2026-05-03T08:59:52.999Z</time></trkpt><trkpt lat="43.77630938822429" lon="10.960488381690219"><ele>190.42857142857144</ele><time>2026-05-03T08:59:56.999Z</time></trkpt><trkpt lat="43.77637918264756" lon="10.960481497200432"><ele>191.0</ele><time>2026-05-03T09:00:00.999Z</time></trkpt><trkpt lat="43.77644516194441" lon="10.960452190985555"><ele>191.0</ele><time>2026-05-03T09:00:04.999Z</time></trkpt><trkpt lat="43.776512079945114" lon="10.960435084501556"><ele>191.0</ele><time>2026-05-03T09:00:08.999Z</time></trkpt><trkpt lat="43.77657449394327" lon="10.9604231363646"><ele>191.0</ele><time>2026-05-03T09:00:12.999Z</time></trkpt><trkpt lat="43.776650854781195" lon="10.960404567677559"><ele>191.0</ele><time>2026-05-03T09:00:17.999Z</time></trkpt><trkpt lat="43.77670861386379" lon="10.960361312049425"><ele>191.0</ele><time>2026-05-03T09:00:21.999Z</time></trkpt><trkpt lat="43.77676008712028" lon="10.960299132842586"><ele>191.0</ele><time>2026-05-03T09:00:26.999Z</time></trkpt><trkpt lat="43.776810053146804" lon="10.960235047579047"><ele>191.0</ele><time>2026-05-03T09:00:31.999Z</time></trkpt><trkpt lat="43.776856823539326" lon="10.960173181576485"><ele>192.2857142857143</ele><time>2026-05-03T09:00:36.999Z</time></trkpt><trkpt lat="43.776903052239234" lon="10.960101878032543"><ele>193.57142857142856</ele><time>2026-05-03T09:00:41.999Z</time></trkpt><trkpt lat="43.77692862297484" lon="10.96001964038132"><ele>194.85714285714286</ele><time>2026-05-03T09:00:48.999Z</time></trkpt><trkpt lat="43.776906944814584" lon="10.959929018962706"><ele>196.14285714285717</ele><time>2026-05-03T09:00:55.999Z</time></trkpt><trkpt lat="43.7768740020532" lon="10.959852334077846"><ele>197.42857142857144</ele><time>2026-05-03T09:01:03Z</time></trkpt><trkpt lat="43.77685135548837" lon="10.959769789768966"><ele>198.71428571428572</ele><time>2026-05-03T09:01:08Z</time></trkpt><trkpt lat="43.776847606543036" lon="10.9596659353409"><ele>200.0</ele><time>2026-05-03T09:01:14Z</time></trkpt><trkpt lat="43.776855266930994" lon="10.95957083790726"><ele>201.00000000000003</ele><time>2026-05-03T09:01:20Z</time></trkpt><trkpt lat="43.77686104174169" lon="10.959477804867685"><ele>202.0</ele><time>2026-05-03T09:01:27Z</time></trkpt><trkpt lat="43.77686097090595" lon="10.959369019270571"><ele>203.0</ele><time>2026-05-03T09:01:33Z</time></trkpt><trkpt lat="43.77689610016998" lon="10.959290031010024"><ele>204.0</ele><time>2026-05-03T09:01:38Z</time></trkpt><trkpt lat="43.776914098770334" lon="10.959195569423603"><ele>205.0</ele><time>2026-05-03T09:01:43Z</time></trkpt><trkpt lat="43.77691871038714" lon="10.959084127076341"><ele>206.00000000000003</ele><time>2026-05-03T09:01:48Z</time></trkpt><trkpt lat="43.77694736090157" lon="10.958989418080346"><ele>207.0</ele><time>2026-05-03T09:01:52.999Z</time></trkpt><trkpt lat="43.7769471054946" lon="10.959099769713776"><ele>207.0</ele><time>2026-05-03T09:02:02.999Z</time></trkpt><trkpt lat="43.77698838589431" lon="10.959188812070614"><ele>207.0</ele><time>2026-05-03T09:02:20.999Z</time></trkpt><trkpt lat="43.777029213054114" lon="10.959266510793826"><ele>207.0</ele><time>2026-05-03T09:02:24.999Z</time></trkpt><trkpt lat="43.77710810153181" lon="10.959283929300465"><ele>207.0</ele><time>2026-05-03T09:02:28.999Z</time></trkpt><trkpt lat="43.77717233305236" lon="10.959344185248831"><ele>207.0</ele><time>2026-05-03T09:02:32.999Z</time></trkpt><trkpt lat="43.77724299474948" lon="10.959359259047634"><ele>207.0</ele><time>2026-05-03T09:02:36.999Z</time></trkpt><trkpt lat="43.777319793116774" lon="10.959346528518386"><ele>207.00000000000003</ele><time>2026-05-03T09:02:40.999Z</time></trkpt><trkpt lat="43.77738652770423" lon="10.95931352248511"><ele>207.0</ele><time>2026-05-03T09:02:44.999Z</time></trkpt><trkpt lat="43.777438485329924" lon="10.959255025247195"><ele>207.0</ele><time>2026-05-03T09:02:48.999Z</time></trkpt><trkpt lat="43.77748854990441" lon="10.959179989143696"><ele>207.0</ele><time>2026-05-03T09:02:52.999Z</time></trkpt><trkpt lat="43.77753440494652" lon="10.959112516795255"><ele>207.0</ele><time>2026-05-03T09:02:56.999Z</time></trkpt><trkpt lat="43.77757601911034" lon="10.959036538029018"><ele>207.00000000000003</ele><time>2026-05-03T09:03:00.999Z</time></trkpt><trkpt lat="43.77763392343206" lon="10.958981624512173"><ele>207.0</ele><time>2026-05-03T09:03:04.999Z</time></trkpt><trkpt lat="43.77769114702647" lon="10.958936621409098"><ele>209.5</ele><time>2026-05-03T09:03:09Z</time></trkpt><trkpt lat="43.77776586802026" lon="10.958930599982168"><ele>212.0</ele><time>2026-05-03T09:03:13Z</time></trkpt><trkpt lat="43.77783855813337" lon="10.95893359591892"><ele>214.5</ele><time>2026-05-03T09:03:17Z</time></trkpt><trkpt lat="43.77791120399166" lon="10.958968383656936"><ele>217.0</ele><time>2026-05-03T09:03:21Z</time></trkpt><trkpt lat="43.77797920972689" lon="10.959015828165715"><ele>219.5</ele><time>2026-05-03T09:03:25Z</time></trkpt><trkpt lat="43.778045406997585" lon="10.959054166335713"><ele>222.0</ele><time>2026-05-03T09:03:29Z</time></trkpt><trkpt lat="43.77811562079601" lon="10.959099686586546"><ele>222.0</ele><time>2026-05-03T09:03:33Z</time></trkpt><trkpt lat="43.77817472103401" lon="10.959155771082452"><ele>222.0</ele><time>2026-05-03T09:03:37Z</time></trkpt><trkpt lat="43.77823374838605" lon="10.95920758999564"><ele>222.0</ele><time>2026-05-03T09:03:41Z</time></trkpt><trkpt lat="43.778302044153264" lon="10.959240784252524"><ele>222.0</ele><time>2026-05-03T09:03:45Z</time></trkpt><trkpt lat="43.77837262352692" lon="10.95924159089953"><ele>222.0</ele><time>2026-05-03T09:03:49Z</time></trkpt><trkpt lat="43.778444566826686" lon="10.959241864243145"><ele>222.0</ele><time>2026-05-03T09:03:52.999Z</time></trkpt><trkpt lat="43.77850781526005" lon="10.959250428618823"><ele>222.0</ele><time>2026-05-03T09:03:56.999Z</time></trkpt><trkpt lat="43.77858400529171" lon="10.959236094736454"><ele>222.0</ele><time>2026-05-03T09:04:00.999Z</time></trkpt><trkpt lat="43.77865525897525" lon="10.959228286099894"><ele>222.0</ele><time>2026-05-03T09:04:04.999Z</time></trkpt><trkpt lat="43.77872338642191" lon="10.959226917138777"><ele>222.0</ele><time>2026-05-03T09:04:08.999Z</time></trkpt><trkpt lat="43.7787886189616" lon="10.959206955465556"><ele>222.0</ele><time>2026-05-03T09:04:12.999Z</time></trkpt><trkpt lat="43.77886137238259" lon="10.9592115946587"><ele>222.0</ele><time>2026-05-03T09:04:16.999Z</time></trkpt><trkpt lat="43.77893296804199" lon="10.959181093999957"><ele>222.0</ele><time>2026-05-03T09:04:20.999Z</time></trkpt><trkpt lat="43.7789977503168" lon="10.95920050817019"><ele>222.0</ele><time>2026-05-03T09:04:24.999Z</time></trkpt><trkpt lat="43.779066617825876" lon="10.959212120979457"><ele>222.0</ele><time>2026-05-03T09:04:28.999Z</time></trkpt><trkpt lat="43.779141556650295" lon="10.959198443152504"><ele>222.0</ele><time>2026-05-03T09:04:32.999Z</time></trkpt><trkpt lat="43.77920663071357" lon="10.959221296612906"><ele>222.0</ele><time>2026-05-03T09:04:36.999Z</time></trkpt><trkpt lat="43.77927955807139" lon="10.959228285869345"><ele>222.0</ele><time>2026-05-03T09:04:40.999Z</time></trkpt><trkpt lat="43.779348019387584" lon="10.959224613695929"><ele>222.0</ele><time>2026-05-03T09:04:44.999Z</time></trkpt><trkpt lat="43.77941652490115" lon="10.959212824513113"><ele>222.0</ele><time>2026-05-03T09:04:48.999Z</time></trkpt><trkpt lat="43.77948595185049" lon="10.959197530237175"><ele>222.0</ele><time>2026-05-03T09:04:52.999Z</time></trkpt><trkpt lat="43.77955711115803" lon="10.959223846843658"><ele>223.5</ele><time>2026-05-03T09:04:56.999Z</time></trkpt><trkpt lat="43.77962064787961" lon="10.959265273064416"><ele>225.0</ele><time>2026-05-03T09:05:00.999Z</time></trkpt><trkpt lat="43.77968806345394" lon="10.959329926359583"><ele>226.5</ele><time>2026-05-03T09:05:05.999Z</time></trkpt><trkpt lat="43.77974754597784" lon="10.959390040090254"><ele>228.0</ele><time>2026-05-03T09:05:09.999Z</time></trkpt><trkpt lat="43.77979894544696" lon="10.959468055252172"><ele>229.5</ele><time>2026-05-03T09:05:13.999Z</time></trkpt><trkpt lat="43.779856679326016" lon="10.959546964823378"><ele>231.0</ele><time>2026-05-03T09:05:18Z</time></trkpt><trkpt lat="43.77991942396384" lon="10.959599333349177"><ele>231.0</ele><time>2026-05-03T09:05:22Z</time></trkpt><trkpt lat="43.779971285375716" lon="10.959673202378616"><ele>231.0</ele><time>2026-05-03T09:05:26Z</time></trkpt><trkpt lat="43.780024458840266" lon="10.959737522595319"><ele>231.0</ele><time>2026-05-03T09:05:30Z</time></trkpt><trkpt lat="43.78007566582594" lon="10.959799142702291"><ele>231.0</ele><time>2026-05-03T09:05:34Z</time></trkpt><trkpt lat="43.78013568569517" lon="10.959855915470754"><ele>231.0</ele><time>2026-05-03T09:05:38Z</time></trkpt><trkpt lat="43.78019533121999" lon="10.959918585090207"><ele>231.0</ele><time>2026-05-03T09:05:42Z</time></trkpt><trkpt lat="43.78023814692661" lon="10.960001898601615"><ele>231.0</ele><time>2026-05-03T09:05:46Z</time></trkpt><trkpt lat="43.78029639527185" lon="10.960061380642022"><ele>231.85714285714286</ele><time>2026-05-03T09:05:50Z</time></trkpt><trkpt lat="43.78034239207647" lon="10.960146628713465"><ele>232.71428571428572</ele><time>2026-05-03T09:05:54Z</time></trkpt><trkpt lat="43.78039169335009" lon="10.960211852930524"><ele>233.57142857142856</ele><time>2026-05-03T09:05:58Z</time></trkpt><trkpt lat="43.780442972653944" lon="10.960271760566426"><ele>234.42857142857142</ele><time>2026-05-03T09:06:02Z</time></trkpt><trkpt lat="43.780492904237654" lon="10.96033528722138"><ele>235.28571428571428</ele><time>2026-05-03T09:06:05.999Z</time></trkpt><trkpt lat="43.78053945233515" lon="10.960406315207365"><ele>236.1428571428571</ele><time>2026-05-03T09:06:09.999Z</time></trkpt><trkpt lat="43.780593375898526" lon="10.960475261970812"><ele>236.99999999999997</ele><time>2026-05-03T09:06:13.999Z</time></trkpt><trkpt lat="43.78063061840312" lon="10.960559034630572"><ele>237.0</ele><time>2026-05-03T09:06:17.999Z</time></trkpt><trkpt lat="43.78064946062077" lon="10.960659998795155"><ele>237.0</ele><time>2026-05-03T09:06:21.999Z</time></trkpt><trkpt lat="43.78065589119016" lon="10.960760331643923"><ele>237.0</ele><time>2026-05-03T09:06:25.999Z</time></trkpt><trkpt lat="43.78066151755886" lon="10.960861227352323"><ele>237.0</ele><time>2026-05-03T09:06:29.999Z</time></trkpt><trkpt lat="43.78064596691451" lon="10.960967299169615"><ele>237.0</ele><time>2026-05-03T09:06:33.999Z</time></trkpt><trkpt lat="43.78062752370145" lon="10.96107385703771"><ele>237.0</ele><time>2026-05-03T09:06:37.999Z</time></trkpt><trkpt lat="43.780584426764996" lon="10.961157753390973"><ele>238.71428571428567</ele><time>2026-05-03T09:06:41.999Z</time></trkpt><trkpt lat="43.78051966072636" lon="10.961209341906935"><ele>240.42857142857142</ele><time>2026-05-03T09:06:45.999Z</time></trkpt><trkpt lat="43.780457783157736" lon="10.961263813386957"><ele>242.1428571428571</ele><time>2026-05-03T09:06:49.999Z</time></trkpt><trkpt lat="43.78039958090302" lon="10.96132404366808"><ele>243.85714285714283</ele><time>2026-05-03T09:06:53.999Z</time></trkpt><trkpt lat="43.78035548738881" lon="10.96140545786268"><ele>245.57142857142856</ele><time>2026-05-03T09:06:57.999Z</time></trkpt><trkpt lat="43.780323744462784" lon="10.961492611778588"><ele>247.28571428571428</ele><time>2026-05-03T09:07:01.999Z</time></trkpt><trkpt lat="43.78031627661011" lon="10.961605899120158"><ele>249.0</ele><time>2026-05-03T09:07:05.999Z</time></trkpt><trkpt lat="43.78029946497899" lon="10.961716454632885"><ele>250.28571428571428</ele><time>2026-05-03T09:07:09.999Z</time></trkpt><trkpt lat="43.78030877827664" lon="10.961811017714625"><ele>251.57142857142856</ele><time>2026-05-03T09:07:12.999Z</time></trkpt><trkpt lat="43.78032619057471" lon="10.96189795376901"><ele>252.85714285714283</ele><time>2026-05-03T09:07:15.999Z</time></trkpt><trkpt lat="43.780329822577805" lon="10.96200915576006"><ele>254.1428571428571</ele><time>2026-05-03T09:07:19.999Z</time></trkpt><trkpt lat="43.780347719071955" lon="10.96209455934073"><ele>255.42857142857142</ele><time>2026-05-03T09:07:23Z</time></trkpt><trkpt lat="43.78038037665221" lon="10.96219825206318"><ele>256.71428571428567</ele><time>2026-05-03T09:07:27Z</time></trkpt><trkpt lat="43.780401643096056" lon="10.962299301392141"><ele>258.0</ele><time>2026-05-03T09:07:31Z</time></trkpt><trkpt lat="43.78041429922553" lon="10.962400831036772"><ele>258.0</ele><time>2026-05-03T09:07:35Z</time></trkpt><trkpt lat="43.78043306003754" lon="10.962509503657138"><ele>258.0</ele><time>2026-05-03T09:07:39Z</time></trkpt><trkpt lat="43.78045330383154" lon="10.962605015447659"><ele>258.0</ele><time>2026-05-03T09:07:43Z</time></trkpt><trkpt lat="43.78044761483632" lon="10.96270664038711"><ele>258.0</ele><time>2026-05-03T09:07:47Z</time></trkpt><trkpt lat="43.78044187388832" lon="10.962804828877472"><ele>258.0</ele><time>2026-05-03T09:07:51Z</time></trkpt><trkpt lat="43.78040832468799" lon="10.962899129700556"><ele>258.0</ele><time>2026-05-03T09:07:54.999Z</time></trkpt><trkpt lat="43.780376653164" lon="10.962996011842485"><ele>259.71428571428567</ele><time>2026-05-03T09:07:58.999Z</time></trkpt><trkpt lat="43.7803364741734" lon="10.963088098679043"><ele>261.42857142857144</ele><time>2026-05-03T09:08:02.999Z</time></trkpt><trkpt lat="43.780315228171254" lon="10.963189954972703"><ele>263.1428571428571</ele><time>2026-05-03T09:08:06.999Z</time></trkpt><trkpt lat="43.780305596735815" lon="10.963290257086264"><ele>264.85714285714283</ele><time>2026-05-03T09:08:10.999Z</time></trkpt><trkpt lat="43.78029079661909" lon="10.963392351992772"><ele>266.57142857142856</ele><time>2026-05-03T09:08:14.999Z</time></trkpt><trkpt lat="43.78028327187985" lon="10.963494761551406"><ele>268.2857142857143</ele><time>2026-05-03T09:08:18.999Z</time></trkpt><trkpt lat="43.78028776767136" lon="10.963589089093366"><ele>270.0</ele><time>2026-05-03T09:08:22.999Z</time></trkpt><trkpt lat="43.78029395397582" lon="10.963689347814116"><ele>270.1428571428571</ele><time>2026-05-03T09:08:26.999Z</time></trkpt><trkpt lat="43.780290437521316" lon="10.96378301032935"><ele>270.2857142857143</ele><time>2026-05-03T09:08:30.999Z</time></trkpt><trkpt lat="43.780269704094444" lon="10.963868630826196"><ele>270.42857142857144</ele><time>2026-05-03T09:08:34.999Z</time></trkpt><trkpt lat="43.780205547529995" lon="10.963934684962577"><ele>270.57142857142856</ele><time>2026-05-03T09:08:38.999Z</time></trkpt><trkpt lat="43.78012556638652" lon="10.963932810281314"><ele>270.7142857142857</ele><time>2026-05-03T09:08:42.999Z</time></trkpt><trkpt lat="43.780066058774445" lon="10.963887001928223"><ele>270.85714285714283</ele><time>2026-05-03T09:08:45.999Z</time></trkpt><trkpt lat="43.779999638795104" lon="10.963836273610962"><ele>271.0</ele><time>2026-05-03T09:08:49.999Z</time></trkpt><trkpt lat="43.77993186639646" lon="10.963803308015024"><ele>271.0</ele><time>2026-05-03T09:08:53.999Z</time></trkpt><trkpt lat="43.779881544813335" lon="10.963728341856411"><ele>271.0</ele><time>2026-05-03T09:08:57.999Z</time></trkpt><trkpt lat="43.779830688114735" lon="10.963661199953034"><ele>271.0</ele><time>2026-05-03T09:09:01.999Z</time></trkpt><trkpt lat="43.779783625832245" lon="10.963603011952543"><ele>271.0</ele><time>2026-05-03T09:09:05.999Z</time></trkpt><trkpt lat="43.77972850001555" lon="10.963541581791747"><ele>271.0</ele><time>2026-05-03T09:09:09.999Z</time></trkpt><trkpt lat="43.779665205860574" lon="10.963502383820616"><ele>271.0</ele><time>2026-05-03T09:09:13.999Z</time></trkpt><trkpt lat="43.77959586895014" lon="10.963476670665047"><ele>271.0</ele><time>2026-05-03T09:09:17.999Z</time></trkpt><trkpt lat="43.77952438758745" lon="10.963482526044068"><ele>271.0</ele><time>2026-05-03T09:09:21.999Z</time></trkpt><trkpt lat="43.779454912908314" lon="10.963523412891115"><ele>271.0</ele><time>2026-05-03T09:09:25.999Z</time></trkpt><trkpt lat="43.779401130487365" lon="10.963583987054431"><ele>271.0</ele><time>2026-05-03T09:09:30Z</time></trkpt><trkpt lat="43.77936904964993" lon="10.963660363960964"><ele>271.0</ele><time>2026-05-03T09:09:33Z</time></trkpt><trkpt lat="43.779333685459996" lon="10.96375245332614"><ele>271.0</ele><time>2026-05-03T09:09:37Z</time></trkpt><trkpt lat="43.7793394932797" lon="10.963845180144304"><ele>271.0</ele><time>2026-05-03T09:09:41Z</time></trkpt><trkpt lat="43.779350410418864" lon="10.963948356824014"><ele>271.0</ele><time>2026-05-03T09:09:45Z</time></trkpt><trkpt lat="43.77935920941597" lon="10.964037893814794"><ele>271.0</ele><time>2026-05-03T09:09:49Z</time></trkpt><trkpt lat="43.77937298684881" lon="10.964132462903367"><ele>271.0</ele><time>2026-05-03T09:09:53Z</time></trkpt><trkpt lat="43.77938797881056" lon="10.964222861904563"><ele>271.0</ele><time>2026-05-03T09:09:57Z</time></trkpt><trkpt lat="43.77939675760991" lon="10.964313432146275"><ele>271.0</ele><time>2026-05-03T09:10:01Z</time></trkpt><trkpt lat="43.779406593324424" lon="10.964401698288846"><ele>271.0</ele><time>2026-05-03T09:10:04.999Z</time></trkpt><trkpt lat="43.77941586777949" lon="10.964496569803769"><ele>271.0</ele><time>2026-05-03T09:10:08.999Z</time></trkpt><trkpt lat="43.779435607463974" lon="10.964584285330252"><ele>271.0</ele><time>2026-05-03T09:10:12.999Z</time></trkpt><trkpt lat="43.779437795985146" lon="10.964682939429686"><ele>272.0</ele><time>2026-05-03T09:10:16.999Z</time></trkpt><trkpt lat="43.77943846655403" lon="10.964779086560771"><ele>273.0</ele><time>2026-05-03T09:10:20.999Z</time></trkpt><trkpt lat="43.779456635999836" lon="10.964890042493975"><ele>274.0</ele><time>2026-05-03T09:10:25.999Z</time></trkpt><trkpt lat="43.779473223703256" lon="10.96498036929737"><ele>275.0</ele><time>2026-05-03T09:10:29.999Z</time></trkpt><trkpt lat="43.77949186305531" lon="10.965064467955576"><ele>276.0</ele><time>2026-05-03T09:10:33.999Z</time></trkpt><trkpt lat="43.779526301838416" lon="10.965158606930608"><ele>277.0</ele><time>2026-05-03T09:10:44.999Z</time></trkpt><trkpt lat="43.77955940002937" lon="10.965238242719224"><ele>278.0</ele><time>2026-05-03T09:10:51.999Z</time></trkpt><trkpt lat="43.77960873961973" lon="10.965306716644141"><ele>278.0</ele><time>2026-05-03T09:10:57.999Z</time></trkpt><trkpt lat="43.77966442472927" lon="10.965384475630575"><ele>278.0</ele><time>2026-05-03T09:11:03.999Z</time></trkpt><trkpt lat="43.77973117382054" lon="10.965450486697614"><ele>278.0</ele><time>2026-05-03T09:11:08.999Z</time></trkpt><trkpt lat="43.77980290295976" lon="10.965479527394882"><ele>278.0</ele><time>2026-05-03T09:11:12.999Z</time></trkpt><trkpt lat="43.77987151230851" lon="10.965488800717202"><ele>278.0</ele><time>2026-05-03T09:11:16.999Z</time></trkpt><trkpt lat="43.7799436903431" lon="10.965482279374523"><ele>278.0</ele><time>2026-05-03T09:11:20.999Z</time></trkpt><trkpt lat="43.78001682804184" lon="10.96548227378863"><ele>278.0</ele><time>2026-05-03T09:11:24.999Z</time></trkpt><trkpt lat="43.780083997937126" lon="10.96547788666138"><ele>278.0</ele><time>2026-05-03T09:11:28.999Z</time></trkpt><trkpt lat="43.78014987397939" lon="10.965468373809944"><ele>278.0</ele><time>2026-05-03T09:11:33Z</time></trkpt><trkpt lat="43.7802214893708" lon="10.965456546606552"><ele>278.0</ele><time>2026-05-03T09:11:37Z</time></trkpt><trkpt lat="43.780291326398626" lon="10.965460797244253"><ele>278.0</ele><time>2026-05-03T09:11:41Z</time></trkpt><trkpt lat="43.78037098750098" lon="10.965463658847401"><ele>278.0</ele><time>2026-05-03T09:11:46Z</time></trkpt><trkpt lat="43.78044013872973" lon="10.965490117325917"><ele>278.0</ele><time>2026-05-03T09:11:50Z</time></trkpt><trkpt lat="43.78049166976777" lon="10.965563411086322"><ele>281.0</ele><time>2026-05-03T09:11:54Z</time></trkpt><trkpt lat="43.780528641406356" lon="10.96563885335459"><ele>284.0</ele><time>2026-05-03T09:11:58Z</time></trkpt><trkpt lat="43.78053468911997" lon="10.965729841381334"><ele>287.0</ele><time>2026-05-03T09:12:02Z</time></trkpt><trkpt lat="43.78051724507196" lon="10.965819115494105"><ele>290.0</ele><time>2026-05-03T09:12:06Z</time></trkpt><trkpt lat="43.78048386717631" lon="10.965897156572888"><ele>293.0</ele><time>2026-05-03T09:12:10Z</time></trkpt><trkpt lat="43.78043327589305" lon="10.965954062533912"><ele>296.0</ele><time>2026-05-03T09:12:14Z</time></trkpt><trkpt lat="43.78038836672356" lon="10.966033513307964"><ele>299.0</ele><time>2026-05-03T09:12:17.999Z</time></trkpt><trkpt lat="43.780330675550196" lon="10.966096405057847"><ele>300.83333333333337</ele><time>2026-05-03T09:12:21.999Z</time></trkpt><trkpt lat="43.78026856000441" lon="10.966165176759132"><ele>302.6666666666667</ele><time>2026-05-03T09:12:26.999Z</time></trkpt><trkpt lat="43.78022632665333" lon="10.966252364432101"><ele>304.5</ele><time>2026-05-03T09:12:30.999Z</time></trkpt><trkpt lat="43.78017521510476" lon="10.96633315630681"><ele>306.3333333333333</ele><time>2026-05-03T09:12:34.999Z</time></trkpt><trkpt lat="43.78013285400606" lon="10.966425007679339"><ele>308.16666666666663</ele><time>2026-05-03T09:12:38.999Z</time></trkpt><trkpt lat="43.78008317959219" lon="10.966513926639701"><ele>310.0</ele><time>2026-05-03T09:12:42.999Z</time></trkpt><trkpt lat="43.78004259398993" lon="10.96660750861624"><ele>306.14285714285717</ele><time>2026-05-03T09:12:46.999Z</time></trkpt><trkpt lat="43.7800109675382" lon="10.966700138843242"><ele>302.2857142857143</ele><time>2026-05-03T09:12:50.999Z</time></trkpt><trkpt lat="43.77999537906496" lon="10.966798218450485"><ele>298.42857142857144</ele><time>2026-05-03T09:12:54.999Z</time></trkpt><trkpt lat="43.77999943121594" lon="10.96689827328277"><ele>294.57142857142856</ele><time>2026-05-03T09:12:58.999Z</time></trkpt><trkpt lat="43.78001344820596" lon="10.966999755230345"><ele>290.7142857142857</ele><time>2026-05-03T09:13:02.999Z</time></trkpt><trkpt lat="43.78004206754722" lon="10.967095209679284"><ele>286.8571428571429</ele><time>2026-05-03T09:13:06.999Z</time></trkpt><trkpt lat="43.78009652278705" lon="10.967153830343864"><ele>283.0</ele><time>2026-05-03T09:13:10.999Z</time></trkpt><trkpt lat="43.780160009579056" lon="10.967183483389187"><ele>284.42857142857144</ele><time>2026-05-03T09:13:14.999Z</time></trkpt><trkpt lat="43.78020675039362" lon="10.967261485432243"><ele>285.8571428571429</ele><time>2026-05-03T09:13:18.999Z</time></trkpt><trkpt lat="43.78027422117274" lon="10.967306353178284"><ele>287.2857142857143</ele><time>2026-05-03T09:13:22.999Z</time></trkpt><trkpt lat="43.78031696781666" lon="10.967380391317713"><ele>288.7142857142857</ele><time>2026-05-03T09:13:26.999Z</time></trkpt><trkpt lat="43.78037789655763" lon="10.96743662851207"><ele>290.1428571428571</ele><time>2026-05-03T09:13:30.999Z</time></trkpt><trkpt lat="43.780429922270315" lon="10.967488816418467"><ele>291.57142857142856</ele><time>2026-05-03T09:13:34.999Z</time></trkpt><trkpt lat="43.78048061055773" lon="10.967559226528342"><ele>293.0</ele><time>2026-05-03T09:13:39Z</time></trkpt><trkpt lat="43.78053280411588" lon="10.967620111592366"><ele>292.99999999999994</ele><time>2026-05-03T09:13:43Z</time></trkpt><trkpt lat="43.780587289094456" lon="10.96767902456043"><ele>293.0</ele><time>2026-05-03T09:13:47Z</time></trkpt><trkpt lat="43.78064561763662" lon="10.9677290791406"><ele>293.0</ele><time>2026-05-03T09:13:51Z</time></trkpt><trkpt lat="43.7807023369331" lon="10.967779092208174"><ele>293.0</ele><time>2026-05-03T09:13:55Z</time></trkpt><trkpt lat="43.78075430809265" lon="10.967838507562782"><ele>293.0</ele><time>2026-05-03T09:13:59Z</time></trkpt><trkpt lat="43.78081150952663" lon="10.967890434389997"><ele>292.99999999999994</ele><time>2026-05-03T09:14:03Z</time></trkpt><trkpt lat="43.78086501387445" lon="10.967939723729346"><ele>293.0</ele><time>2026-05-03T09:14:07Z</time></trkpt><trkpt lat="43.78092256254701" lon="10.967991842148704"><ele>292.99999999999994</ele><time>2026-05-03T09:14:11Z</time></trkpt><trkpt lat="43.78098156857304" lon="10.968030978498655"><ele>293.0</ele><time>2026-05-03T09:14:15Z</time></trkpt><trkpt lat="43.78104467615939" lon="10.968076636962348"><ele>293.0</ele><time>2026-05-03T09:14:19Z</time></trkpt><trkpt lat="43.78109828368431" lon="10.968124006541004"><ele>293.0</ele><time>2026-05-03T09:14:23Z</time></trkpt><trkpt lat="43.781157523373984" lon="10.968173434421992"><ele>293.0</ele><time>2026-05-03T09:14:27Z</time></trkpt><trkpt lat="43.781212678495386" lon="10.96822529754976"><ele>292.99999999999994</ele><time>2026-05-03T09:14:31Z</time></trkpt><trkpt lat="43.78127422789491" lon="10.968267644866193"><ele>293.0</ele><time>2026-05-03T09:14:34.999Z</time></trkpt><trkpt lat="43.781334132313596" lon="10.968310121708873"><ele>296.99999999999994</ele><time>2026-05-03T09:14:38.999Z</time></trkpt><trkpt lat="43.781383462802346" lon="10.968364898831565"><ele>301.0</ele><time>2026-05-03T09:14:42.999Z</time></trkpt><trkpt lat="43.78145863398044" lon="10.968403901504336"><ele>305.0</ele><time>2026-05-03T09:14:47.999Z</time></trkpt><trkpt lat="43.78150823358481" lon="10.968460648117185"><ele>309.0</ele><time>2026-05-03T09:14:51.999Z</time></trkpt><trkpt lat="43.78155140870028" lon="10.968526067457022"><ele>313.0</ele><time>2026-05-03T09:14:55.999Z</time></trkpt><trkpt lat="43.78157944328446" lon="10.968617976880987"><ele>316.99999999999994</ele><time>2026-05-03T09:14:59.999Z</time></trkpt><trkpt lat="43.7815941262567" lon="10.968714627736684"><ele>321.0</ele><time>2026-05-03T09:15:03.999Z</time></trkpt><trkpt lat="43.7815874690012" lon="10.968804224354907"><ele>320.99999999999994</ele><time>2026-05-03T09:15:07.999Z</time></trkpt><trkpt lat="43.78157524302748" lon="10.96889393364151"><ele>321.0</ele><time>2026-05-03T09:15:11.999Z</time></trkpt><trkpt lat="43.78154079653303" lon="10.968982120199334"><ele>321.0</ele><time>2026-05-03T09:15:15.999Z</time></trkpt><trkpt lat="43.7814856417665" lon="10.969047769660584"><ele>321.0</ele><time>2026-05-03T09:15:19.999Z</time></trkpt><trkpt lat="43.7814190529672" lon="10.969070566712418"><ele>321.0</ele><time>2026-05-03T09:15:23.999Z</time></trkpt><trkpt lat="43.78136134461214" lon="10.969108636821629"><ele>320.99999999999994</ele><time>2026-05-03T09:15:26.999Z</time></trkpt><trkpt lat="43.78129740790775" lon="10.969123044046325"><ele>321.0</ele><time>2026-05-03T09:15:29.999Z</time></trkpt><trkpt lat="43.78122125039507" lon="10.969135151116367"><ele>320.99999999999994</ele><time>2026-05-03T09:15:33.999Z</time></trkpt><trkpt lat="43.78115856650508" lon="10.969148662805397"><ele>321.0</ele><time>2026-05-03T09:15:36.999Z</time></trkpt><trkpt lat="43.78108605822969" lon="10.969183981096938"><ele>321.0</ele><time>2026-05-03T09:15:40.999Z</time></trkpt><trkpt lat="43.7810071633276" lon="10.969205310347295"><ele>321.0</ele><time>2026-05-03T09:15:45Z</time></trkpt><trkpt lat="43.78093547445087" lon="10.969246602424379"><ele>321.0</ele><time>2026-05-03T09:15:49Z</time></trkpt><trkpt lat="43.78087117793046" lon="10.969277138243418"><ele>320.99999999999994</ele><time>2026-05-03T09:15:53Z</time></trkpt><trkpt lat="43.780807703970346" lon="10.969309202488152"><ele>321.0</ele><time>2026-05-03T09:15:57Z</time></trkpt><trkpt lat="43.78073634921472" lon="10.969329427190734"><ele>320.71428571428567</ele><time>2026-05-03T09:16:01Z</time></trkpt><trkpt lat="43.7806611371367" lon="10.969360154464836"><ele>320.42857142857144</ele><time>2026-05-03T09:16:05Z</time></trkpt><trkpt lat="43.78059404778054" lon="10.969392712582515"><ele>320.1428571428571</ele><time>2026-05-03T09:16:09Z</time></trkpt><trkpt lat="43.78052656590219" lon="10.9694291113824"><ele>319.85714285714283</ele><time>2026-05-03T09:16:13Z</time></trkpt><trkpt lat="43.7804691204307" lon="10.96947723831727"><ele>319.57142857142856</ele><time>2026-05-03T09:16:17Z</time></trkpt><trkpt lat="43.78040286914139" lon="10.96951564493209"><ele>319.2857142857143</ele><time>2026-05-03T09:16:21Z</time></trkpt><trkpt lat="43.780357717050244" lon="10.969599967790286"><ele>319.0</ele><time>2026-05-03T09:16:25Z</time></trkpt><trkpt lat="43.78032135347237" lon="10.969681789352746"><ele>319.0</ele><time>2026-05-03T09:16:29Z</time></trkpt><trkpt lat="43.7803272889607" lon="10.96979336404241"><ele>319.0</ele><time>2026-05-03T09:16:33Z</time></trkpt><trkpt lat="43.78034213106145" lon="10.969882084284798"><ele>319.0</ele><time>2026-05-03T09:16:36Z</time></trkpt><trkpt lat="43.780380767314064" lon="10.969953985016838"><ele>319.0</ele><time>2026-05-03T09:16:38.999Z</time></trkpt><trkpt lat="43.7804363562585" lon="10.970022173464042"><ele>319.0</ele><time>2026-05-03T09:16:42.999Z</time></trkpt><trkpt lat="43.78048950103827" lon="10.970081909812478"><ele>319.0</ele><time>2026-05-03T09:16:46.999Z</time></trkpt><trkpt lat="43.780557199048694" lon="10.970112240787893"><ele>319.0</ele><time>2026-05-03T09:16:50.999Z</time></trkpt><trkpt lat="43.78062295431619" lon="10.97014366606159"><ele>317.7142857142857</ele><time>2026-05-03T09:16:54.999Z</time></trkpt><trkpt lat="43.78068663960452" lon="10.970183845506847"><ele>316.4285714285714</ele><time>2026-05-03T09:16:58.999Z</time></trkpt><trkpt lat="43.78075195837961" lon="10.970216804131745"><ele>315.1428571428571</ele><time>2026-05-03T09:17:02.999Z</time></trkpt><trkpt lat="43.78080578300725" lon="10.970275896623868"><ele>313.8571428571429</ele><time>2026-05-03T09:17:06.999Z</time></trkpt><trkpt lat="43.780858435880056" lon="10.97033971445626"><ele>312.57142857142856</ele><time>2026-05-03T09:17:10.999Z</time></trkpt><trkpt lat="43.78091009798014" lon="10.970404883060045"><ele>311.2857142857143</ele><time>2026-05-03T09:17:14.999Z</time></trkpt><trkpt lat="43.78095458373393" lon="10.97047997620304"><ele>310.0</ele><time>2026-05-03T09:17:18.999Z</time></trkpt><trkpt lat="43.78099678175915" lon="10.970553199443627"><ele>312.2857142857143</ele><time>2026-05-03T09:17:22.999Z</time></trkpt><trkpt lat="43.78104388575004" lon="10.97062749972896"><ele>314.57142857142856</ele><time>2026-05-03T09:17:26.999Z</time></trkpt><trkpt lat="43.78108481252611" lon="10.970708822172194"><ele>316.8571428571429</ele><time>2026-05-03T09:17:30.999Z</time></trkpt><trkpt lat="43.781135463427674" lon="10.97078454315014"><ele>319.1428571428571</ele><time>2026-05-03T09:17:34.999Z</time></trkpt><trkpt lat="43.78117477219771" lon="10.970857857223514"><ele>321.4285714285714</ele><time>2026-05-03T09:17:38.999Z</time></trkpt><trkpt lat="43.78122072857062" lon="10.970931300695328"><ele>323.7142857142857</ele><time>2026-05-03T09:17:42.999Z</time></trkpt><trkpt lat="43.78126584674808" lon="10.971001881565863"><ele>326.0</ele><time>2026-05-03T09:17:46.999Z</time></trkpt><trkpt lat="43.78131423046679" lon="10.97108125156162"><ele>326.0</ele><time>2026-05-03T09:17:51Z</time></trkpt><trkpt lat="43.781367577163344" lon="10.971147904393046"><ele>326.0</ele><time>2026-05-03T09:17:55Z</time></trkpt><trkpt lat="43.78143526052802" lon="10.971198637581212"><ele>326.0</ele><time>2026-05-03T09:17:59Z</time></trkpt><trkpt lat="43.78149953555304" lon="10.971246885701921"><ele>326.0</ele><time>2026-05-03T09:18:03Z</time></trkpt><trkpt lat="43.78155706079316" lon="10.971303603367351"><ele>326.0</ele><time>2026-05-03T09:18:07Z</time></trkpt><trkpt lat="43.78162172155277" lon="10.971365170102175"><ele>326.0</ele><time>2026-05-03T09:18:11Z</time></trkpt><trkpt lat="43.78167855184412" lon="10.971437614592059"><ele>326.0</ele><time>2026-05-03T09:18:15Z</time></trkpt><trkpt lat="43.78172243363607" lon="10.971520842373382"><ele>326.0</ele><time>2026-05-03T09:18:19Z</time></trkpt><trkpt lat="43.78176105713976" lon="10.971603422688979"><ele>326.0</ele><time>2026-05-03T09:18:23Z</time></trkpt><trkpt lat="43.781797664205" lon="10.97169382948339"><ele>326.0</ele><time>2026-05-03T09:18:27Z</time></trkpt><trkpt lat="43.781823887052" lon="10.971791042538515"><ele>326.0</ele><time>2026-05-03T09:18:31Z</time></trkpt><trkpt lat="43.781847195866625" lon="10.97188014251148"><ele>326.0</ele><time>2026-05-03T09:18:35Z</time></trkpt><trkpt lat="43.781877320169905" lon="10.971968248220925"><ele>326.0</ele><time>2026-05-03T09:18:39Z</time></trkpt><trkpt lat="43.78188977901821" lon="10.972065111267206"><ele>326.0</ele><time>2026-05-03T09:18:43Z</time></trkpt><trkpt lat="43.78190978807398" lon="10.972169134691"><ele>329.2857142857143</ele><time>2026-05-03T09:18:47Z</time></trkpt><trkpt lat="43.7819245272486" lon="10.972268038305824"><ele>332.57142857142856</ele><time>2026-05-03T09:18:51Z</time></trkpt><trkpt lat="43.78194248113639" lon="10.972366556670396"><ele>335.85714285714283</ele><time>2026-05-03T09:18:55Z</time></trkpt><trkpt lat="43.78196134708211" lon="10.97247237394797"><ele>339.1428571428571</ele><time>2026-05-03T09:19:00Z</time></trkpt><trkpt lat="43.78196204763095" lon="10.97256337788252"><ele>342.42857142857144</ele><time>2026-05-03T09:19:03.999Z</time></trkpt><trkpt lat="43.78194480013625" lon="10.972660498567908"><ele>345.71428571428567</ele><time>2026-05-03T09:19:07.999Z</time></trkpt><trkpt lat="43.78193149070185" lon="10.972753158866585"><ele>349.0</ele><time>2026-05-03T09:19:11.999Z</time></trkpt><trkpt lat="43.78191078339476" lon="10.972844292908192"><ele>349.8333333333333</ele><time>2026-05-03T09:19:15.999Z</time></trkpt><trkpt lat="43.7818771695252" lon="10.972933934615343"><ele>350.66666666666663</ele><time>2026-05-03T09:19:19.999Z</time></trkpt><trkpt lat="43.78181690833088" lon="10.97300277776313"><ele>351.5</ele><time>2026-05-03T09:19:23.999Z</time></trkpt><trkpt lat="43.78175164118052" lon="10.973061170748021"><ele>352.3333333333333</ele><time>2026-05-03T09:19:27.999Z</time></trkpt><trkpt lat="43.781680595691675" lon="10.973083110073565"><ele>353.1666666666667</ele><time>2026-05-03T09:19:31.999Z</time></trkpt><trkpt lat="43.7816073839569" lon="10.973092236705641"><ele>354.0</ele><time>2026-05-03T09:19:35.999Z</time></trkpt><trkpt lat="43.78152851640866" lon="10.97310517126275"><ele>351.8333333333333</ele><time>2026-05-03T09:19:39.999Z</time></trkpt><trkpt lat="43.78144882843387" lon="10.973116534389154"><ele>349.6666666666667</ele><time>2026-05-03T09:19:43.999Z</time></trkpt><trkpt lat="43.781369671948816" lon="10.973104388101481"><ele>347.5</ele><time>2026-05-03T09:19:47.999Z</time></trkpt><trkpt lat="43.781296272389916" lon="10.973102456315337"><ele>345.33333333333337</ele><time>2026-05-03T09:19:51.999Z</time></trkpt><trkpt lat="43.781226275045" lon="10.973100616620817"><ele>343.1666666666667</ele><time>2026-05-03T09:19:55.999Z</time></trkpt><trkpt lat="43.781152332424945" lon="10.97313042931532"><ele>341.0</ele><time>2026-05-03T09:20:00Z</time></trkpt><trkpt lat="43.78108847957963" lon="10.973183994338973"><ele>341.0</ele><time>2026-05-03T09:20:04Z</time></trkpt><trkpt lat="43.78104235105704" lon="10.973271746450502"><ele>341.0</ele><time>2026-05-03T09:20:08Z</time></trkpt><trkpt lat="43.78098524047934" lon="10.973338839864475"><ele>341.0</ele><time>2026-05-03T09:20:12Z</time></trkpt><trkpt lat="43.780928993081176" lon="10.973402724420147"><ele>341.0</ele><time>2026-05-03T09:20:16Z</time></trkpt><trkpt lat="43.78087569269941" lon="10.973480737753155"><ele>341.0</ele><time>2026-05-03T09:20:20Z</time></trkpt><trkpt lat="43.78083254870838" lon="10.973569673242709"><ele>341.0</ele><time>2026-05-03T09:20:24Z</time></trkpt><trkpt lat="43.780777093021925" lon="10.973643500704569"><ele>341.42857142857144</ele><time>2026-05-03T09:20:28Z</time></trkpt><trkpt lat="43.78073895824748" lon="10.973723810846522"><ele>341.8571428571429</ele><time>2026-05-03T09:20:32Z</time></trkpt><trkpt lat="43.78069891474156" lon="10.973805239246094"><ele>342.28571428571433</ele><time>2026-05-03T09:20:36Z</time></trkpt><trkpt lat="43.78065031748496" lon="10.973883778089403"><ele>342.7142857142857</ele><time>2026-05-03T09:20:40Z</time></trkpt><trkpt lat="43.7805959049335" lon="10.973952339212062"><ele>343.14285714285717</ele><time>2026-05-03T09:20:44Z</time></trkpt><trkpt lat="43.78053975685129" lon="10.974016708541868"><ele>343.5714285714286</ele><time>2026-05-03T09:20:48Z</time></trkpt><trkpt lat="43.780489585734834" lon="10.974082639254839"><ele>344.0</ele><time>2026-05-03T09:20:52Z</time></trkpt><trkpt lat="43.780449916002866" lon="10.974161342815089"><ele>345.14285714285717</ele><time>2026-05-03T09:20:55.999Z</time></trkpt><trkpt lat="43.78040515032285" lon="10.97423076242735"><ele>346.2857142857143</ele><time>2026-05-03T09:20:59.999Z</time></trkpt><trkpt lat="43.78037461885219" lon="10.974314069075389"><ele>347.42857142857144</ele><time>2026-05-03T09:21:03.999Z</time></trkpt><trkpt lat="43.78032266390415" lon="10.97437323539796"><ele>348.57142857142856</ele><time>2026-05-03T09:21:07.999Z</time></trkpt><trkpt lat="43.780265737634274" lon="10.974436146185793"><ele>349.7142857142857</ele><time>2026-05-03T09:21:11.999Z</time></trkpt><trkpt lat="43.78021821203768" lon="10.974500117021725"><ele>350.8571428571429</ele><time>2026-05-03T09:21:15.999Z</time></trkpt><trkpt lat="43.78015986068239" lon="10.974549839706452"><ele>352.0</ele><time>2026-05-03T09:21:19.999Z</time></trkpt><trkpt lat="43.7800951940135" lon="10.97459110092818"><ele>352.0</ele><time>2026-05-03T09:21:23.999Z</time></trkpt><trkpt lat="43.78002516265947" lon="10.97462437514287"><ele>352.0</ele><time>2026-05-03T09:21:27.999Z</time></trkpt><trkpt lat="43.77996090278886" lon="10.974661254723133"><ele>352.0</ele><time>2026-05-03T09:21:31.999Z</time></trkpt><trkpt lat="43.77989287540943" lon="10.974687089668883"><ele>352.0</ele><time>2026-05-03T09:21:35.999Z</time></trkpt><trkpt lat="43.77981823616372" lon="10.97471060572271"><ele>352.0</ele><time>2026-05-03T09:21:39.999Z</time></trkpt><trkpt lat="43.779747572714676" lon="10.974747108498704"><ele>352.0</ele><time>2026-05-03T09:21:43.999Z</time></trkpt><trkpt lat="43.77968021033113" lon="10.974786141168076"><ele>352.0</ele><time>2026-05-03T09:21:47.999Z</time></trkpt><trkpt lat="43.779627784218846" lon="10.974870319653785"><ele>352.0</ele><time>2026-05-03T09:21:51.999Z</time></trkpt><trkpt lat="43.77958304004729" lon="10.974950062847213"><ele>352.0</ele><time>2026-05-03T09:21:55.999Z</time></trkpt><trkpt lat="43.77954061693549" lon="10.975031253741381"><ele>352.0</ele><time>2026-05-03T09:21:59.999Z</time></trkpt><trkpt lat="43.7795133774856" lon="10.97512092988719"><ele>352.0</ele><time>2026-05-03T09:22:04Z</time></trkpt><trkpt lat="43.77946775519813" lon="10.975198696244805"><ele>352.0</ele><time>2026-05-03T09:22:08Z</time></trkpt><trkpt lat="43.779429725179696" lon="10.97529028552846"><ele>352.0</ele><time>2026-05-03T09:22:13Z</time></trkpt><trkpt lat="43.7793727895106" lon="10.975367036829683"><ele>352.0</ele><time>2026-05-03T09:22:17Z</time></trkpt><trkpt lat="43.77931727757966" lon="10.975441543984823"><ele>352.0</ele><time>2026-05-03T09:22:21Z</time></trkpt><trkpt lat="43.779271003735495" lon="10.975526766890512"><ele>352.0</ele><time>2026-05-03T09:22:25Z</time></trkpt><trkpt lat="43.779234413974024" lon="10.975630967096794"><ele>352.0</ele><time>2026-05-03T09:22:29Z</time></trkpt><trkpt lat="43.779204752354005" lon="10.97573382646093"><ele>352.0</ele><time>2026-05-03T09:22:33Z</time></trkpt><trkpt lat="43.77916648560536" lon="10.975809952758416"><ele>352.0</ele><time>2026-05-03T09:22:37Z</time></trkpt><trkpt lat="43.7791298380957" lon="10.975898405343345"><ele>352.0</ele><time>2026-05-03T09:22:41Z</time></trkpt><trkpt lat="43.779093723974285" lon="10.975997405854644"><ele>352.2857142857143</ele><time>2026-05-03T09:22:45Z</time></trkpt><trkpt lat="43.77907357057809" lon="10.976099962296411"><ele>352.57142857142856</ele><time>2026-05-03T09:22:49Z</time></trkpt><trkpt lat="43.779076832364005" lon="10.976192175972777"><ele>352.8571428571429</ele><time>2026-05-03T09:22:51.999Z</time></trkpt><trkpt lat="43.7790930528935" lon="10.97629832076317"><ele>353.1428571428571</ele><time>2026-05-03T09:22:55.999Z</time></trkpt><trkpt lat="43.77911513852083" lon="10.97640242278363"><ele>353.4285714285714</ele><time>2026-05-03T09:22:59.999Z</time></trkpt><trkpt lat="43.779149250041264" lon="10.97650001544236"><ele>353.7142857142857</ele><time>2026-05-03T09:23:03.999Z</time></trkpt><trkpt lat="43.779184158617504" lon="10.976580027919313"><ele>354.0</ele><time>2026-05-03T09:23:06.999Z</time></trkpt><trkpt lat="43.779220861613794" lon="10.976682942405033"><ele>353.6666666666667</ele><time>2026-05-03T09:23:10.999Z</time></trkpt><trkpt lat="43.77927433071091" lon="10.976771014553252"><ele>353.3333333333333</ele><time>2026-05-03T09:23:14.999Z</time></trkpt><trkpt lat="43.77933159456567" lon="10.976851305259675"><ele>353.0</ele><time>2026-05-03T09:23:18.999Z</time></trkpt><trkpt lat="43.7793741378981" lon="10.976917029682195"><ele>352.66666666666663</ele><time>2026-05-03T09:23:21.999Z</time></trkpt><trkpt lat="43.77943805263978" lon="10.976976487830441"><ele>352.3333333333333</ele><time>2026-05-03T09:23:25.999Z</time></trkpt><trkpt lat="43.779503063832934" lon="10.977033496897588"><ele>352.0</ele><time>2026-05-03T09:23:29.999Z</time></trkpt><trkpt lat="43.779576026888684" lon="10.977069711021372"><ele>352.0</ele><time>2026-05-03T09:23:33.999Z</time></trkpt><trkpt lat="43.77965714420955" lon="10.977066405086529"><ele>352.0</ele><time>2026-05-03T09:23:37.999Z</time></trkpt><trkpt lat="43.779726011180585" lon="10.977056858308908"><ele>352.0</ele><time>2026-05-03T09:23:41.999Z</time></trkpt><trkpt lat="43.77979034531639" lon="10.977037637271497"><ele>352.0</ele><time>2026-05-03T09:23:45.999Z</time></trkpt><trkpt lat="43.77986877600987" lon="10.97704031251574"><ele>352.0</ele><time>2026-05-03T09:23:50.999Z</time></trkpt><trkpt lat="43.77993206649195" lon="10.977037367723304"><ele>352.0</ele><time>2026-05-03T09:23:54.999Z</time></trkpt><trkpt lat="43.78000239537801" lon="10.977017506006018"><ele>352.0</ele><time>2026-05-03T09:23:58.999Z</time></trkpt><trkpt lat="43.780068834962655" lon="10.977029841167427"><ele>352.0</ele><time>2026-05-03T09:24:02.999Z</time></trkpt><trkpt lat="43.78013364217038" lon="10.977050194954733"><ele>352.0</ele><time>2026-05-03T09:24:06.999Z</time></trkpt><trkpt lat="43.78019745333554" lon="10.977102881331128"><ele>352.0</ele><time>2026-05-03T09:24:11Z</time></trkpt><trkpt lat="43.78025791745642" lon="10.977163835965234"><ele>352.0</ele><time>2026-05-03T09:24:16Z</time></trkpt><trkpt lat="43.780324378914344" lon="10.97722962307955"><ele>352.0</ele><time>2026-05-03T09:24:20Z</time></trkpt><trkpt lat="43.780387033365386" lon="10.977276106587883"><ele>352.0</ele><time>2026-05-03T09:24:24Z</time></trkpt><trkpt lat="43.7804450457514" lon="10.977345992046189"><ele>352.0</ele><time>2026-05-03T09:24:28Z</time></trkpt><trkpt lat="43.780503010784486" lon="10.97741500505709"><ele>353.8571428571429</ele><time>2026-05-03T09:24:32Z</time></trkpt><trkpt lat="43.7805704065054" lon="10.977458014329121"><ele>355.7142857142857</ele><time>2026-05-03T09:24:36Z</time></trkpt><trkpt lat="43.780630263541134" lon="10.977502312844676"><ele>357.57142857142856</ele><time>2026-05-03T09:24:40Z</time></trkpt><trkpt lat="43.78070149189556" lon="10.97751792957605"><ele>359.42857142857144</ele><time>2026-05-03T09:24:44Z</time></trkpt><trkpt lat="43.7807705198622" lon="10.977530303548116"><ele>361.2857142857143</ele><time>2026-05-03T09:24:48Z</time></trkpt><trkpt lat="43.78084391343215" lon="10.977537532027165"><ele>363.14285714285717</ele><time>2026-05-03T09:24:52Z</time></trkpt><trkpt lat="43.780913446976" lon="10.977529141678302"><ele>365.0</ele><time>2026-05-03T09:24:56Z</time></trkpt><trkpt lat="43.78098285352675" lon="10.977526412782499"><ele>364.5714285714286</ele><time>2026-05-03T09:25:00Z</time></trkpt><trkpt lat="43.7810557772219" lon="10.977512353414909"><ele>364.14285714285717</ele><time>2026-05-03T09:25:04Z</time></trkpt><trkpt lat="43.781119758555626" lon="10.977490536201639"><ele>363.7142857142857</ele><time>2026-05-03T09:25:07.999Z</time></trkpt><trkpt lat="43.7811877020307" lon="10.977474740165881"><ele>363.28571428571433</ele><time>2026-05-03T09:25:11.999Z</time></trkpt><trkpt lat="43.7812546573626" lon="10.97745342529281"><ele>362.85714285714283</ele><time>2026-05-03T09:25:15.999Z</time></trkpt><trkpt lat="43.7813276535619" lon="10.977445260946864"><ele>362.42857142857144</ele><time>2026-05-03T09:25:19.999Z</time></trkpt><trkpt lat="43.78139014420741" lon="10.977421033497212"><ele>362.0</ele><time>2026-05-03T09:25:23.999Z</time></trkpt><trkpt lat="43.781454910166595" lon="10.977397452591529"><ele>362.0</ele><time>2026-05-03T09:25:27.999Z</time></trkpt><trkpt lat="43.78152569984209" lon="10.977369017841557"><ele>362.0</ele><time>2026-05-03T09:25:31.999Z</time></trkpt><trkpt lat="43.781590654669024" lon="10.977341241612216"><ele>362.0</ele><time>2026-05-03T09:25:35.999Z</time></trkpt><trkpt lat="43.78165825051662" lon="10.977320537643964"><ele>362.0</ele><time>2026-05-03T09:25:39.999Z</time></trkpt><trkpt lat="43.78172611331372" lon="10.977307836465931"><ele>362.0</ele><time>2026-05-03T09:25:43.999Z</time></trkpt><trkpt lat="43.78179050499547" lon="10.977281410536532"><ele>362.0</ele><time>2026-05-03T09:25:47.999Z</time></trkpt><trkpt lat="43.78185729370485" lon="10.977249132401896"><ele>362.0</ele><time>2026-05-03T09:25:51.999Z</time></trkpt><trkpt lat="43.78191968334216" lon="10.977231883709901"><ele>363.1428571428571</ele><time>2026-05-03T09:25:55.999Z</time></trkpt><trkpt lat="43.781985227190205" lon="10.977207557776227"><ele>364.2857142857143</ele><time>2026-05-03T09:25:59.999Z</time></trkpt><trkpt lat="43.782049948727796" lon="10.977205829790204"><ele>365.42857142857144</ele><time>2026-05-03T09:26:03.999Z</time></trkpt><trkpt lat="43.78212065050398" lon="10.977200268123743"><ele>366.57142857142856</ele><time>2026-05-03T09:26:07.999Z</time></trkpt><trkpt lat="43.78218969096827" lon="10.97721277958352"><ele>367.7142857142857</ele><time>2026-05-03T09:26:11.999Z</time></trkpt><trkpt lat="43.78225545638019" lon="10.977246595002416"><ele>368.85714285714283</ele><time>2026-05-03T09:26:16Z</time></trkpt><trkpt lat="43.78232306988766" lon="10.977287775456137"><ele>370.0</ele><time>2026-05-03T09:26:20Z</time></trkpt><trkpt lat="43.782383086401985" lon="10.977330880591508"><ele>369.99999999999994</ele><time>2026-05-03T09:26:24Z</time></trkpt><trkpt lat="43.78243521345634" lon="10.977405807079121"><ele>370.0</ele><time>2026-05-03T09:26:30Z</time></trkpt><trkpt lat="43.78250324154188" lon="10.977447329481095"><ele>370.0</ele><time>2026-05-03T09:26:36Z</time></trkpt><trkpt lat="43.78256021889562" lon="10.977491713914173"><ele>370.0</ele><time>2026-05-03T09:26:41Z</time></trkpt><trkpt lat="43.7826329738584" lon="10.977522199903571"><ele>370.0</ele><time>2026-05-03T09:26:47Z</time></trkpt><trkpt lat="43.78270236656439" lon="10.97753786066809"><ele>369.99999999999994</ele><time>2026-05-03T09:26:51Z</time></trkpt><trkpt lat="43.78276949626782" lon="10.977554065907148"><ele>370.0</ele><time>2026-05-03T09:26:55Z</time></trkpt><trkpt lat="43.78283414904259" lon="10.977564776733757"><ele>368.2857142857143</ele><time>2026-05-03T09:26:59Z</time></trkpt><trkpt lat="43.78290257347627" lon="10.977574275838284"><ele>366.57142857142856</ele><time>2026-05-03T09:27:03Z</time></trkpt><trkpt lat="43.78297511808864" lon="10.977594206489714"><ele>364.8571428571429</ele><time>2026-05-03T09:27:07Z</time></trkpt><trkpt lat="43.783037309400974" lon="10.977614288892745"><ele>363.1428571428571</ele><time>2026-05-03T09:27:10.999Z</time></trkpt><trkpt lat="43.783100727924236" lon="10.977615218957773"><ele>361.42857142857144</ele><time>2026-05-03T09:27:14.999Z</time></trkpt><trkpt lat="43.78317244300714" lon="10.97762913057773"><ele>359.7142857142857</ele><time>2026-05-03T09:27:18.999Z</time></trkpt><trkpt lat="43.783250877979185" lon="10.977617383491086"><ele>358.0</ele><time>2026-05-03T09:27:23.999Z</time></trkpt><trkpt lat="43.783315658819745" lon="10.977593378109749"><ele>358.00000000000006</ele><time>2026-05-03T09:27:27.999Z</time></trkpt><trkpt lat="43.783379081413116" lon="10.977567790261618"><ele>358.0</ele><time>2026-05-03T09:27:31.999Z</time></trkpt><trkpt lat="43.78344241443308" lon="10.977540844423585"><ele>358.0</ele><time>2026-05-03T09:27:35.999Z</time></trkpt><trkpt lat="43.78350722541587" lon="10.977511883392566"><ele>358.0</ele><time>2026-05-03T09:27:39.999Z</time></trkpt><trkpt lat="43.783577555838804" lon="10.977485919127673"><ele>358.0</ele><time>2026-05-03T09:27:43.999Z</time></trkpt><trkpt lat="43.78364749701467" lon="10.977469642590538"><ele>358.00000000000006</ele><time>2026-05-03T09:27:47.999Z</time></trkpt><trkpt lat="43.783717929895495" lon="10.977438999819631"><ele>358.0</ele><time>2026-05-03T09:27:51.999Z</time></trkpt><trkpt lat="43.78378706133581" lon="10.977409577717083"><ele>361.14285714285717</ele><time>2026-05-03T09:27:55.999Z</time></trkpt><trkpt lat="43.783853978238824" lon="10.97738458480622"><ele>364.2857142857143</ele><time>2026-05-03T09:27:59.999Z</time></trkpt><trkpt lat="43.78392625437358" lon="10.977369694235277"><ele>367.42857142857144</ele><time>2026-05-03T09:28:03.999Z</time></trkpt><trkpt lat="43.78399673969899" lon="10.977353787950847"><ele>370.57142857142856</ele><time>2026-05-03T09:28:07.999Z</time></trkpt><trkpt lat="43.784061564272136" lon="10.977339281151787"><ele>373.7142857142857</ele><time>2026-05-03T09:28:11.999Z</time></trkpt><trkpt lat="43.78413471321889" lon="10.977341350121671"><ele>376.8571428571429</ele><time>2026-05-03T09:28:15.999Z</time></trkpt><trkpt lat="43.784210036088986" lon="10.977331208819768"><ele>380.0</ele><time>2026-05-03T09:28:19.999Z</time></trkpt><trkpt lat="43.78427931799994" lon="10.977331378969215"><ele>381.7142857142857</ele><time>2026-05-03T09:28:23.999Z</time></trkpt><trkpt lat="43.784355242197506" lon="10.977329807730195"><ele>383.42857142857144</ele><time>2026-05-03T09:28:27.999Z</time></trkpt><trkpt lat="43.784427955869134" lon="10.97733862651914"><ele>385.1428571428571</ele><time>2026-05-03T09:28:31.999Z</time></trkpt><trkpt lat="43.784498371667816" lon="10.977329149251958"><ele>386.8571428571429</ele><time>2026-05-03T09:28:35.999Z</time></trkpt><trkpt lat="43.78456760929307" lon="10.977331676989794"><ele>388.57142857142856</ele><time>2026-05-03T09:28:39.999Z</time></trkpt><trkpt lat="43.784648383505505" lon="10.977352805258281"><ele>390.2857142857143</ele><time>2026-05-03T09:28:44.999Z</time></trkpt><trkpt lat="43.78471144568089" lon="10.977352752086633"><ele>392.0</ele><time>2026-05-03T09:28:47.999Z</time></trkpt><trkpt lat="43.78478145855476" lon="10.977381339331695"><ele>391.99999999999994</ele><time>2026-05-03T09:28:51.999Z</time></trkpt><trkpt lat="43.78485453896612" lon="10.977400157204318"><ele>392.0</ele><time>2026-05-03T09:28:55.999Z</time></trkpt><trkpt lat="43.78492065759204" lon="10.977433861907114"><ele>392.0</ele><time>2026-05-03T09:28:59.999Z</time></trkpt><trkpt lat="43.784993790167725" lon="10.977463922994062"><ele>392.0</ele><time>2026-05-03T09:29:03.999Z</time></trkpt><trkpt lat="43.78506082362382" lon="10.977483477491612"><ele>391.99999999999994</ele><time>2026-05-03T09:29:07.999Z</time></trkpt><trkpt lat="43.7851386376302" lon="10.977521525713472"><ele>392.0</ele><time>2026-05-03T09:29:11.999Z</time></trkpt><trkpt lat="43.785211816490786" lon="10.977570051139871"><ele>395.66666666666663</ele><time>2026-05-03T09:29:15.999Z</time></trkpt><trkpt lat="43.78528285415114" lon="10.977609452557347"><ele>399.3333333333333</ele><time>2026-05-03T09:29:19.999Z</time></trkpt><trkpt lat="43.785333468335295" lon="10.977716721761091"><ele>403.0</ele><time>2026-05-03T09:29:23.999Z</time></trkpt><trkpt lat="43.785352219405674" lon="10.977806626516625"><ele>406.66666666666663</ele><time>2026-05-03T09:29:26.998Z</time></trkpt><trkpt lat="43.78536908250021" lon="10.977903162574625"><ele>410.3333333333333</ele><time>2026-05-03T09:29:30.998Z</time></trkpt><trkpt lat="43.78531227680811" lon="10.977973222071778"><ele>414.0</ele><time>2026-05-03T09:29:37.998Z</time></trkpt><trkpt lat="43.785244824536285" lon="10.978016571146847"><ele>411.42857142857144</ele><time>2026-05-03T09:29:42.998Z</time></trkpt><trkpt lat="43.78516708491556" lon="10.97803062325414"><ele>408.8571428571429</ele><time>2026-05-03T09:29:46.998Z</time></trkpt><trkpt lat="43.78509944438231" lon="10.978029736083327"><ele>406.28571428571433</ele><time>2026-05-03T09:29:49.998Z</time></trkpt><trkpt lat="43.785025948746615" lon="10.978062766311538"><ele>403.7142857142857</ele><time>2026-05-03T09:29:53.998Z</time></trkpt><trkpt lat="43.784962027041885" lon="10.978115116815374"><ele>401.1428571428571</ele><time>2026-05-03T09:29:57.998Z</time></trkpt><trkpt lat="43.78489266728177" lon="10.978157227850247"><ele>398.5714285714286</ele><time>2026-05-03T09:30:01.998Z</time></trkpt><trkpt lat="43.78484049226736" lon="10.978207244718327"><ele>396.0</ele><time>2026-05-03T09:30:04.998Z</time></trkpt><trkpt lat="43.78478590389085" lon="10.978284303015846"><ele>398.7142857142857</ele><time>2026-05-03T09:30:08.998Z</time></trkpt><trkpt lat="43.78473694722464" lon="10.97835769138435"><ele>401.4285714285714</ele><time>2026-05-03T09:30:12.998Z</time></trkpt><trkpt lat="43.784688557988545" lon="10.978436333559351"><ele>404.1428571428571</ele><time>2026-05-03T09:30:16.998Z</time></trkpt><trkpt lat="43.784646013784354" lon="10.978502326174064"><ele>406.8571428571429</ele><time>2026-05-03T09:30:19.998Z</time></trkpt><trkpt lat="43.78459894111121" lon="10.978588871244046"><ele>409.57142857142856</ele><time>2026-05-03T09:30:23.998Z</time></trkpt><trkpt lat="43.784546958159794" lon="10.978659255849934"><ele>412.2857142857143</ele><time>2026-05-03T09:30:27.998Z</time></trkpt><trkpt lat="43.78449990721069" lon="10.978736830567726"><ele>415.0</ele><time>2026-05-03T09:30:31.998Z</time></trkpt><trkpt lat="43.78445540169692" lon="10.97882865550138"><ele>415.00000000000006</ele><time>2026-05-03T09:30:35.998Z</time></trkpt><trkpt lat="43.784421523365694" lon="10.978929784433458"><ele>415.0</ele><time>2026-05-03T09:30:39.998Z</time></trkpt><trkpt lat="43.78437889809947" lon="10.97902254948222"><ele>415.0</ele><time>2026-05-03T09:30:43.998Z</time></trkpt><trkpt lat="43.78435499889725" lon="10.97910352503511"><ele>415.0</ele><time>2026-05-03T09:30:46.998Z</time></trkpt><trkpt lat="43.78434888020507" lon="10.979216209635203"><ele>415.00000000000006</ele><time>2026-05-03T09:30:50.998Z</time></trkpt><trkpt lat="43.78436793119027" lon="10.979317736985852"><ele>415.0</ele><time>2026-05-03T09:30:54.998Z</time></trkpt><trkpt lat="43.784382556615206" lon="10.979420981775005"><ele>414.0</ele><time>2026-05-03T09:30:58.998Z</time></trkpt><trkpt lat="43.7843964799071" lon="10.979530133470016"><ele>413.0</ele><time>2026-05-03T09:31:02.998Z</time></trkpt><trkpt lat="43.78440210705082" lon="10.979618226624673"><ele>412.0</ele><time>2026-05-03T09:31:05.998Z</time></trkpt><trkpt lat="43.78439733776445" lon="10.979722440413443"><ele>411.0</ele><time>2026-05-03T09:31:09.998Z</time></trkpt><trkpt lat="43.78436199694995" lon="10.979820932701697"><ele>410.0</ele><time>2026-05-03T09:31:13.998Z</time></trkpt><trkpt lat="43.784322534230306" lon="10.979893556054474"><ele>409.0</ele><time>2026-05-03T09:31:16.998Z</time></trkpt><trkpt lat="43.78425784161593" lon="10.979962388861903"><ele>408.0</ele><time>2026-05-03T09:31:20.998Z</time></trkpt><trkpt lat="43.78418418121382" lon="10.980018724717004"><ele>408.0</ele><time>2026-05-03T09:31:24.998Z</time></trkpt><trkpt lat="43.78412605835139" lon="10.980101858121651"><ele>408.0</ele><time>2026-05-03T09:31:28.998Z</time></trkpt><trkpt lat="43.78406569134124" lon="10.980171597483345"><ele>408.0</ele><time>2026-05-03T09:31:32.998Z</time></trkpt><trkpt lat="43.7840210880419" lon="10.98025520329996"><ele>408.0</ele><time>2026-05-03T09:31:36.998Z</time></trkpt><trkpt lat="43.783988133058" lon="10.9803312206967"><ele>408.0</ele><time>2026-05-03T09:31:39.997Z</time></trkpt><trkpt lat="43.78395479490055" lon="10.98042562216585"><ele>408.0</ele><time>2026-05-03T09:31:43.997Z</time></trkpt><trkpt lat="43.78393808234001" lon="10.980525789001874"><ele>408.0</ele><time>2026-05-03T09:31:47.997Z</time></trkpt><trkpt lat="43.78393180864077" lon="10.980635385248053"><ele>408.0</ele><time>2026-05-03T09:31:51.997Z</time></trkpt><trkpt lat="43.78392333646027" lon="10.980738198032414"><ele>408.0</ele><time>2026-05-03T09:31:55.997Z</time></trkpt><trkpt lat="43.783942110735374" lon="10.980839700501617"><ele>408.0</ele><time>2026-05-03T09:31:59.997Z</time></trkpt><trkpt lat="43.78394774887387" lon="10.98094447927094"><ele>408.0</ele><time>2026-05-03T09:32:03.997Z</time></trkpt><trkpt lat="43.78394782130325" lon="10.98105133149593"><ele>408.0</ele><time>2026-05-03T09:32:07.997Z</time></trkpt><trkpt lat="43.78396831271724" lon="10.981159070346642"><ele>407.6666666666667</ele><time>2026-05-03T09:32:11.997Z</time></trkpt><trkpt lat="43.783974835002034" lon="10.981267168116107"><ele>407.33333333333337</ele><time>2026-05-03T09:32:15.997Z</time></trkpt><trkpt lat="43.783978064313615" lon="10.981355102074192"><ele>407.0</ele><time>2026-05-03T09:32:18.997Z</time></trkpt><trkpt lat="43.78399917783969" lon="10.981463922371018"><ele>406.6666666666667</ele><time>2026-05-03T09:32:22.997Z</time></trkpt><trkpt lat="43.784007130075835" lon="10.981572188479872"><ele>406.33333333333337</ele><time>2026-05-03T09:32:26.997Z</time></trkpt><trkpt lat="43.78403133080796" lon="10.981664063345399"><ele>406.0</ele><time>2026-05-03T09:32:30.997Z</time></trkpt><trkpt lat="43.784065139119896" lon="10.981761598724926"><ele>405.0</ele><time>2026-05-03T09:32:34.997Z</time></trkpt><trkpt lat="43.78409819206825" lon="10.981852258402668"><ele>404.0</ele><time>2026-05-03T09:32:38.997Z</time></trkpt><trkpt lat="43.78413269212552" lon="10.981943153092246"><ele>403.0</ele><time>2026-05-03T09:32:42.997Z</time></trkpt><trkpt lat="43.78416344713808" lon="10.982036354132374"><ele>402.0</ele><time>2026-05-03T09:32:46.997Z</time></trkpt><trkpt lat="43.78417363118101" lon="10.9821344193023"><ele>401.0</ele><time>2026-05-03T09:32:50.997Z</time></trkpt><trkpt lat="43.78420227756496" lon="10.982226632539506"><ele>400.0</ele><time>2026-05-03T09:32:54.997Z</time></trkpt><trkpt lat="43.784235716179275" lon="10.982320632157556"><ele>399.0</ele><time>2026-05-03T09:32:58.997Z</time></trkpt><trkpt lat="43.78427313371049" lon="10.982410263796407"><ele>399.0</ele><time>2026-05-03T09:33:02.997Z</time></trkpt><trkpt lat="43.7842907227401" lon="10.982495707815037"><ele>399.0</ele><time>2026-05-03T09:33:05.997Z</time></trkpt><trkpt lat="43.78433132760375" lon="10.982581385898742"><ele>399.0</ele><time>2026-05-03T09:33:09.997Z</time></trkpt><trkpt lat="43.78437040553224" lon="10.982664947205727"><ele>399.0</ele><time>2026-05-03T09:33:13.997Z</time></trkpt><trkpt lat="43.78442027517074" lon="10.982747662855232"><ele>399.0</ele><time>2026-05-03T09:33:17.997Z</time></trkpt><trkpt lat="43.78446591019788" lon="10.982835666305952"><ele>399.0</ele><time>2026-05-03T09:33:21.997Z</time></trkpt><trkpt lat="43.78452253255029" lon="10.982900041808017"><ele>399.0</ele><time>2026-05-03T09:33:25.997Z</time></trkpt><trkpt lat="43.7845635953789" lon="10.982989502194659"><ele>400.85714285714283</ele><time>2026-05-03T09:33:29.997Z</time></trkpt><trkpt lat="43.784611069803965" lon="10.983068297077109"><ele>402.7142857142857</ele><time>2026-05-03T09:33:33.997Z</time></trkpt><trkpt lat="43.78465575905322" lon="10.983151693786729"><ele>404.57142857142856</ele><time>2026-05-03T09:33:37.997Z</time></trkpt><trkpt lat="43.78470493833625" lon="10.983233116629052"><ele>406.42857142857144</ele><time>2026-05-03T09:33:41.997Z</time></trkpt><trkpt lat="43.784755979094875" lon="10.983306734908082"><ele>408.2857142857143</ele><time>2026-05-03T09:33:45.997Z</time></trkpt><trkpt lat="43.784793403915494" lon="10.983393781675105"><ele>410.1428571428571</ele><time>2026-05-03T09:33:49.997Z</time></trkpt><trkpt lat="43.784836308644266" lon="10.983477311313303"><ele>412.0</ele><time>2026-05-03T09:33:53.997Z</time></trkpt><trkpt lat="43.78488498272006" lon="10.98355940592789"><ele>411.99999999999994</ele><time>2026-05-03T09:33:57.996Z</time></trkpt><trkpt lat="43.78491308358921" lon="10.983650912503126"><ele>412.0</ele><time>2026-05-03T09:34:01.996Z</time></trkpt><trkpt lat="43.78494785353076" lon="10.983737326411108"><ele>412.0</ele><time>2026-05-03T09:34:05.996Z</time></trkpt><trkpt lat="43.784996669266626" lon="10.983805570607165"><ele>412.0</ele><time>2026-05-03T09:34:09.996Z</time></trkpt><trkpt lat="43.78501252373955" lon="10.983907646640764"><ele>412.0</ele><time>2026-05-03T09:34:13.996Z</time></trkpt><trkpt lat="43.78504225617712" lon="10.984007612755908"><ele>411.99999999999994</ele><time>2026-05-03T09:34:17.996Z</time></trkpt><trkpt lat="43.78506723862385" lon="10.984105077165179"><ele>412.0</ele><time>2026-05-03T09:34:21.996Z</time></trkpt><trkpt lat="43.785094228790975" lon="10.984202369180434"><ele>412.2857142857143</ele><time>2026-05-03T09:34:25.996Z</time></trkpt><trkpt lat="43.785105304312665" lon="10.984299712197721"><ele>412.57142857142856</ele><time>2026-05-03T09:34:29.996Z</time></trkpt><trkpt lat="43.78511756244308" lon="10.984394649693616"><ele>412.8571428571429</ele><time>2026-05-03T09:34:33.996Z</time></trkpt><trkpt lat="43.7851353088578" lon="10.984496252823522"><ele>413.1428571428571</ele><time>2026-05-03T09:34:37.996Z</time></trkpt><trkpt lat="43.78515579929999" lon="10.98459618464909"><ele>413.42857142857144</ele><time>2026-05-03T09:34:41.996Z</time></trkpt><trkpt lat="43.78516849799469" lon="10.98469235058764"><ele>413.7142857142857</ele><time>2026-05-03T09:34:45.996Z</time></trkpt><trkpt lat="43.78517440023186" lon="10.984785023291051"><ele>414.0</ele><time>2026-05-03T09:34:49.996Z</time></trkpt><trkpt lat="43.785182192985964" lon="10.984881534296873"><ele>415.00000000000006</ele><time>2026-05-03T09:34:53.996Z</time></trkpt><trkpt lat="43.78518521870151" lon="10.984986115376884"><ele>416.0</ele><time>2026-05-03T09:34:57.996Z</time></trkpt><trkpt lat="43.7851912785957" lon="10.98509358469467"><ele>417.0</ele><time>2026-05-03T09:35:01.996Z</time></trkpt><trkpt lat="43.785191048908885" lon="10.985195525845384"><ele>418.0</ele><time>2026-05-03T09:35:05.996Z</time></trkpt><trkpt lat="43.78518747550755" lon="10.985288958501343"><ele>419.0</ele><time>2026-05-03T09:35:09.996Z</time></trkpt><trkpt lat="43.78517341708334" lon="10.985388860375988"><ele>420.00000000000006</ele><time>2026-05-03T09:35:13.996Z</time></trkpt><trkpt lat="43.785152873542515" lon="10.98548224132073"><ele>421.0</ele><time>2026-05-03T09:35:17.996Z</time></trkpt><trkpt lat="43.785120457523114" lon="10.985565681827355"><ele>421.00000000000006</ele><time>2026-05-03T09:35:21.996Z</time></trkpt><trkpt lat="43.785113491293394" lon="10.985658002715796"><ele>421.0</ele><time>2026-05-03T09:35:25.996Z</time></trkpt><trkpt lat="43.78517566634092" lon="10.985712247303045"><ele>421.0</ele><time>2026-05-03T09:35:29.996Z</time></trkpt><trkpt lat="43.78524826034703" lon="10.985724950712026"><ele>421.0</ele><time>2026-05-03T09:35:36.996Z</time></trkpt><trkpt lat="43.78531568083887" lon="10.985708606232764"><ele>421.0</ele><time>2026-05-03T09:35:42.996Z</time></trkpt><trkpt lat="43.785368861023436" lon="10.98564985576551"><ele>421.00000000000006</ele><time>2026-05-03T09:35:48.996Z</time></trkpt><trkpt lat="43.785417763794555" lon="10.985575422893035"><ele>421.0</ele><time>2026-05-03T09:35:55.996Z</time></trkpt><trkpt lat="43.78547386663605" lon="10.985501728097683"><ele>422.8571428571429</ele><time>2026-05-03T09:36:01.996Z</time></trkpt><trkpt lat="43.78550785720026" lon="10.985413229660681"><ele>424.7142857142857</ele><time>2026-05-03T09:36:08.996Z</time></trkpt><trkpt lat="43.785556992600284" lon="10.985347108907645"><ele>426.57142857142856</ele><time>2026-05-03T09:36:15.995Z</time></trkpt><trkpt lat="43.78559472992629" lon="10.985275275874494"><ele>428.42857142857144</ele><time>2026-05-03T09:36:20.995Z</time></trkpt><trkpt lat="43.78563708851723" lon="10.985192754735166"><ele>430.2857142857143</ele><time>2026-05-03T09:36:26.995Z</time></trkpt><trkpt lat="43.785696966050004" lon="10.985128544384365"><ele>432.14285714285717</ele><time>2026-05-03T09:36:32.995Z</time></trkpt><trkpt lat="43.7857179962097" lon="10.985041192929684"><ele>434.0</ele><time>2026-05-03T09:36:38.995Z</time></trkpt><trkpt lat="43.78575991782329" lon="10.984970859081685"><ele>434.2857142857143</ele><time>2026-05-03T09:36:46.995Z</time></trkpt><trkpt lat="43.78578305715544" lon="10.984881166331089"><ele>434.57142857142856</ele><time>2026-05-03T09:36:53.995Z</time></trkpt><trkpt lat="43.78579953159022" lon="10.984782810891852"><ele>434.8571428571429</ele><time>2026-05-03T09:36:59.995Z</time></trkpt><trkpt lat="43.78584536464461" lon="10.9847126085984"><ele>435.1428571428571</ele><time>2026-05-03T09:37:08.995Z</time></trkpt><trkpt lat="43.785859979788796" lon="10.984611735771542"><ele>435.42857142857144</ele><time>2026-05-03T09:37:14.995Z</time></trkpt><trkpt lat="43.785913814264674" lon="10.984538679780227"><ele>435.7142857142857</ele><time>2026-05-03T09:37:22.995Z</time></trkpt><trkpt lat="43.78591436621734" lon="10.984447538748368"><ele>436.0</ele><time>2026-05-03T09:37:29.995Z</time></trkpt><trkpt lat="43.78594552494734" lon="10.98436222704521"><ele>436.0</ele><time>2026-05-03T09:37:34.995Z</time></trkpt><trkpt lat="43.78592029911908" lon="10.984276171058188"><ele>436.0</ele><time>2026-05-03T09:37:40.995Z</time></trkpt><trkpt lat="43.78589382962351" lon="10.984181681499638"><ele>436.0</ele><time>2026-05-03T09:37:46.995Z</time></trkpt><trkpt lat="43.78590556769199" lon="10.984081981543694"><ele>436.0</ele><time>2026-05-03T09:37:53.995Z</time></trkpt><trkpt lat="43.78589906053946" lon="10.983992443950282"><ele>436.0</ele><time>2026-05-03T09:37:59.995Z</time></trkpt><trkpt lat="43.78590064430841" lon="10.983885999307581"><ele>436.0</ele><time>2026-05-03T09:38:06.995Z</time></trkpt><trkpt lat="43.78593739524627" lon="10.983797063803792"><ele>436.0</ele><time>2026-05-03T09:38:12.995Z</time></trkpt><trkpt lat="43.7859429392368" lon="10.983706528471906"><ele>436.2857142857143</ele><time>2026-05-03T09:38:18.995Z</time></trkpt><trkpt lat="43.78596294578232" lon="10.983620602388157"><ele>436.57142857142856</ele><time>2026-05-03T09:38:24.994Z</time></trkpt><trkpt lat="43.78599142950969" lon="10.983534861117432"><ele>436.8571428571429</ele><time>2026-05-03T09:38:32.994Z</time></trkpt><trkpt lat="43.78599889191575" lon="10.983436458057657"><ele>437.1428571428571</ele><time>2026-05-03T09:38:38.994Z</time></trkpt><trkpt lat="43.786015027281515" lon="10.983349333056205"><ele>437.4285714285714</ele><time>2026-05-03T09:38:43.994Z</time></trkpt><trkpt lat="43.78601307173425" lon="10.983260532148808"><ele>437.7142857142857</ele><time>2026-05-03T09:38:49.994Z</time></trkpt><trkpt lat="43.78600109093451" lon="10.983171264832055"><ele>438.0</ele><time>2026-05-03T09:38:54.994Z</time></trkpt><trkpt lat="43.785973320867534" lon="10.983087287427017"><ele>439.2857142857143</ele><time>2026-05-03T09:39:01.994Z</time></trkpt><trkpt lat="43.78593492270712" lon="10.983009992083984"><ele>440.57142857142856</ele><time>2026-05-03T09:39:07.994Z</time></trkpt><trkpt lat="43.78592955730165" lon="10.98290857519933"><ele>441.85714285714283</ele><time>2026-05-03T09:39:14.994Z</time></trkpt><trkpt lat="43.785957095666475" lon="10.982818331099994"><ele>443.1428571428571</ele><time>2026-05-03T09:39:22.994Z</time></trkpt><trkpt lat="43.7860277644829" lon="10.982813885979438"><ele>444.42857142857144</ele><time>2026-05-03T09:39:32.994Z</time></trkpt><trkpt lat="43.78608421480484" lon="10.982870739347568"><ele>445.71428571428567</ele><time>2026-05-03T09:39:38.994Z</time></trkpt><trkpt lat="43.78613720043791" lon="10.98293853678457"><ele>447.0</ele><time>2026-05-03T09:39:45.994Z</time></trkpt><trkpt lat="43.786192536690635" lon="10.982999489347984"><ele>449.4285714285714</ele><time>2026-05-03T09:39:51.994Z</time></trkpt><trkpt lat="43.78624117849349" lon="10.983066386418859"><ele>451.8571428571429</ele><time>2026-05-03T09:39:57.994Z</time></trkpt><trkpt lat="43.78630100436443" lon="10.983125477052784"><ele>454.28571428571433</ele><time>2026-05-03T09:40:04.994Z</time></trkpt><trkpt lat="43.786343882512064" lon="10.983194283235443"><ele>456.7142857142857</ele><time>2026-05-03T09:40:09.994Z</time></trkpt><trkpt lat="43.78638545246934" lon="10.983268994673201"><ele>459.14285714285717</ele><time>2026-05-03T09:40:14.994Z</time></trkpt><trkpt lat="43.786424342148415" lon="10.983343785572748"><ele>461.5714285714286</ele><time>2026-05-03T09:40:21.994Z</time></trkpt><trkpt lat="43.78646474499286" lon="10.98343867166812"><ele>464.00000000000006</ele><time>2026-05-03T09:40:26.994Z</time></trkpt><trkpt lat="43.78650168625072" lon="10.983513251856413"><ele>464.00000000000006</ele><time>2026-05-03T09:40:31.994Z</time></trkpt><trkpt lat="43.786527425900324" lon="10.98359384832252"><ele>464.0</ele><time>2026-05-03T09:40:37.994Z</time></trkpt><trkpt lat="43.786571975504486" lon="10.983671429266932"><ele>464.00000000000006</ele><time>2026-05-03T09:40:42.993Z</time></trkpt><trkpt lat="43.78662185190376" lon="10.983730620320769"><ele>464.00000000000006</ele><time>2026-05-03T09:40:46.993Z</time></trkpt><trkpt lat="43.786666232330404" lon="10.98380989229535"><ele>464.0</ele><time>2026-05-03T09:40:51.993Z</time></trkpt><trkpt lat="43.786712575094775" lon="10.983880775716107"><ele>464.00000000000006</ele><time>2026-05-03T09:40:56.993Z</time></trkpt><trkpt lat="43.78676552128161" lon="10.983952196446936"><ele>464.00000000000006</ele><time>2026-05-03T09:41:01.993Z</time></trkpt><trkpt lat="43.78680263860186" lon="10.984023639340478"><ele>466.00000000000006</ele><time>2026-05-03T09:41:06.993Z</time></trkpt><trkpt lat="43.78684573997869" lon="10.984090906626687"><ele>468.0</ele><time>2026-05-03T09:41:10.993Z</time></trkpt><trkpt lat="43.78688897101758" lon="10.98417066489821"><ele>470.00000000000006</ele><time>2026-05-03T09:41:15.993Z</time></trkpt><trkpt lat="43.7869278443901" lon="10.984261120127364"><ele>472.00000000000006</ele><time>2026-05-03T09:41:20.993Z</time></trkpt><trkpt lat="43.7869720481952" lon="10.984340967578854"><ele>474.0</ele><time>2026-05-03T09:41:25.993Z</time></trkpt><trkpt lat="43.78701586111344" lon="10.984422321448742"><ele>476.00000000000006</ele><time>2026-05-03T09:41:30.993Z</time></trkpt><trkpt lat="43.787059777159605" lon="10.984512272127782"><ele>478.00000000000006</ele><time>2026-05-03T09:41:34.993Z</time></trkpt><trkpt lat="43.787094757494245" lon="10.98460301672761"><ele>478.00000000000006</ele><time>2026-05-03T09:41:37.993Z</time></trkpt><trkpt lat="43.78713305688622" lon="10.984681602947164"><ele>478.0</ele><time>2026-05-03T09:41:40.993Z</time></trkpt><trkpt lat="43.78716460967415" lon="10.984759158802293"><ele>478.0</ele><time>2026-05-03T09:41:43.993Z</time></trkpt><trkpt lat="43.78720598550039" lon="10.984857488838811"><ele>478.0</ele><time>2026-05-03T09:41:47.993Z</time></trkpt><trkpt lat="43.78725481659628" lon="10.984943661585437"><ele>478.00000000000006</ele><time>2026-05-03T09:41:51.993Z</time></trkpt><trkpt lat="43.78730825252919" lon="10.985029749639386"><ele>478.0</ele><time>2026-05-03T09:41:55.993Z</time></trkpt><trkpt lat="43.78735441518524" lon="10.985114444119596"><ele>476.6666666666667</ele><time>2026-05-03T09:41:59.993Z</time></trkpt><trkpt lat="43.78739401967805" lon="10.985207999266272"><ele>475.33333333333337</ele><time>2026-05-03T09:42:03.993Z</time></trkpt><trkpt lat="43.78743887763793" lon="10.985299635434382"><ele>474.0</ele><time>2026-05-03T09:42:07.993Z</time></trkpt><trkpt lat="43.787495940897436" lon="10.985381736272634"><ele>472.66666666666663</ele><time>2026-05-03T09:42:11.993Z</time></trkpt><trkpt lat="43.7875450445781" lon="10.985463453927194"><ele>471.3333333333333</ele><time>2026-05-03T09:42:15.993Z</time></trkpt><trkpt lat="43.78759741601541" lon="10.985549420577753"><ele>470.0</ele><time>2026-05-03T09:42:19.993Z</time></trkpt><trkpt lat="43.78765752422485" lon="10.985624769790116"><ele>469.8333333333333</ele><time>2026-05-03T09:42:23.993Z</time></trkpt><trkpt lat="43.78770006921716" lon="10.985714408898136"><ele>469.66666666666663</ele><time>2026-05-03T09:42:27.993Z</time></trkpt><trkpt lat="43.787755418421476" lon="10.985782518840727"><ele>469.5</ele><time>2026-05-03T09:42:31.993Z</time></trkpt><trkpt lat="43.787808679655996" lon="10.98585949776694"><ele>469.33333333333337</ele><time>2026-05-03T09:42:35.993Z</time></trkpt><trkpt lat="43.787859016983454" lon="10.985931529415366"><ele>469.1666666666667</ele><time>2026-05-03T09:42:39.993Z</time></trkpt><trkpt lat="43.787920575889835" lon="10.985995756274022"><ele>469.0</ele><time>2026-05-03T09:42:43.993Z</time></trkpt><trkpt lat="43.78799163801069" lon="10.986038629195908"><ele>469.0</ele><time>2026-05-03T09:42:47.993Z</time></trkpt><trkpt lat="43.788049474575914" lon="10.9860866323962"><ele>469.0</ele><time>2026-05-03T09:42:51.993Z</time></trkpt><trkpt lat="43.78811885500958" lon="10.9860995319984"><ele>469.0</ele><time>2026-05-03T09:42:55.992Z</time></trkpt><trkpt lat="43.78818082286629" lon="10.98606683742523"><ele>469.0</ele><time>2026-05-03T09:42:59.992Z</time></trkpt><trkpt lat="43.78824413592321" lon="10.98603322530839"><ele>469.0</ele><time>2026-05-03T09:43:03.992Z</time></trkpt><trkpt lat="43.788315283455425" lon="10.986001221500112"><ele>469.0</ele><time>2026-05-03T09:43:08.992Z</time></trkpt><trkpt lat="43.78838049051283" lon="10.985964332276177"><ele>469.0</ele><time>2026-05-03T09:43:13.992Z</time></trkpt><trkpt lat="43.78844629467217" lon="10.985935250263603"><ele>469.0</ele><time>2026-05-03T09:43:18.992Z</time></trkpt><trkpt lat="43.7885063168697" lon="10.98588820396631"><ele>469.0</ele><time>2026-05-03T09:43:26.992Z</time></trkpt><trkpt lat="43.78857523257605" lon="10.985837418941871"><ele>469.0</ele><time>2026-05-03T09:43:36.992Z</time></trkpt><trkpt lat="43.78863249977868" lon="10.985790105380236"><ele>469.0</ele><time>2026-05-03T09:43:45.992Z</time></trkpt><trkpt lat="43.78868617049598" lon="10.98572444760587"><ele>469.0</ele><time>2026-05-03T09:43:53.992Z</time></trkpt><trkpt lat="43.7887429611132" lon="10.98567703681733"><ele>469.0</ele><time>2026-05-03T09:44:00.992Z</time></trkpt><trkpt lat="43.788795507515594" lon="10.985621420056754"><ele>469.0</ele><time>2026-05-03T09:44:07.992Z</time></trkpt><trkpt lat="43.78883682749299" lon="10.985542786267787"><ele>470.7142857142857</ele><time>2026-05-03T09:44:13.992Z</time></trkpt><trkpt lat="43.788874376804436" lon="10.985460929454602"><ele>472.42857142857144</ele><time>2026-05-03T09:44:21.992Z</time></trkpt><trkpt lat="43.78891044575454" lon="10.985374260821798"><ele>474.1428571428571</ele><time>2026-05-03T09:44:27.992Z</time></trkpt><trkpt lat="43.78895240506366" lon="10.985293481218086"><ele>475.85714285714283</ele><time>2026-05-03T09:44:33.992Z</time></trkpt><trkpt lat="43.78897731309674" lon="10.985191371725454"><ele>477.57142857142856</ele><time>2026-05-03T09:44:40.992Z</time></trkpt><trkpt lat="43.789007272827" lon="10.985105788861263"><ele>479.2857142857142</ele><time>2026-05-03T09:44:45.992Z</time></trkpt><trkpt lat="43.78905237288658" lon="10.985029497707703"><ele>480.99999999999994</ele><time>2026-05-03T09:44:51.992Z</time></trkpt><trkpt lat="43.78909395804453" lon="10.984944878427688"><ele>482.1428571428571</ele><time>2026-05-03T09:44:57.992Z</time></trkpt><trkpt lat="43.78912877957109" lon="10.984868969528456"><ele>483.2857142857143</ele><time>2026-05-03T09:45:02.992Z</time></trkpt><trkpt lat="43.78915594671981" lon="10.984781046596241"><ele>484.42857142857144</ele><time>2026-05-03T09:45:07.992Z</time></trkpt><trkpt lat="43.78920326251752" lon="10.984705714664765"><ele>485.57142857142856</ele><time>2026-05-03T09:45:13.991Z</time></trkpt><trkpt lat="43.78925659420925" lon="10.9846403457217"><ele>486.7142857142858</ele><time>2026-05-03T09:45:19.991Z</time></trkpt><trkpt lat="43.78930387122542" lon="10.98457892188867"><ele>487.8571428571429</ele><time>2026-05-03T09:45:25.991Z</time></trkpt><trkpt lat="43.78935156022762" lon="10.984518009828191"><ele>489.0</ele><time>2026-05-03T09:45:30.991Z</time></trkpt><trkpt lat="43.78940625662986" lon="10.98443484256565"><ele>489.0</ele><time>2026-05-03T09:45:36.991Z</time></trkpt><trkpt lat="43.7894631617783" lon="10.984388669398617"><ele>489.00000000000006</ele><time>2026-05-03T09:45:41.991Z</time></trkpt><trkpt lat="43.78950998251996" lon="10.98432807283642"><ele>489.0</ele><time>2026-05-03T09:45:47.991Z</time></trkpt><trkpt lat="43.78956342168793" lon="10.984266391579238"><ele>489.0</ele><time>2026-05-03T09:45:54.991Z</time></trkpt><trkpt lat="43.789603136867214" lon="10.984184049104053"><ele>489.00000000000006</ele><time>2026-05-03T09:45:59.991Z</time></trkpt><trkpt lat="43.789646123222965" lon="10.984117403451828"><ele>489.0</ele><time>2026-05-03T09:46:05.991Z</time></trkpt><trkpt lat="43.789694181074374" lon="10.984017576400035"><ele>489.0</ele><time>2026-05-03T09:46:11.991Z</time></trkpt><trkpt lat="43.78972056018162" lon="10.983934373828866"><ele>491.42857142857144</ele><time>2026-05-03T09:46:17.991Z</time></trkpt><trkpt lat="43.78974978939338" lon="10.983852592374555"><ele>493.8571428571429</ele><time>2026-05-03T09:46:23.991Z</time></trkpt><trkpt lat="43.78977159374731" lon="10.983758463859207"><ele>496.28571428571433</ele><time>2026-05-03T09:46:30.999Z</time></trkpt><trkpt lat="43.789801156807314" lon="10.983680917879733"><ele>498.7142857142858</ele><time>2026-05-03T09:46:35.999Z</time></trkpt><trkpt lat="43.78984545117505" lon="10.98360332052094"><ele>501.14285714285717</ele><time>2026-05-03T09:46:41.999Z</time></trkpt><trkpt lat="43.789873559113914" lon="10.983522608886137"><ele>503.57142857142867</ele><time>2026-05-03T09:46:48.999Z</time></trkpt><trkpt lat="43.78992539356431" lon="10.983453769956368"><ele>506.00000000000006</ele><time>2026-05-03T09:46:55.999Z</time></trkpt><trkpt lat="43.78999196144376" lon="10.983444660220826"><ele>506.00000000000006</ele><time>2026-05-03T09:47:02.999Z</time></trkpt><trkpt lat="43.790057164018386" lon="10.983462496493795"><ele>506.0</ele><time>2026-05-03T09:47:07.999Z</time></trkpt><trkpt lat="43.79012012856028" lon="10.983493322358289"><ele>506.00000000000006</ele><time>2026-05-03T09:47:12.999Z</time></trkpt><trkpt lat="43.79018501691446" lon="10.983539128409875"><ele>506.00000000000006</ele><time>2026-05-03T09:47:19Z</time></trkpt><trkpt lat="43.79025227554938" lon="10.983546403619107"><ele>506.0</ele><time>2026-05-03T09:47:24.999Z</time></trkpt><trkpt lat="43.79032290351058" lon="10.983526714042611"><ele>506.00000000000006</ele><time>2026-05-03T09:47:32Z</time></trkpt><trkpt lat="43.79038391541951" lon="10.983503058992634"><ele>506.00000000000006</ele><time>2026-05-03T09:50:56.999Z</time></trkpt><trkpt lat="43.7904729090893" lon="10.983526133607656"><ele>506.4285714285715</ele><time>2026-05-03T09:51:04.999Z</time></trkpt><trkpt lat="43.79053855465808" lon="10.98347762704692"><ele>506.8571428571429</ele><time>2026-05-03T09:51:12.999Z</time></trkpt><trkpt lat="43.79058450313374" lon="10.983402654892656"><ele>507.2857142857143</ele><time>2026-05-03T09:51:23.999Z</time></trkpt><trkpt lat="43.79065264421894" lon="10.983349986819023"><ele>507.7142857142857</ele><time>2026-05-03T09:51:32.999Z</time></trkpt><trkpt lat="43.790707217481454" lon="10.983302980039051"><ele>508.1428571428571</ele><time>2026-05-03T09:51:39.999Z</time></trkpt><trkpt lat="43.79076993507817" lon="10.983276793872696"><ele>508.5714285714285</ele><time>2026-05-03T09:51:46.999Z</time></trkpt><trkpt lat="43.7908298058585" lon="10.983243661374988"><ele>508.99999999999994</ele><time>2026-05-03T09:51:52.999Z</time></trkpt><trkpt lat="43.79090009673876" lon="10.983217567017025"><ele>510.8571428571428</ele><time>2026-05-03T09:52:02.999Z</time></trkpt><trkpt lat="43.79095733409884" lon="10.983177121170076"><ele>512.7142857142857</ele><time>2026-05-03T09:52:09.999Z</time></trkpt><trkpt lat="43.79099375908847" lon="10.98310443326169"><ele>514.5714285714286</ele><time>2026-05-03T09:52:13.999Z</time></trkpt><trkpt lat="43.79105520631411" lon="10.98305941272727"><ele>516.4285714285713</ele><time>2026-05-03T09:52:18.999Z</time></trkpt><trkpt lat="43.791107751708175" lon="10.983001109453296"><ele>518.2857142857142</ele><time>2026-05-03T09:52:23.999Z</time></trkpt><trkpt lat="43.79118659860613" lon="10.982967192560682"><ele>520.1428571428571</ele><time>2026-05-03T09:52:31.999Z</time></trkpt><trkpt lat="43.791236176744526" lon="10.98291009751084"><ele>522.0</ele><time>2026-05-03T09:52:37.999Z</time></trkpt><trkpt lat="43.791289581232434" lon="10.982852794933367"><ele>522.0</ele><time>2026-05-03T09:52:42.999Z</time></trkpt><trkpt lat="43.79135010522101" lon="10.982811846018485"><ele>522.0</ele><time>2026-05-03T09:52:49.999Z</time></trkpt><trkpt lat="43.7914058457788" lon="10.982759916132272"><ele>522.0</ele><time>2026-05-03T09:52:57.999Z</time></trkpt><trkpt lat="43.79145829932655" lon="10.982701827554155"><ele>522.0</ele><time>2026-05-03T09:53:03.999Z</time></trkpt><trkpt lat="43.79151648288498" lon="10.98266159605907"><ele>522.0</ele><time>2026-05-03T09:53:09.999Z</time></trkpt><trkpt lat="43.791577796250245" lon="10.982603544438094"><ele>522.0</ele><time>2026-05-03T09:53:16.999Z</time></trkpt><trkpt lat="43.79163576397168" lon="10.982532089713015"><ele>522.0</ele><time>2026-05-03T09:53:23.999Z</time></trkpt><trkpt lat="43.791686576643805" lon="10.982472570593394"><ele>524.4285714285714</ele><time>2026-05-03T09:53:28.999Z</time></trkpt><trkpt lat="43.791736797476915" lon="10.98240392776231"><ele>526.8571428571429</ele><time>2026-05-03T09:53:34.999Z</time></trkpt><trkpt lat="43.791781156699436" lon="10.982338570283694"><ele>529.2857142857142</ele><time>2026-05-03T09:53:40.998Z</time></trkpt><trkpt lat="43.79183874265044" lon="10.98227331843596"><ele>531.7142857142858</ele><time>2026-05-03T09:53:47.998Z</time></trkpt><trkpt lat="43.79188946494123" lon="10.982208281550134"><ele>534.1428571428571</ele><time>2026-05-03T09:53:53.998Z</time></trkpt><trkpt lat="43.79195102351497" lon="10.982157788084997"><ele>536.5714285714286</ele><time>2026-05-03T09:53:58.998Z</time></trkpt><trkpt lat="43.79201679994661" lon="10.982114878229755"><ele>539.0</ele><time>2026-05-03T09:54:03.998Z</time></trkpt><trkpt lat="43.79208024564477" lon="10.982051503241792"><ele>539.0</ele><time>2026-05-03T09:54:10.998Z</time></trkpt><trkpt lat="43.79213882231984" lon="10.98198271563539"><ele>539.0</ele><time>2026-05-03T09:54:16.998Z</time></trkpt><trkpt lat="43.792171232263385" lon="10.981905608317915"><ele>539.0</ele><time>2026-05-03T09:54:20.998Z</time></trkpt><trkpt lat="43.7922253779727" lon="10.981852904291447"><ele>539.0</ele><time>2026-05-03T09:54:25.998Z</time></trkpt><trkpt lat="43.792268970446166" lon="10.981775330100419"><ele>539.0</ele><time>2026-05-03T09:54:30.998Z</time></trkpt><trkpt lat="43.79232329887682" lon="10.981692018640526"><ele>539.0</ele><time>2026-05-03T09:54:36.998Z</time></trkpt><trkpt lat="43.79236122032237" lon="10.981611161665107"><ele>539.0</ele><time>2026-05-03T09:54:41.998Z</time></trkpt><trkpt lat="43.792395285965796" lon="10.981535789218597"><ele>536.8571428571429</ele><time>2026-05-03T09:54:46.998Z</time></trkpt><trkpt lat="43.792441202569265" lon="10.98146978190397"><ele>534.7142857142858</ele><time>2026-05-03T09:54:50.998Z</time></trkpt><trkpt lat="43.79249656475646" lon="10.98140447511522"><ele>532.5714285714286</ele><time>2026-05-03T09:54:55.997Z</time></trkpt><trkpt lat="43.79253720757004" lon="10.981333031883931"><ele>530.4285714285714</ele><time>2026-05-03T09:54:59.997Z</time></trkpt><trkpt lat="43.79259187899555" lon="10.981257772410677"><ele>528.2857142857143</ele><time>2026-05-03T09:55:04.997Z</time></trkpt><trkpt lat="43.79264942087245" lon="10.98121641187358"><ele>526.1428571428571</ele><time>2026-05-03T09:55:08.997Z</time></trkpt><trkpt lat="43.79271218701555" lon="10.981142059396227"><ele>524.0</ele><time>2026-05-03T09:55:11.997Z</time></trkpt><trkpt lat="43.79277360025658" lon="10.981089538721598"><ele>524.0</ele><time>2026-05-03T09:55:14.997Z</time></trkpt><trkpt lat="43.792836616755935" lon="10.981056367748934"><ele>524.0</ele><time>2026-05-03T09:55:17.997Z</time></trkpt><trkpt lat="43.79289075244753" lon="10.98100797249071"><ele>524.0</ele><time>2026-05-03T09:55:20.997Z</time></trkpt><trkpt lat="43.79295179408396" lon="10.98096202279591"><ele>524.0</ele><time>2026-05-03T09:55:23.997Z</time></trkpt><trkpt lat="43.793013988852366" lon="10.980931328850302"><ele>524.0</ele><time>2026-05-03T09:55:26.997Z</time></trkpt><trkpt lat="43.79309357454167" lon="10.980895376951018"><ele>524.0</ele><time>2026-05-03T09:55:30.997Z</time></trkpt><trkpt lat="43.79317385579394" lon="10.980868646049178"><ele>524.0</ele><time>2026-05-03T09:55:34.997Z</time></trkpt><trkpt lat="43.793236320941524" lon="10.980834740405093"><ele>525.7142857142858</ele><time>2026-05-03T09:55:37.997Z</time></trkpt><trkpt lat="43.793305008166435" lon="10.980822878379703"><ele>527.4285714285714</ele><time>2026-05-03T09:55:40.998Z</time></trkpt><trkpt lat="43.79338568494135" lon="10.980798639640922"><ele>529.1428571428571</ele><time>2026-05-03T09:55:44.999Z</time></trkpt><trkpt lat="43.79344792452052" lon="10.98077017068956"><ele>530.8571428571429</ele><time>2026-05-03T09:55:47.998Z</time></trkpt><trkpt lat="43.79350798188187" lon="10.980724886836907"><ele>532.5714285714286</ele><time>2026-05-03T09:55:50.999Z</time></trkpt><trkpt lat="43.793569416419146" lon="10.980670757527074"><ele>534.2857142857143</ele><time>2026-05-03T09:55:53.999Z</time></trkpt><trkpt lat="43.79362895140855" lon="10.980621106076473"><ele>536.0</ele><time>2026-05-03T09:55:56.999Z</time></trkpt><trkpt lat="43.79368988198895" lon="10.980581550942706"><ele>536.0</ele><time>2026-05-03T09:55:59.999Z</time></trkpt><trkpt lat="43.79374509826526" lon="10.980520439556075"><ele>536.0</ele><time>2026-05-03T09:56:02.999Z</time></trkpt><trkpt lat="43.79380833978431" lon="10.980466158671279"><ele>536.0</ele><time>2026-05-03T09:56:05.999Z</time></trkpt><trkpt lat="43.79387002458005" lon="10.98040927502737"><ele>536.0</ele><time>2026-05-03T09:56:08.999Z</time></trkpt><trkpt lat="43.79393196286694" lon="10.980363913326444"><ele>536.0</ele><time>2026-05-03T09:56:11.998Z</time></trkpt><trkpt lat="43.79398922535137" lon="10.980310480854582"><ele>536.0</ele><time>2026-05-03T09:56:14.998Z</time></trkpt><trkpt lat="43.794049246538435" lon="10.980255539314072"><ele>536.0</ele><time>2026-05-03T09:56:17.998Z</time></trkpt><trkpt lat="43.7941162062533" lon="10.980191799214166"><ele>536.0</ele><time>2026-05-03T09:56:20.998Z</time></trkpt><trkpt lat="43.79417920749091" lon="10.980136099145433"><ele>536.0</ele><time>2026-05-03T09:56:23.998Z</time></trkpt><trkpt lat="43.79424361033853" lon="10.980089165922088"><ele>536.0</ele><time>2026-05-03T09:56:26.998Z</time></trkpt><trkpt lat="43.79429734175928" lon="10.980033423286269"><ele>536.0</ele><time>2026-05-03T09:56:29.998Z</time></trkpt><trkpt lat="43.79435098026737" lon="10.979973024701106"><ele>536.0</ele><time>2026-05-03T09:56:32.998Z</time></trkpt><trkpt lat="43.79440649584186" lon="10.979920111916625"><ele>536.0</ele><time>2026-05-03T09:56:35.998Z</time></trkpt><trkpt lat="43.79446578748058" lon="10.979867502551807"><ele>536.0</ele><time>2026-05-03T09:56:38.998Z</time></trkpt><trkpt lat="43.79452101513908" lon="10.979807128265742"><ele>537.4285714285714</ele><time>2026-05-03T09:56:41.998Z</time></trkpt><trkpt lat="43.794577637355324" lon="10.979752256045742"><ele>538.8571428571429</ele><time>2026-05-03T09:56:44.998Z</time></trkpt><trkpt lat="43.794628137848385" lon="10.979683857421028"><ele>540.2857142857142</ele><time>2026-05-03T09:56:47.998Z</time></trkpt><trkpt lat="43.79468410715438" lon="10.979626444907737"><ele>541.7142857142858</ele><time>2026-05-03T09:56:50.998Z</time></trkpt><trkpt lat="43.79473621327366" lon="10.979562271724102"><ele>543.1428571428571</ele><time>2026-05-03T09:56:53.998Z</time></trkpt><trkpt lat="43.794794779575646" lon="10.979512744271968"><ele>544.5714285714286</ele><time>2026-05-03T09:56:56.998Z</time></trkpt><trkpt lat="43.794842910450726" lon="10.979430781015026"><ele>546.0</ele><time>2026-05-03T09:56:59.998Z</time></trkpt><trkpt lat="43.7948876003675" lon="10.979364192783253"><ele>546.0</ele><time>2026-05-03T09:57:02.998Z</time></trkpt><trkpt lat="43.794955578930704" lon="10.979292942633208"><ele>546.0</ele><time>2026-05-03T09:57:06.998Z</time></trkpt><trkpt lat="43.79500228239274" lon="10.979224905497981"><ele>546.0</ele><time>2026-05-03T09:57:09.998Z</time></trkpt><trkpt lat="43.79505350550235" lon="10.979168638807138"><ele>546.0</ele><time>2026-05-03T09:57:12.998Z</time></trkpt><trkpt lat="43.79510097690653" lon="10.979105874591701"><ele>546.0</ele><time>2026-05-03T09:57:15.998Z</time></trkpt><trkpt lat="43.79515805117381" lon="10.979055433423271"><ele>546.0</ele><time>2026-05-03T09:57:18.998Z</time></trkpt><trkpt lat="43.795208427421414" lon="10.97899754899066"><ele>546.0</ele><time>2026-05-03T09:57:21.998Z</time></trkpt><trkpt lat="43.79526313587635" lon="10.97894262974227"><ele>544.8571428571429</ele><time>2026-05-03T09:57:24.998Z</time></trkpt><trkpt lat="43.79531636197836" lon="10.978893469436011"><ele>543.7142857142858</ele><time>2026-05-03T09:57:27.998Z</time></trkpt><trkpt lat="43.795370302618444" lon="10.978844472422683"><ele>542.5714285714286</ele><time>2026-05-03T09:57:30.998Z</time></trkpt><trkpt lat="43.79541872363866" lon="10.97878619555352"><ele>541.4285714285714</ele><time>2026-05-03T09:57:33.998Z</time></trkpt><trkpt lat="43.79547612950849" lon="10.97872568026547"><ele>540.2857142857143</ele><time>2026-05-03T09:57:36.998Z</time></trkpt><trkpt lat="43.795531439163945" lon="10.978676562977553"><ele>539.1428571428571</ele><time>2026-05-03T09:57:39.998Z</time></trkpt><trkpt lat="43.79558864349943" lon="10.978620842207896"><ele>538.0</ele><time>2026-05-03T09:57:42.998Z</time></trkpt><trkpt lat="43.79563880371458" lon="10.97856585649682"><ele>538.0</ele><time>2026-05-03T09:57:45.998Z</time></trkpt><trkpt lat="43.79569734521695" lon="10.978477572484037"><ele>538.0</ele><time>2026-05-03T09:57:49.999Z</time></trkpt><trkpt lat="43.79575761210992" lon="10.978411816950265"><ele>538.0</ele><time>2026-05-03T09:57:53.999Z</time></trkpt><trkpt lat="43.79581698905427" lon="10.978360258554405"><ele>538.0</ele><time>2026-05-03T09:57:57.999Z</time></trkpt><trkpt lat="43.795874240730804" lon="10.97831790396764"><ele>538.0</ele><time>2026-05-03T09:58:00.999Z</time></trkpt><trkpt lat="43.79593594731337" lon="10.978252140001626"><ele>538.0</ele><time>2026-05-03T09:58:04.999Z</time></trkpt><trkpt lat="43.79599330796252" lon="10.978174995528194"><ele>540.5714285714286</ele><time>2026-05-03T09:58:08.999Z</time></trkpt><trkpt lat="43.79604465323658" lon="10.978091775337042"><ele>543.1428571428572</ele><time>2026-05-03T09:58:12.999Z</time></trkpt><trkpt lat="43.79608892727226" lon="10.97800590090692"><ele>545.7142857142858</ele><time>2026-05-03T09:58:16.999Z</time></trkpt><trkpt lat="43.79613790764716" lon="10.977940075975493"><ele>548.2857142857143</ele><time>2026-05-03T09:58:20.999Z</time></trkpt><trkpt lat="43.79619865938939" lon="10.977862897058415"><ele>550.8571428571429</ele><time>2026-05-03T09:58:24.999Z</time></trkpt><trkpt lat="43.796246178862326" lon="10.97779295072913"><ele>553.4285714285714</ele><time>2026-05-03T09:58:28.999Z</time></trkpt><trkpt lat="43.79630068461351" lon="10.977731465748876"><ele>556.0</ele><time>2026-05-03T09:58:32.999Z</time></trkpt><trkpt lat="43.79635415417598" lon="10.977661650725757"><ele>556.0</ele><time>2026-05-03T09:58:36.999Z</time></trkpt><trkpt lat="43.79640239265396" lon="10.977597920202951"><ele>556.0</ele><time>2026-05-03T09:58:40.999Z</time></trkpt><trkpt lat="43.796446030838126" lon="10.97751976067406"><ele>556.0</ele><time>2026-05-03T09:58:44.999Z</time></trkpt><trkpt lat="43.796497633840666" lon="10.977456615093248"><ele>556.0</ele><time>2026-05-03T09:58:48.999Z</time></trkpt><trkpt lat="43.79654293516522" lon="10.97739006062616"><ele>556.0</ele><time>2026-05-03T09:58:52.999Z</time></trkpt><trkpt lat="43.796595844580196" lon="10.977321374079025"><ele>556.0</ele><time>2026-05-03T09:58:56.999Z</time></trkpt><trkpt lat="43.79664666654994" lon="10.977242144772067"><ele>556.0</ele><time>2026-05-03T09:59:00.999Z</time></trkpt><trkpt lat="43.79670225970774" lon="10.977175321398612"><ele>555.3333333333334</ele><time>2026-05-03T09:59:04.999Z</time></trkpt><trkpt lat="43.79675760655719" lon="10.977103268750055"><ele>554.6666666666667</ele><time>2026-05-03T09:59:08.999Z</time></trkpt><trkpt lat="43.7968017748804" lon="10.977008226331744"><ele>554.0</ele><time>2026-05-03T09:59:12.999Z</time></trkpt><trkpt lat="43.796842267342065" lon="10.97691787893508"><ele>553.3333333333334</ele><time>2026-05-03T09:59:16.999Z</time></trkpt><trkpt lat="43.796890484963484" lon="10.976834955562516"><ele>552.6666666666666</ele><time>2026-05-03T09:59:20.999Z</time></trkpt><trkpt lat="43.796923909885926" lon="10.976740931235357"><ele>552.0</ele><time>2026-05-03T09:59:24.999Z</time></trkpt><trkpt lat="43.79697824178973" lon="10.976666054511899"><ele>553.5714285714286</ele><time>2026-05-03T09:59:28.999Z</time></trkpt><trkpt lat="43.7970134048613" lon="10.976592986517819"><ele>555.1428571428572</ele><time>2026-05-03T09:59:32.999Z</time></trkpt><trkpt lat="43.797057519732554" lon="10.976527955649559"><ele>556.7142857142858</ele><time>2026-05-03T09:59:36.999Z</time></trkpt><trkpt lat="43.797112359773905" lon="10.976453602295251"><ele>558.2857142857143</ele><time>2026-05-03T09:59:42.999Z</time></trkpt><trkpt lat="43.7971747914008" lon="10.976400854005213"><ele>559.8571428571429</ele><time>2026-05-03T09:59:46.998Z</time></trkpt><trkpt lat="43.79724503861898" lon="10.976358094208452"><ele>561.4285714285714</ele><time>2026-05-03T09:59:51Z</time></trkpt><trkpt lat="43.7973188061006" lon="10.976347240924992"><ele>563.0</ele><time>2026-05-03T09:59:54.999Z</time></trkpt><trkpt lat="43.79738550725333" lon="10.976312851369961"><ele>563.0</ele><time>2026-05-03T09:59:58.999Z</time></trkpt><trkpt lat="43.797447246284136" lon="10.976249539382751"><ele>563.0</ele><time>2026-05-03T10:00:02.999Z</time></trkpt><trkpt lat="43.79750552145596" lon="10.976174043910806"><ele>563.0</ele><time>2026-05-03T10:00:07Z</time></trkpt><trkpt lat="43.79756310584503" lon="10.976098626636562"><ele>563.0</ele><time>2026-05-03T10:00:11Z</time></trkpt><trkpt lat="43.79760054611252" lon="10.976024557331383"><ele>563.0</ele><time>2026-05-03T10:00:14Z</time></trkpt><trkpt lat="43.79761615081747" lon="10.975933771057832"><ele>563.0</ele><time>2026-05-03T10:00:18Z</time></trkpt><trkpt lat="43.79762674236072" lon="10.97584771209391"><ele>563.0</ele><time>2026-05-03T10:00:21Z</time></trkpt><trkpt lat="43.7976471623295" lon="10.975742215992103"><ele>560.8333333333333</ele><time>2026-05-03T10:00:25Z</time></trkpt><trkpt lat="43.797655228901355" lon="10.975632776151626"><ele>558.6666666666666</ele><time>2026-05-03T10:00:29Z</time></trkpt><trkpt lat="43.79764202820762" lon="10.975524064272149"><ele>556.5</ele><time>2026-05-03T10:00:32.999Z</time></trkpt><trkpt lat="43.797652582042375" lon="10.975425162031177"><ele>554.3333333333334</ele><time>2026-05-03T10:00:37.999Z</time></trkpt><trkpt lat="43.79765630779201" lon="10.975315896067269"><ele>552.1666666666667</ele><time>2026-05-03T10:00:42.999Z</time></trkpt><trkpt lat="43.79767032917832" lon="10.975207157777362"><ele>550.0</ele><time>2026-05-03T10:00:47.999Z</time></trkpt><trkpt lat="43.79768864989069" lon="10.975119439478402"><ele>550.1428571428571</ele><time>2026-05-03T10:00:51.999Z</time></trkpt><trkpt lat="43.79770548119886" lon="10.975020861831975"><ele>550.2857142857142</ele><time>2026-05-03T10:00:55.999Z</time></trkpt><trkpt lat="43.7977388747996" lon="10.974933843060441"><ele>550.4285714285713</ele><time>2026-05-03T10:00:59.999Z</time></trkpt><trkpt lat="43.7977685159424" lon="10.9748370315084"><ele>550.5714285714286</ele><time>2026-05-03T10:01:03.999Z</time></trkpt><trkpt lat="43.79777264784034" lon="10.974733711132053"><ele>550.7142857142857</ele><time>2026-05-03T10:01:07.999Z</time></trkpt><trkpt lat="43.797753913422184" lon="10.974641110393568"><ele>550.8571428571428</ele><time>2026-05-03T10:01:13.999Z</time></trkpt><trkpt lat="43.79769623105922" lon="10.974601788483726"><ele>551.0</ele><time>2026-05-03T10:01:17.999Z</time></trkpt><trkpt lat="43.79763336725155" lon="10.97455656549155"><ele>550.9999999999999</ele><time>2026-05-03T10:01:21.999Z</time></trkpt><trkpt lat="43.797565282330666" lon="10.974498265275818"><ele>551.0</ele><time>2026-05-03T10:01:25.999Z</time></trkpt><trkpt lat="43.79752368889891" lon="10.97442972388006"><ele>551.0</ele><time>2026-05-03T10:01:28.999Z</time></trkpt><trkpt lat="43.79748355058383" lon="10.974349638699756"><ele>551.0</ele><time>2026-05-03T10:01:31.999Z</time></trkpt><trkpt lat="43.79744035086588" lon="10.974284490163688"><ele>551.0</ele><time>2026-05-03T10:01:34.999Z</time></trkpt><trkpt lat="43.79738828328795" lon="10.974200184551549"><ele>550.9999999999999</ele><time>2026-05-03T10:01:38.999Z</time></trkpt><trkpt lat="43.79734183342171" lon="10.97411518932752"><ele>551.0</ele><time>2026-05-03T10:01:42.999Z</time></trkpt><trkpt lat="43.797303434614136" lon="10.97402854957288"><ele>552.7142857142857</ele><time>2026-05-03T10:01:46.999Z</time></trkpt><trkpt lat="43.79726041705793" lon="10.973956327935731"><ele>554.4285714285714</ele><time>2026-05-03T10:01:50.999Z</time></trkpt><trkpt lat="43.79720862142613" lon="10.973882344759414"><ele>556.1428571428571</ele><time>2026-05-03T10:01:54.999Z</time></trkpt><trkpt lat="43.797151482958974" lon="10.97381602360444"><ele>557.8571428571429</ele><time>2026-05-03T10:01:59Z</time></trkpt><trkpt lat="43.797108574481754" lon="10.973732566062742"><ele>559.5714285714286</ele><time>2026-05-03T10:02:02.999Z</time></trkpt><trkpt lat="43.797076368239715" lon="10.973649613040743"><ele>561.2857142857142</ele><time>2026-05-03T10:02:07Z</time></trkpt><trkpt lat="43.79705225147378" lon="10.973558339249191"><ele>563.0</ele><time>2026-05-03T10:02:10.999Z</time></trkpt><trkpt lat="43.797020320797316" lon="10.973470111279289"><ele>563.0</ele><time>2026-05-03T10:02:14.999Z</time></trkpt><trkpt lat="43.79697751105953" lon="10.973386073068031"><ele>563.0</ele><time>2026-05-03T10:02:18.999Z</time></trkpt><trkpt lat="43.79697444449738" lon="10.973290739583364"><ele>563.0</ele><time>2026-05-03T10:02:22.999Z</time></trkpt><trkpt lat="43.79697154956963" lon="10.973195999344192"><ele>563.0</ele><time>2026-05-03T10:02:26.999Z</time></trkpt><trkpt lat="43.796973319983195" lon="10.97309820134186"><ele>563.0</ele><time>2026-05-03T10:02:30.999Z</time></trkpt><trkpt lat="43.79700090313688" lon="10.973018756162395"><ele>563.0</ele><time>2026-05-03T10:02:34.999Z</time></trkpt><trkpt lat="43.79704931487715" lon="10.972944545644896"><ele>563.0</ele><time>2026-05-03T10:02:39.999Z</time></trkpt><trkpt lat="43.797117800502484" lon="10.972905034421672"><ele>564.2857142857142</ele><time>2026-05-03T10:02:46.999Z</time></trkpt><trkpt lat="43.79719168621582" lon="10.972864518924881"><ele>565.5714285714286</ele><time>2026-05-03T10:02:50.999Z</time></trkpt><trkpt lat="43.79725492712695" lon="10.972838422237967"><ele>566.8571428571429</ele><time>2026-05-03T10:02:54.999Z</time></trkpt><trkpt lat="43.79732453444026" lon="10.972815705963786"><ele>568.1428571428571</ele><time>2026-05-03T10:02:58.999Z</time></trkpt><trkpt lat="43.797387583246106" lon="10.972779959733797"><ele>569.4285714285714</ele><time>2026-05-03T10:03:02.999Z</time></trkpt><trkpt lat="43.79745086335419" lon="10.972741017155855"><ele>570.7142857142857</ele><time>2026-05-03T10:03:06.999Z</time></trkpt><trkpt lat="43.79751785585217" lon="10.972701555009827"><ele>572.0</ele><time>2026-05-03T10:03:10.999Z</time></trkpt><trkpt lat="43.79758210571266" lon="10.972701063063429"><ele>572.0</ele><time>2026-05-03T10:03:14.999Z</time></trkpt><trkpt lat="43.79765740916956" lon="10.972671976880347"><ele>572.0</ele><time>2026-05-03T10:03:18.999Z</time></trkpt><trkpt lat="43.7977346348127" lon="10.972645473169159"><ele>572.0</ele><time>2026-05-03T10:03:22.999Z</time></trkpt><trkpt lat="43.79781156884492" lon="10.972611899906896"><ele>572.0</ele><time>2026-05-03T10:03:26.999Z</time></trkpt><trkpt lat="43.797892251424116" lon="10.972604963546171"><ele>572.0</ele><time>2026-05-03T10:03:30.999Z</time></trkpt><trkpt lat="43.79796763676832" lon="10.972617009482363"><ele>572.0</ele><time>2026-05-03T10:03:34.999Z</time></trkpt><trkpt lat="43.79803697130192" lon="10.972583014224462"><ele>572.1428571428571</ele><time>2026-05-03T10:03:38.999Z</time></trkpt><trkpt lat="43.79810012202569" lon="10.972517153783272"><ele>572.2857142857142</ele><time>2026-05-03T10:03:42.999Z</time></trkpt><trkpt lat="43.79815128096769" lon="10.972456204550813"><ele>572.4285714285714</ele><time>2026-05-03T10:03:46.999Z</time></trkpt><trkpt lat="43.79820344659659" lon="10.972390014409068"><ele>572.5714285714286</ele><time>2026-05-03T10:03:50.999Z</time></trkpt><trkpt lat="43.79825397627909" lon="10.972317516401828"><ele>572.7142857142858</ele><time>2026-05-03T10:03:54.999Z</time></trkpt><trkpt lat="43.79830572891408" lon="10.972253028468144"><ele>572.8571428571429</ele><time>2026-05-03T10:03:59.999Z</time></trkpt><trkpt lat="43.798359725830366" lon="10.97220289880027"><ele>573.0</ele><time>2026-05-03T10:04:04Z</time></trkpt><trkpt lat="43.79841725808124" lon="10.972165625084124"><ele>573.0</ele><time>2026-05-03T10:04:08Z</time></trkpt><trkpt lat="43.798477737795324" lon="10.972123239749942"><ele>573.0</ele><time>2026-05-03T10:04:12Z</time></trkpt><trkpt lat="43.798537106111816" lon="10.972060873690758"><ele>573.0</ele><time>2026-05-03T10:04:16Z</time></trkpt><trkpt lat="43.798589775632394" lon="10.971991611613774"><ele>573.0</ele><time>2026-05-03T10:04:20Z</time></trkpt><trkpt lat="43.7986391341022" lon="10.97191544065418"><ele>573.0</ele><time>2026-05-03T10:04:24Z</time></trkpt><trkpt lat="43.7986885023713" lon="10.971831176491765"><ele>573.0</ele><time>2026-05-03T10:04:28Z</time></trkpt><trkpt lat="43.79873974568814" lon="10.971769605906553"><ele>573.0</ele><time>2026-05-03T10:04:32Z</time></trkpt><trkpt lat="43.79880780163702" lon="10.97172999927937"><ele>572.0</ele><time>2026-05-03T10:04:36Z</time></trkpt><trkpt lat="43.79886664147484" lon="10.971692373795134"><ele>571.0</ele><time>2026-05-03T10:04:40Z</time></trkpt><trkpt lat="43.79894134544365" lon="10.971671023567941"><ele>570.0</ele><time>2026-05-03T10:04:44Z</time></trkpt><trkpt lat="43.79902451790078" lon="10.97166321358558"><ele>569.0</ele><time>2026-05-03T10:04:48Z</time></trkpt><trkpt lat="43.79910541020863" lon="10.97164540450662"><ele>568.0</ele><time>2026-05-03T10:04:52Z</time></trkpt><trkpt lat="43.79916933864737" lon="10.97163546339972"><ele>567.0</ele><time>2026-05-03T10:04:55Z</time></trkpt><trkpt lat="43.79924673667883" lon="10.971587547170447"><ele>567.0</ele><time>2026-05-03T10:04:59Z</time></trkpt><trkpt lat="43.79930835305213" lon="10.97155687414087"><ele>567.0</ele><time>2026-05-03T10:05:02Z</time></trkpt><trkpt lat="43.79938475452777" lon="10.971509012769102"><ele>567.0</ele><time>2026-05-03T10:05:06Z</time></trkpt><trkpt lat="43.79946265942066" lon="10.97146256869429"><ele>567.0</ele><time>2026-05-03T10:05:10Z</time></trkpt><trkpt lat="43.79952521075253" lon="10.971435499576824"><ele>567.0</ele><time>2026-05-03T10:05:13Z</time></trkpt><trkpt lat="43.799589240589725" lon="10.971397701022699"><ele>567.0</ele><time>2026-05-03T10:05:16Z</time></trkpt><trkpt lat="43.799645324262585" lon="10.971352972777732"><ele>567.0</ele><time>2026-05-03T10:05:19Z</time></trkpt><trkpt lat="43.7997128048322" lon="10.971285862409726"><ele>567.5</ele><time>2026-05-03T10:05:23Z</time></trkpt><trkpt lat="43.79977265854019" lon="10.971226265659537"><ele>568.0</ele><time>2026-05-03T10:05:26Z</time></trkpt><trkpt lat="43.7998489189833" lon="10.971176462607431"><ele>568.5</ele><time>2026-05-03T10:05:30Z</time></trkpt><trkpt lat="43.799905763107425" lon="10.971135441457259"><ele>569.0</ele><time>2026-05-03T10:05:33Z</time></trkpt><trkpt lat="43.7999910065596" lon="10.971120619762345"><ele>569.5</ele><time>2026-05-03T10:05:37Z</time></trkpt><trkpt lat="43.800047309423555" lon="10.971161059323554"><ele>570.0</ele><time>2026-05-03T10:05:40Z</time></trkpt><trkpt lat="43.80011541706545" lon="10.971221673483349"><ele>570.0</ele><time>2026-05-03T10:05:44Z</time></trkpt><trkpt lat="43.800162215005415" lon="10.971280657779896"><ele>570.0</ele><time>2026-05-03T10:05:47Z</time></trkpt><trkpt lat="43.800227827879766" lon="10.971350019691972"><ele>570.0</ele><time>2026-05-03T10:05:50.999Z</time></trkpt><trkpt lat="43.80028806821592" lon="10.971390591682454"><ele>570.0</ele><time>2026-05-03T10:05:53.999Z</time></trkpt><trkpt lat="43.80035482339794" lon="10.971441617908493"><ele>570.0</ele><time>2026-05-03T10:05:57.999Z</time></trkpt><trkpt lat="43.80040253444213" lon="10.971510846846051"><ele>570.0</ele><time>2026-05-03T10:06:01.999Z</time></trkpt><trkpt lat="43.80046884566611" lon="10.971571534850614"><ele>570.0</ele><time>2026-05-03T10:06:05.999Z</time></trkpt><trkpt lat="43.80053199455734" lon="10.971615318270219"><ele>569.2857142857142</ele><time>2026-05-03T10:06:10.001Z</time></trkpt><trkpt lat="43.800603166554566" lon="10.971614383102812"><ele>568.5714285714286</ele><time>2026-05-03T10:06:13Z</time></trkpt><trkpt lat="43.800678801545075" lon="10.971597749763689"><ele>567.8571428571429</ele><time>2026-05-03T10:06:17Z</time></trkpt><trkpt lat="43.800755168653666" lon="10.971584486560872"><ele>567.1428571428571</ele><time>2026-05-03T10:06:21.001Z</time></trkpt><trkpt lat="43.8008185816827" lon="10.971543331125009"><ele>566.4285714285714</ele><time>2026-05-03T10:06:25.001Z</time></trkpt><trkpt lat="43.80088271274795" lon="10.971497957314966"><ele>565.7142857142857</ele><time>2026-05-03T10:06:29.001Z</time></trkpt><trkpt lat="43.80093906880487" lon="10.971435371912518"><ele>565.0</ele><time>2026-05-03T10:06:33.001Z</time></trkpt><trkpt lat="43.80099037728061" lon="10.97137811961926"><ele>565.8571428571428</ele><time>2026-05-03T10:06:37.001Z</time></trkpt><trkpt lat="43.80102859975783" lon="10.971301388907019"><ele>566.7142857142857</ele><time>2026-05-03T10:06:42.001Z</time></trkpt><trkpt lat="43.801079453022844" lon="10.971241483185628"><ele>567.5714285714286</ele><time>2026-05-03T10:06:46.001Z</time></trkpt><trkpt lat="43.80111181153929" lon="10.971166477273606"><ele>568.4285714285713</ele><time>2026-05-03T10:06:50.001Z</time></trkpt><trkpt lat="43.801148561108946" lon="10.971071742028368"><ele>569.2857142857142</ele><time>2026-05-03T10:06:56.001Z</time></trkpt><trkpt lat="43.80119262345228" lon="10.971006338620484"><ele>570.1428571428571</ele><time>2026-05-03T10:07:01.001Z</time></trkpt><trkpt lat="43.80122487276509" lon="10.970912710160151"><ele>571.0</ele><time>2026-05-03T10:07:07.001Z</time></trkpt><trkpt lat="43.80126360846084" lon="10.970832431478136"><ele>571.0</ele><time>2026-05-03T10:07:13.001Z</time></trkpt><trkpt lat="43.801321907495534" lon="10.970776902226923"><ele>571.0</ele><time>2026-05-03T10:07:19.001Z</time></trkpt><trkpt lat="43.801380800213806" lon="10.970713994879457"><ele>571.0</ele><time>2026-05-03T10:07:23.001Z</time></trkpt><trkpt lat="43.8014405013233" lon="10.970676190253632"><ele>571.0</ele><time>2026-05-03T10:07:27.001Z</time></trkpt><trkpt lat="43.80150639149146" lon="10.970619685223701"><ele>571.0</ele><time>2026-05-03T10:07:31Z</time></trkpt><trkpt lat="43.80156917865938" lon="10.970592117656485"><ele>571.0</ele><time>2026-05-03T10:07:35Z</time></trkpt><trkpt lat="43.80164068875985" lon="10.970543940882171"><ele>571.0</ele><time>2026-05-03T10:07:39Z</time></trkpt><trkpt lat="43.8017048181411" lon="10.970499940204395"><ele>571.0</ele><time>2026-05-03T10:07:43Z</time></trkpt><trkpt lat="43.8017595327174" lon="10.970437235905264"><ele>571.0</ele><time>2026-05-03T10:07:46Z</time></trkpt><trkpt lat="43.80181414622641" lon="10.970353118950873"><ele>571.0</ele><time>2026-05-03T10:07:50Z</time></trkpt><trkpt lat="43.801873352331214" lon="10.970276538852664"><ele>571.0</ele><time>2026-05-03T10:07:54Z</time></trkpt><trkpt lat="43.80193822145127" lon="10.970214598876822"><ele>571.0</ele><time>2026-05-03T10:07:58Z</time></trkpt><trkpt lat="43.80199899397945" lon="10.97014471212798"><ele>571.0</ele><time>2026-05-03T10:08:01Z</time></trkpt><trkpt lat="43.802052088792834" lon="10.970089321028837"><ele>572.6666666666667</ele><time>2026-05-03T10:08:04Z</time></trkpt><trkpt lat="43.80210930109342" lon="10.970027485547364"><ele>574.3333333333334</ele><time>2026-05-03T10:08:07Z</time></trkpt><trkpt lat="43.80215675882524" lon="10.969931991210045"><ele>576.0</ele><time>2026-05-03T10:08:11Z</time></trkpt><trkpt lat="43.80218147111166" lon="10.969823780768028"><ele>577.6666666666666</ele><time>2026-05-03T10:08:15.001Z</time></trkpt><trkpt lat="43.80218222797685" lon="10.969712477477824"><ele>579.3333333333333</ele><time>2026-05-03T10:08:19.001Z</time></trkpt><trkpt lat="43.80219640167326" lon="10.969621479519603"><ele>581.0</ele><time>2026-05-03T10:08:22.001Z</time></trkpt><trkpt lat="43.802195087484996" lon="10.969499911748832"><ele>581.0</ele><time>2026-05-03T10:08:26.001Z</time></trkpt><trkpt lat="43.802183692062144" lon="10.969396393875826"><ele>581.0</ele><time>2026-05-03T10:08:29.001Z</time></trkpt><trkpt lat="43.80216560944812" lon="10.969308236186254"><ele>581.0</ele><time>2026-05-03T10:08:32.001Z</time></trkpt><trkpt lat="43.80213547207929" lon="10.969220995361697"><ele>581.0</ele><time>2026-05-03T10:08:35.001Z</time></trkpt><trkpt lat="43.80209815965479" lon="10.969136754149009"><ele>581.0</ele><time>2026-05-03T10:08:38.001Z</time></trkpt><trkpt lat="43.80206259233574" lon="10.969063476707996"><ele>581.0</ele><time>2026-05-03T10:08:41.001Z</time></trkpt><trkpt lat="43.802038930589326" lon="10.968962478384631"><ele>581.0</ele><time>2026-05-03T10:08:45.001Z</time></trkpt><trkpt lat="43.80201392051238" lon="10.968869447811914"><ele>579.7142857142857</ele><time>2026-05-03T10:08:48.001Z</time></trkpt><trkpt lat="43.80197947334057" lon="10.968794519396972"><ele>578.4285714285714</ele><time>2026-05-03T10:08:51.001Z</time></trkpt><trkpt lat="43.80195651046622" lon="10.968687791022031"><ele>577.1428571428571</ele><time>2026-05-03T10:08:55.001Z</time></trkpt><trkpt lat="43.80191715971174" lon="10.968586632172334"><ele>575.8571428571429</ele><time>2026-05-03T10:08:59.001Z</time></trkpt><trkpt lat="43.80188509354212" lon="10.968482631730405"><ele>574.5714285714286</ele><time>2026-05-03T10:09:03.001Z</time></trkpt><trkpt lat="43.80188874896475" lon="10.968387767289418"><ele>573.2857142857142</ele><time>2026-05-03T10:09:07.001Z</time></trkpt><trkpt lat="43.80188268667452" lon="10.968299182276434"><ele>572.0</ele><time>2026-05-03T10:09:10.001Z</time></trkpt><trkpt lat="43.801897130179704" lon="10.968210081421315"><ele>569.8333333333333</ele><time>2026-05-03T10:09:14.001Z</time></trkpt><trkpt lat="43.80192258246869" lon="10.968124038087838"><ele>567.6666666666666</ele><time>2026-05-03T10:09:18Z</time></trkpt><trkpt lat="43.801964640034335" lon="10.968036484721997"><ele>565.5</ele><time>2026-05-03T10:09:22Z</time></trkpt><trkpt lat="43.802002531447776" lon="10.967938596423568"><ele>563.3333333333334</ele><time>2026-05-03T10:09:27Z</time></trkpt><trkpt lat="43.802069602242376" lon="10.967872576148977"><ele>561.1666666666667</ele><time>2026-05-03T10:09:31Z</time></trkpt><trkpt lat="43.80214074732645" lon="10.96781743133944"><ele>559.0</ele><time>2026-05-03T10:09:36Z</time></trkpt><trkpt lat="43.80220569650697" lon="10.967761585887406"><ele>559.0</ele><time>2026-05-03T10:09:40Z</time></trkpt><trkpt lat="43.802260999584625" lon="10.96771803955519"><ele>559.0</ele><time>2026-05-03T10:09:43Z</time></trkpt><trkpt lat="43.802320160948874" lon="10.967651904151632"><ele>559.0</ele><time>2026-05-03T10:09:47Z</time></trkpt><trkpt lat="43.802380139085045" lon="10.967612011717627"><ele>559.0</ele><time>2026-05-03T10:09:50Z</time></trkpt><trkpt lat="43.80243187325859" lon="10.967542903070843"><ele>559.0</ele><time>2026-05-03T10:09:54Z</time></trkpt><trkpt lat="43.80248567327328" lon="10.967483043538119"><ele>559.0</ele><time>2026-05-03T10:09:57Z</time></trkpt><trkpt lat="43.802512407276126" lon="10.96740260811292"><ele>559.0</ele><time>2026-05-03T10:10:00Z</time></trkpt><trkpt lat="43.8025294914241" lon="10.967294881671988"><ele>555.7142857142858</ele><time>2026-05-03T10:10:04Z</time></trkpt><trkpt lat="43.8025265645597" lon="10.967204995343147"><ele>552.4285714285714</ele><time>2026-05-03T10:10:07Z</time></trkpt><trkpt lat="43.8025197210792" lon="10.967107717453613"><ele>549.1428571428571</ele><time>2026-05-03T10:10:10Z</time></trkpt><trkpt lat="43.8024988987762" lon="10.966998558480338"><ele>545.8571428571429</ele><time>2026-05-03T10:10:14Z</time></trkpt><trkpt lat="43.80246893398324" lon="10.96688854499842"><ele>542.5714285714286</ele><time>2026-05-03T10:10:18Z</time></trkpt><trkpt lat="43.80244153156295" lon="10.966806913588153"><ele>539.2857142857143</ele><time>2026-05-03T10:10:21.001Z</time></trkpt><trkpt lat="43.80239895217885" lon="10.966714781765901"><ele>536.0</ele><time>2026-05-03T10:10:25.001Z</time></trkpt><trkpt lat="43.80237348571601" lon="10.966633595323886"><ele>535.7142857142858</ele><time>2026-05-03T10:10:28.002Z</time></trkpt><trkpt lat="43.80232482881303" lon="10.966549851075722"><ele>535.4285714285714</ele><time>2026-05-03T10:10:31.001Z</time></trkpt><trkpt lat="43.80228913960633" lon="10.966477491973434"><ele>535.1428571428571</ele><time>2026-05-03T10:10:34.001Z</time></trkpt><trkpt lat="43.80224639114518" lon="10.96639477887346"><ele>534.8571428571429</ele><time>2026-05-03T10:10:37.001Z</time></trkpt><trkpt lat="43.80220348988438" lon="10.966315197668433"><ele>534.5714285714286</ele><time>2026-05-03T10:10:40.001Z</time></trkpt><trkpt lat="43.80215484567937" lon="10.966233014636805"><ele>534.2857142857143</ele><time>2026-05-03T10:10:43.001Z</time></trkpt><trkpt lat="43.80211472103505" lon="10.96616074775727"><ele>534.0</ele><time>2026-05-03T10:10:46.001Z</time></trkpt><trkpt lat="43.80208752567699" lon="10.966080623609063"><ele>534.0000000000001</ele><time>2026-05-03T10:10:49.001Z</time></trkpt><trkpt lat="43.80203666946463" lon="10.966015265639172"><ele>534.0</ele><time>2026-05-03T10:10:52.001Z</time></trkpt><trkpt lat="43.80198078609154" lon="10.96594151187261"><ele>534.0</ele><time>2026-05-03T10:10:55.001Z</time></trkpt><trkpt lat="43.801934320563376" lon="10.965866571926272"><ele>534.0</ele><time>2026-05-03T10:10:58.001Z</time></trkpt><trkpt lat="43.80187983969148" lon="10.965780713529883"><ele>534.0</ele><time>2026-05-03T10:11:02.001Z</time></trkpt><trkpt lat="43.80183983828443" lon="10.965711263806421"><ele>534.0000000000001</ele><time>2026-05-03T10:11:05.001Z</time></trkpt><trkpt lat="43.801802280507395" lon="10.965641011644783"><ele>534.0</ele><time>2026-05-03T10:11:08.001Z</time></trkpt><trkpt lat="43.801775525955975" lon="10.965551554409698"><ele>532.2857142857143</ele><time>2026-05-03T10:11:11.001Z</time></trkpt><trkpt lat="43.80174758254586" lon="10.965458298869141"><ele>530.5714285714286</ele><time>2026-05-03T10:11:15.001Z</time></trkpt><trkpt lat="43.801734146166275" lon="10.965349002283373"><ele>528.8571428571429</ele><time>2026-05-03T10:11:19.001Z</time></trkpt><trkpt lat="43.801731549648565" lon="10.965246960858101"><ele>527.1428571428571</ele><time>2026-05-03T10:11:23.001Z</time></trkpt><trkpt lat="43.80171328774602" lon="10.965156046231838"><ele>525.4285714285714</ele><time>2026-05-03T10:11:26.001Z</time></trkpt><trkpt lat="43.80169838087904" lon="10.965049392194633"><ele>523.7142857142858</ele><time>2026-05-03T10:11:30.001Z</time></trkpt><trkpt lat="43.80170033474819" lon="10.964952669585596"><ele>522.0</ele><time>2026-05-03T10:11:33.001Z</time></trkpt><trkpt lat="43.80170733015201" lon="10.964857392370645"><ele>522.0</ele><time>2026-05-03T10:11:36.001Z</time></trkpt><trkpt lat="43.80171003230682" lon="10.964755359002824"><ele>522.0</ele><time>2026-05-03T10:11:39.001Z</time></trkpt><trkpt lat="43.801711723395016" lon="10.96466381532096"><ele>522.0</ele><time>2026-05-03T10:11:42.001Z</time></trkpt><trkpt lat="43.80172036701213" lon="10.964569355443842"><ele>522.0</ele><time>2026-05-03T10:11:45.001Z</time></trkpt><trkpt lat="43.801737532167515" lon="10.964472191929843"><ele>522.0</ele><time>2026-05-03T10:11:48.001Z</time></trkpt><trkpt lat="43.8017555871881" lon="10.964380159810101"><ele>522.0</ele><time>2026-05-03T10:11:51Z</time></trkpt><trkpt lat="43.80179144065597" lon="10.964274366211276"><ele>522.0</ele><time>2026-05-03T10:11:55Z</time></trkpt><trkpt lat="43.801821586472556" lon="10.964171721435577"><ele>522.5714285714286</ele><time>2026-05-03T10:11:58Z</time></trkpt><trkpt lat="43.80185410373418" lon="10.96407214037146"><ele>523.1428571428571</ele><time>2026-05-03T10:12:02Z</time></trkpt><trkpt lat="43.80187376741506" lon="10.963981320840993"><ele>523.7142857142857</ele><time>2026-05-03T10:12:05Z</time></trkpt><trkpt lat="43.801915206584965" lon="10.963908191438245"><ele>524.2857142857142</ele><time>2026-05-03T10:12:09Z</time></trkpt><trkpt lat="43.80199454433073" lon="10.963906156382585"><ele>524.8571428571428</ele><time>2026-05-03T10:12:14Z</time></trkpt><trkpt lat="43.80207049334754" lon="10.96386404649332"><ele>525.4285714285714</ele><time>2026-05-03T10:12:19Z</time></trkpt><trkpt lat="43.802128501972696" lon="10.963819650311994"><ele>526.0</ele><time>2026-05-03T10:12:23Z</time></trkpt><trkpt lat="43.80218502557919" lon="10.96377010669496"><ele>526.0</ele><time>2026-05-03T10:12:26Z</time></trkpt><trkpt lat="43.80224512095773" lon="10.963721396118661"><ele>526.0</ele><time>2026-05-03T10:12:29.002Z</time></trkpt><trkpt lat="43.80232247055734" lon="10.963729476770972"><ele>526.0</ele><time>2026-05-03T10:12:32.002Z</time></trkpt><trkpt lat="43.80239923656405" lon="10.963726175980293"><ele>526.0</ele><time>2026-05-03T10:12:36.002Z</time></trkpt><trkpt lat="43.802463749098926" lon="10.963727293251132"><ele>526.0</ele><time>2026-05-03T10:12:39.002Z</time></trkpt><trkpt lat="43.802530444296984" lon="10.963740963610611"><ele>526.0</ele><time>2026-05-03T10:12:42.002Z</time></trkpt><trkpt lat="43.802616684244676" lon="10.963766371266347"><ele>526.0</ele><time>2026-05-03T10:12:46.002Z</time></trkpt><trkpt lat="43.80269180910572" lon="10.963760878216263"><ele>525.0</ele><time>2026-05-03T10:12:49.002Z</time></trkpt><trkpt lat="43.8027568302876" lon="10.963758535772534"><ele>524.0</ele><time>2026-05-03T10:12:52.002Z</time></trkpt><trkpt lat="43.802839075956676" lon="10.96377048269338"><ele>523.0</ele><time>2026-05-03T10:12:56.002Z</time></trkpt><trkpt lat="43.80292088843887" lon="10.96378184039928"><ele>522.0</ele><time>2026-05-03T10:13:00.002Z</time></trkpt><trkpt lat="43.80299355468343" lon="10.96377707322582"><ele>521.0</ele><time>2026-05-03T10:13:03.002Z</time></trkpt><trkpt lat="43.80305955985181" lon="10.963784815645402"><ele>520.0</ele><time>2026-05-03T10:13:06.002Z</time></trkpt><trkpt lat="43.80314753958729" lon="10.9637651252411"><ele>520.0000000000001</ele><time>2026-05-03T10:13:10.002Z</time></trkpt><trkpt lat="43.803216408801994" lon="10.9637376709664"><ele>520.0</ele><time>2026-05-03T10:13:13.002Z</time></trkpt><trkpt lat="43.80327972187618" lon="10.963738235269945"><ele>520.0</ele><time>2026-05-03T10:13:16.002Z</time></trkpt><trkpt lat="43.8033456065785" lon="10.963685506152437"><ele>520.0</ele><time>2026-05-03T10:13:19.002Z</time></trkpt><trkpt lat="43.8034198780125" lon="10.963658257592861"><ele>520.0</ele><time>2026-05-03T10:13:22.002Z</time></trkpt><trkpt lat="43.80348541091021" lon="10.963637137925469"><ele>520.0000000000001</ele><time>2026-05-03T10:13:25.002Z</time></trkpt><trkpt lat="43.80355336461583" lon="10.963626815671228"><ele>520.0</ele><time>2026-05-03T10:13:28.002Z</time></trkpt><trkpt lat="43.80361935413527" lon="10.96361739922024"><ele>518.4285714285714</ele><time>2026-05-03T10:13:31.002Z</time></trkpt><trkpt lat="43.80369630230565" lon="10.963623757808937"><ele>516.8571428571429</ele><time>2026-05-03T10:13:35.002Z</time></trkpt><trkpt lat="43.803772844095455" lon="10.96362424097106"><ele>515.2857142857142</ele><time>2026-05-03T10:13:39.002Z</time></trkpt><trkpt lat="43.803852600694185" lon="10.963630355601973"><ele>513.7142857142858</ele><time>2026-05-03T10:13:43.002Z</time></trkpt><trkpt lat="43.803918758343166" lon="10.9636471536125"><ele>512.1428571428571</ele><time>2026-05-03T10:13:46.002Z</time></trkpt><trkpt lat="43.80398168812328" lon="10.963670570684974"><ele>510.5714285714285</ele><time>2026-05-03T10:13:49.002Z</time></trkpt><trkpt lat="43.80405622926924" lon="10.963677150112042"><ele>508.99999999999994</ele><time>2026-05-03T10:13:52.002Z</time></trkpt><trkpt lat="43.804121201111904" lon="10.963688237015512"><ele>508.99999999999994</ele><time>2026-05-03T10:13:55.002Z</time></trkpt><trkpt lat="43.80420324543635" lon="10.963712520622684"><ele>509.0</ele><time>2026-05-03T10:13:59.002Z</time></trkpt><trkpt lat="43.804268664268186" lon="10.963743305306929"><ele>508.99999999999994</ele><time>2026-05-03T10:14:02.002Z</time></trkpt><trkpt lat="43.804335269308524" lon="10.963761993993337"><ele>508.99999999999994</ele><time>2026-05-03T10:14:05.002Z</time></trkpt><trkpt lat="43.80440352473802" lon="10.9637869458349"><ele>509.0</ele><time>2026-05-03T10:14:08.002Z</time></trkpt><trkpt lat="43.80448068145976" lon="10.963808014734632"><ele>508.99999999999994</ele><time>2026-05-03T10:14:12.002Z</time></trkpt><trkpt lat="43.80454602938145" lon="10.963822251042846"><ele>508.99999999999994</ele><time>2026-05-03T10:14:17.002Z</time></trkpt><trkpt lat="43.80461007914187" lon="10.963836663782963"><ele>506.42857142857133</ele><time>2026-05-03T10:14:21.002Z</time></trkpt><trkpt lat="43.804674996624" lon="10.963836051658093"><ele>503.85714285714283</ele><time>2026-05-03T10:14:25.002Z</time></trkpt><trkpt lat="43.8047450095865" lon="10.963845461721998"><ele>501.2857142857142</ele><time>2026-05-03T10:14:29.001Z</time></trkpt><trkpt lat="43.80481842269286" lon="10.963867885934723"><ele>498.71428571428567</ele><time>2026-05-03T10:14:34.002Z</time></trkpt><trkpt lat="43.80489509239005" lon="10.963864698792726"><ele>496.1428571428571</ele><time>2026-05-03T10:14:40.002Z</time></trkpt><trkpt lat="43.804957877929795" lon="10.963890119832797"><ele>493.57142857142856</ele><time>2026-05-03T10:14:44.002Z</time></trkpt><trkpt lat="43.804985299714325" lon="10.96397284944521"><ele>491.0</ele><time>2026-05-03T10:14:47.003Z</time></trkpt><trkpt lat="43.804998855749176" lon="10.964087093120286"><ele>491.0</ele><time>2026-05-03T10:14:49.003Z</time></trkpt><trkpt lat="43.80503906049377" lon="10.964156964302674"><ele>490.99999999999994</ele><time>2026-05-03T10:14:53.003Z</time></trkpt><trkpt lat="43.80509370483271" lon="10.964204824246131"><ele>491.0</ele><time>2026-05-03T10:14:56.003Z</time></trkpt><trkpt lat="43.80512072729175" lon="10.964294375687901"><ele>491.0</ele><time>2026-05-03T10:15:02.002Z</time></trkpt><trkpt lat="43.80519976790503" lon="10.964340114385534"><ele>490.99999999999994</ele><time>2026-05-03T10:15:06.002Z</time></trkpt><trkpt lat="43.80525650620087" lon="10.964380504490514"><ele>491.0</ele><time>2026-05-03T10:15:10.002Z</time></trkpt><trkpt lat="43.80532859757523" lon="10.964360903383783"><ele>491.0</ele><time>2026-05-03T10:15:15.002Z</time></trkpt><trkpt lat="43.8053468262594" lon="10.96426071783235"><ele>491.85714285714283</ele><time>2026-05-03T10:15:20.002Z</time></trkpt><trkpt lat="43.805389502280846" lon="10.964192233851872"><ele>492.71428571428567</ele><time>2026-05-03T10:15:25.002Z</time></trkpt><trkpt lat="43.8054043154291" lon="10.964102330077116"><ele>493.57142857142856</ele><time>2026-05-03T10:15:29.002Z</time></trkpt><trkpt lat="43.805444767604435" lon="10.96401046210686"><ele>494.42857142857144</ele><time>2026-05-03T10:15:34.002Z</time></trkpt><trkpt lat="43.80550055320812" lon="10.963943954523824"><ele>495.2857142857143</ele><time>2026-05-03T10:15:38.002Z</time></trkpt><trkpt lat="43.80555528755816" lon="10.963894925970195"><ele>496.1428571428571</ele><time>2026-05-03T10:15:42.002Z</time></trkpt><trkpt lat="43.8056198550651" lon="10.96386270613636"><ele>497.0</ele><time>2026-05-03T10:15:47.002Z</time></trkpt><trkpt lat="43.8056880740193" lon="10.963831119962512"><ele>497.0</ele><time>2026-05-03T10:15:52.002Z</time></trkpt><trkpt lat="43.805754964142515" lon="10.963796154803898"><ele>497.0</ele><time>2026-05-03T10:15:57.002Z</time></trkpt><trkpt lat="43.80582396492655" lon="10.963778990516458"><ele>497.0</ele><time>2026-05-03T10:16:01.002Z</time></trkpt><trkpt lat="43.80589098079863" lon="10.963756569027442"><ele>497.0</ele><time>2026-05-03T10:16:05.002Z</time></trkpt><trkpt lat="43.80595106754274" lon="10.963703364814537"><ele>497.0</ele><time>2026-05-03T10:16:09.002Z</time></trkpt><trkpt lat="43.805944592645766" lon="10.963610704360862"><ele>497.0</ele><time>2026-05-03T10:16:14.002Z</time></trkpt><trkpt lat="43.80593354079633" lon="10.963524692013719"><ele>497.0</ele><time>2026-05-03T10:16:17.002Z</time></trkpt><trkpt lat="43.80589999219993" lon="10.963445600070775"><ele>495.2857142857143</ele><time>2026-05-03T10:16:21.002Z</time></trkpt><trkpt lat="43.8058823733484" lon="10.963344073191392"><ele>493.57142857142856</ele><time>2026-05-03T10:16:25.002Z</time></trkpt><trkpt lat="43.805840192233504" lon="10.963243599412586"><ele>491.8571428571429</ele><time>2026-05-03T10:16:30.002Z</time></trkpt><trkpt lat="43.80579758821869" lon="10.963153410762159"><ele>490.14285714285717</ele><time>2026-05-03T10:16:34.002Z</time></trkpt><trkpt lat="43.80577090022669" lon="10.963065139794358"><ele>488.42857142857144</ele><time>2026-05-03T10:16:38.002Z</time></trkpt><trkpt lat="43.80573455508491" lon="10.962990083958575"><ele>486.7142857142858</ele><time>2026-05-03T10:16:42.004Z</time></trkpt><trkpt lat="43.80570821495955" lon="10.962905788481576"><ele>485.00000000000006</ele><time>2026-05-03T10:16:46.004Z</time></trkpt><trkpt lat="43.805677248503386" lon="10.962826364641568"><ele>485.00000000000006</ele><time>2026-05-03T10:16:50.003Z</time></trkpt><trkpt lat="43.80563666416635" lon="10.962752586192288"><ele>485.0</ele><time>2026-05-03T10:16:54.003Z</time></trkpt><trkpt lat="43.80559749852888" lon="10.962665118657238"><ele>485.00000000000006</ele><time>2026-05-03T10:16:58.003Z</time></trkpt><trkpt lat="43.805563047683236" lon="10.9625800712586"><ele>485.00000000000006</ele><time>2026-05-03T10:17:02.003Z</time></trkpt><trkpt lat="43.80553976751351" lon="10.962484142030421"><ele>485.0</ele><time>2026-05-03T10:17:07.003Z</time></trkpt><trkpt lat="43.805508900526085" lon="10.962382470578946"><ele>485.00000000000006</ele><time>2026-05-03T10:17:12.003Z</time></trkpt><trkpt lat="43.805501270612844" lon="10.9622913595411"><ele>485.00000000000006</ele><time>2026-05-03T10:17:16.003Z</time></trkpt><trkpt lat="43.80547996810803" lon="10.962202218478392"><ele>487.3333333333333</ele><time>2026-05-03T10:17:20.003Z</time></trkpt><trkpt lat="43.805461447561" lon="10.962093008038863"><ele>489.66666666666663</ele><time>2026-05-03T10:17:24.003Z</time></trkpt><trkpt lat="43.805449254572665" lon="10.961997872883703"><ele>492.0</ele><time>2026-05-03T10:17:28.003Z</time></trkpt><trkpt lat="43.80542871927966" lon="10.96188502798616"><ele>494.33333333333337</ele><time>2026-05-03T10:17:32.003Z</time></trkpt><trkpt lat="43.80541331314935" lon="10.96174199623653"><ele>496.6666666666667</ele><time>2026-05-03T10:17:37.003Z</time></trkpt><trkpt lat="43.80542002212431" lon="10.961654386798157"><ele>499.0</ele><time>2026-05-03T10:17:40.003Z</time></trkpt><trkpt lat="43.805427033235986" lon="10.961547229491043"><ele>499.4285714285715</ele><time>2026-05-03T10:17:44.003Z</time></trkpt><trkpt lat="43.8054484308672" lon="10.96144261969566"><ele>499.8571428571429</ele><time>2026-05-03T10:17:48.003Z</time></trkpt><trkpt lat="43.80548505596748" lon="10.961354936147256"><ele>500.2857142857143</ele><time>2026-05-03T10:17:51.003Z</time></trkpt><trkpt lat="43.80554324869643" lon="10.961285907232094"><ele>500.7142857142857</ele><time>2026-05-03T10:17:55.003Z</time></trkpt><trkpt lat="43.805600047556304" lon="10.96122707096406"><ele>501.1428571428571</ele><time>2026-05-03T10:17:59.003Z</time></trkpt><trkpt lat="43.805649680989674" lon="10.961161491592824"><ele>501.5714285714285</ele><time>2026-05-03T10:18:03.003Z</time></trkpt><trkpt lat="43.80569244176215" lon="10.961072692340194"><ele>501.99999999999994</ele><time>2026-05-03T10:18:07.003Z</time></trkpt><trkpt lat="43.805717031273225" lon="10.960987548402567"><ele>502.00000000000006</ele><time>2026-05-03T10:18:11.003Z</time></trkpt><trkpt lat="43.805710927157435" lon="10.960875328532039"><ele>502.0</ele><time>2026-05-03T10:18:15.003Z</time></trkpt><trkpt lat="43.80568816269654" lon="10.960765474319329"><ele>502.0</ele><time>2026-05-03T10:18:19.002Z</time></trkpt><trkpt lat="43.80566722185119" lon="10.960663392245031"><ele>502.0</ele><time>2026-05-03T10:18:23.002Z</time></trkpt><trkpt lat="43.80562916221255" lon="10.960564673799972"><ele>502.00000000000006</ele><time>2026-05-03T10:18:27.002Z</time></trkpt><trkpt lat="43.80558790458441" lon="10.960485233294094"><ele>502.0</ele><time>2026-05-03T10:18:31.002Z</time></trkpt><trkpt lat="43.805551862589816" lon="10.960398036814672"><ele>502.1428571428571</ele><time>2026-05-03T10:18:35.002Z</time></trkpt><trkpt lat="43.80551983890124" lon="10.96031409880383"><ele>502.2857142857143</ele><time>2026-05-03T10:18:39.002Z</time></trkpt><trkpt lat="43.80548507915055" lon="10.96023140318232"><ele>502.42857142857144</ele><time>2026-05-03T10:18:43.002Z</time></trkpt><trkpt lat="43.805448523326184" lon="10.960148311717493"><ele>502.57142857142856</ele><time>2026-05-03T10:18:47.005Z</time></trkpt><trkpt lat="43.80540847313453" lon="10.960055659803734"><ele>502.7142857142858</ele><time>2026-05-03T10:18:51.004Z</time></trkpt><trkpt lat="43.80536389768614" lon="10.959962424383608"><ele>502.8571428571429</ele><time>2026-05-03T10:18:55.004Z</time></trkpt><trkpt lat="43.80533468169521" lon="10.959875507076909"><ele>503.0</ele><time>2026-05-03T10:19:00.004Z</time></trkpt><trkpt lat="43.80529503378784" lon="10.95976727340297"><ele>503.0</ele><time>2026-05-03T10:19:04.004Z</time></trkpt><trkpt lat="43.805288112299124" lon="10.959653826310637"><ele>503.00000000000006</ele><time>2026-05-03T10:19:08.004Z</time></trkpt><trkpt lat="43.80527879128169" lon="10.959552880162875"><ele>503.0</ele><time>2026-05-03T10:19:12.004Z</time></trkpt><trkpt lat="43.805276644038315" lon="10.959459482774733"><ele>503.0</ele><time>2026-05-03T10:19:16.004Z</time></trkpt><trkpt lat="43.805274760327656" lon="10.959366341348003"><ele>503.00000000000006</ele><time>2026-05-03T10:19:19.004Z</time></trkpt><trkpt lat="43.80526580467814" lon="10.959269843040417"><ele>503.0</ele><time>2026-05-03T10:19:23.004Z</time></trkpt><trkpt lat="43.80528617280729" lon="10.959170926942551"><ele>503.0</ele><time>2026-05-03T10:19:27.004Z</time></trkpt><trkpt lat="43.805287818810136" lon="10.959078603467564"><ele>503.42857142857144</ele><time>2026-05-03T10:19:31.004Z</time></trkpt><trkpt lat="43.80528919208817" lon="10.95897447255969"><ele>503.8571428571429</ele><time>2026-05-03T10:19:34.004Z</time></trkpt><trkpt lat="43.80529638588159" lon="10.958883970742713"><ele>504.28571428571433</ele><time>2026-05-03T10:19:37.004Z</time></trkpt><trkpt lat="43.80530602359607" lon="10.958793390991248"><ele>504.7142857142858</ele><time>2026-05-03T10:19:40.004Z</time></trkpt><trkpt lat="43.80532579830539" lon="10.958682231479644"><ele>505.14285714285717</ele><time>2026-05-03T10:19:44.004Z</time></trkpt><trkpt lat="43.80535269680248" lon="10.958575000979222"><ele>505.57142857142867</ele><time>2026-05-03T10:19:48.004Z</time></trkpt><trkpt lat="43.80539344838519" lon="10.95848386357309"><ele>506.00000000000006</ele><time>2026-05-03T10:19:52.004Z</time></trkpt><trkpt lat="43.805433431393666" lon="10.958415818508957"><ele>504.28571428571433</ele><time>2026-05-03T10:19:56.004Z</time></trkpt><trkpt lat="43.805488206235474" lon="10.958338912880075"><ele>502.57142857142856</ele><time>2026-05-03T10:19:59.004Z</time></trkpt><trkpt lat="43.80554365737186" lon="10.95827039542507"><ele>500.8571428571429</ele><time>2026-05-03T10:20:02.004Z</time></trkpt><trkpt lat="43.8056088346349" lon="10.958209081645286"><ele>499.14285714285717</ele><time>2026-05-03T10:20:06.004Z</time></trkpt><trkpt lat="43.80567758506846" lon="10.958152568626408"><ele>497.42857142857144</ele><time>2026-05-03T10:20:10.004Z</time></trkpt><trkpt lat="43.80573254437772" lon="10.958097255478894"><ele>495.7142857142857</ele><time>2026-05-03T10:20:14.004Z</time></trkpt><trkpt lat="43.80577956706187" lon="10.958026607810824"><ele>494.0</ele><time>2026-05-03T10:20:19.004Z</time></trkpt><trkpt lat="43.805814620442696" lon="10.957947231915707"><ele>494.0</ele><time>2026-05-03T10:20:25.003Z</time></trkpt><trkpt lat="43.80584285454485" lon="10.957856548362303"><ele>494.0</ele><time>2026-05-03T10:20:30.003Z</time></trkpt><trkpt lat="43.80585564761274" lon="10.957749457461759"><ele>494.0</ele><time>2026-05-03T10:20:35.003Z</time></trkpt><trkpt lat="43.8058679069809" lon="10.957663715905168"><ele>494.0</ele><time>2026-05-03T10:20:41.003Z</time></trkpt><trkpt lat="43.8059070835043" lon="10.957568033711253"><ele>494.0</ele><time>2026-05-03T10:20:48.003Z</time></trkpt><trkpt lat="43.80592856730451" lon="10.957485895587858"><ele>494.0</ele><time>2026-05-03T10:20:55.005Z</time></trkpt><trkpt lat="43.80595459011418" lon="10.957398583889947"><ele>494.0</ele><time>2026-05-03T10:21:02.005Z</time></trkpt><trkpt lat="43.805967254290195" lon="10.957310103917887"><ele>495.7142857142857</ele><time>2026-05-03T10:21:06.005Z</time></trkpt><trkpt lat="43.80599280448652" lon="10.957218815974162"><ele>497.42857142857144</ele><time>2026-05-03T10:21:11.005Z</time></trkpt><trkpt lat="43.806005860246856" lon="10.9571267510272"><ele>499.14285714285717</ele><time>2026-05-03T10:21:18.005Z</time></trkpt><trkpt lat="43.806030692677155" lon="10.957045669763115"><ele>500.8571428571429</ele><time>2026-05-03T10:21:23.005Z</time></trkpt><trkpt lat="43.80604422207547" lon="10.956958566068938"><ele>502.57142857142856</ele><time>2026-05-03T10:21:28.005Z</time></trkpt><trkpt lat="43.806083034180254" lon="10.95687357197173"><ele>504.28571428571433</ele><time>2026-05-03T10:21:35.005Z</time></trkpt><trkpt lat="43.806122079925565" lon="10.956798191495292"><ele>506.00000000000006</ele><time>2026-05-03T10:21:41.005Z</time></trkpt><trkpt lat="43.806164078610415" lon="10.956727330293573"><ele>504.28571428571433</ele><time>2026-05-03T10:21:47.005Z</time></trkpt><trkpt lat="43.80622037932209" lon="10.956685759602845"><ele>502.57142857142856</ele><time>2026-05-03T10:21:53.005Z</time></trkpt><trkpt lat="43.80628488051669" lon="10.956663679216767"><ele>500.8571428571429</ele><time>2026-05-03T10:21:59.005Z</time></trkpt><trkpt lat="43.80635632324289" lon="10.956651729309282"><ele>499.14285714285717</ele><time>2026-05-03T10:22:06.005Z</time></trkpt><trkpt lat="43.806420412920986" lon="10.95660837384312"><ele>497.42857142857144</ele><time>2026-05-03T10:22:12.005Z</time></trkpt><trkpt lat="43.806483851137614" lon="10.956603699250488"><ele>495.7142857142857</ele><time>2026-05-03T10:22:16.005Z</time></trkpt><trkpt lat="43.8065480782286" lon="10.956593807456715"><ele>494.0</ele><time>2026-05-03T10:22:20.005Z</time></trkpt><trkpt lat="43.806618782942735" lon="10.956571531350868"><ele>494.0</ele><time>2026-05-03T10:22:27.005Z</time></trkpt><trkpt lat="43.806682720215164" lon="10.956582719614627"><ele>494.0</ele><time>2026-05-03T10:22:33.004Z</time></trkpt><trkpt lat="43.806754481490884" lon="10.956587615578607"><ele>494.0</ele><time>2026-05-03T10:22:38.004Z</time></trkpt><trkpt lat="43.80682155616015" lon="10.956589811323106"><ele>494.0</ele><time>2026-05-03T10:22:41.004Z</time></trkpt><trkpt lat="43.80689847988159" lon="10.95660352070452"><ele>494.0</ele><time>2026-05-03T10:22:45.004Z</time></trkpt><trkpt lat="43.806916977966125" lon="10.956507937621867"><ele>494.0</ele><time>2026-05-03T10:23:00.005Z</time></trkpt><trkpt lat="43.80694378878634" lon="10.956398362579213"><ele>494.0</ele><time>2026-05-03T10:23:04.006Z</time></trkpt><trkpt lat="43.80695914160343" lon="10.956268569226124"><ele>493.0</ele><time>2026-05-03T10:23:07.006Z</time></trkpt><trkpt lat="43.80695970822188" lon="10.95616938500992"><ele>492.0</ele><time>2026-05-03T10:23:12.006Z</time></trkpt><trkpt lat="43.80696379193942" lon="10.956081225698147"><ele>491.0</ele><time>2026-05-03T10:23:15.006Z</time></trkpt><trkpt lat="43.80694963126146" lon="10.955978890291178"><ele>490.0</ele><time>2026-05-03T10:23:19.006Z</time></trkpt><trkpt lat="43.806936217400924" lon="10.955887077842373"><ele>489.0</ele><time>2026-05-03T10:23:23.006Z</time></trkpt><trkpt lat="43.806960309493476" lon="10.955803223349648"><ele>488.0</ele><time>2026-05-03T10:23:30.006Z</time></trkpt><trkpt lat="43.806905564285444" lon="10.95575150796715"><ele>487.0</ele><time>2026-05-03T10:23:34.005Z</time></trkpt><trkpt lat="43.806858837618286" lon="10.95566824453495"><ele>485.8571428571429</ele><time>2026-05-03T10:23:38.005Z</time></trkpt><trkpt lat="43.806805520171686" lon="10.955603344192214"><ele>484.71428571428567</ele><time>2026-05-03T10:23:42.005Z</time></trkpt><trkpt lat="43.80677942799696" lon="10.955515419162762"><ele>483.57142857142856</ele><time>2026-05-03T10:23:45.005Z</time></trkpt><trkpt lat="43.806749170505434" lon="10.955421602796923"><ele>482.42857142857144</ele><time>2026-05-03T10:23:49.005Z</time></trkpt><trkpt lat="43.806747534381415" lon="10.955333331420068"><ele>481.28571428571433</ele><time>2026-05-03T10:23:54.005Z</time></trkpt><trkpt lat="43.806726998140824" lon="10.955223378949887"><ele>480.1428571428571</ele><time>2026-05-03T10:23:58.005Z</time></trkpt><trkpt lat="43.80671546141338" lon="10.955117695057544"><ele>479.0</ele><time>2026-05-03T10:24:02.005Z</time></trkpt><trkpt lat="43.80667647186827" lon="10.955007749086949"><ele>477.1428571428571</ele><time>2026-05-03T10:24:06.005Z</time></trkpt><trkpt lat="43.806629360839274" lon="10.954942520814857"><ele>475.28571428571433</ele><time>2026-05-03T10:24:09.005Z</time></trkpt><trkpt lat="43.80658486796968" lon="10.95487798587726"><ele>473.42857142857144</ele><time>2026-05-03T10:24:12.005Z</time></trkpt><trkpt lat="43.80653872203407" lon="10.954810460895994"><ele>471.57142857142856</ele><time>2026-05-03T10:24:15.005Z</time></trkpt><trkpt lat="43.806508459511626" lon="10.954721859318546"><ele>469.71428571428567</ele><time>2026-05-03T10:24:18.005Z</time></trkpt><trkpt lat="43.80644808135365" lon="10.954692139180736"><ele>467.8571428571429</ele><time>2026-05-03T10:24:22.005Z</time></trkpt><trkpt lat="43.80640852464695" lon="10.954598621878537"><ele>466.0</ele><time>2026-05-03T10:24:26.005Z</time></trkpt><trkpt lat="43.80639204039154" lon="10.954500649278101"><ele>466.00000000000006</ele><time>2026-05-03T10:24:29.005Z</time></trkpt><trkpt lat="43.80636903551081" lon="10.954406114242385"><ele>466.0</ele><time>2026-05-03T10:24:33.005Z</time></trkpt><trkpt lat="43.80635213549723" lon="10.954302095471332"><ele>466.0</ele><time>2026-05-03T10:24:39.005Z</time></trkpt><trkpt lat="43.8063434578315" lon="10.954183415530363"><ele>466.0</ele><time>2026-05-03T10:24:45.005Z</time></trkpt><trkpt lat="43.806337088126156" lon="10.9540880263798"><ele>466.00000000000006</ele><time>2026-05-03T10:24:49.005Z</time></trkpt><trkpt lat="43.80630698024899" lon="10.953995462136543"><ele>466.0</ele><time>2026-05-03T10:24:54.005Z</time></trkpt><trkpt lat="43.80626466918237" lon="10.953908461320893"><ele>463.7142857142857</ele><time>2026-05-03T10:24:58.005Z</time></trkpt><trkpt lat="43.806242211941594" lon="10.953824250454076"><ele>461.42857142857144</ele><time>2026-05-03T10:25:01.005Z</time></trkpt><trkpt lat="43.806192990765844" lon="10.95374982057324"><ele>459.14285714285717</ele><time>2026-05-03T10:25:04.007Z</time></trkpt><trkpt lat="43.80615151365194" lon="10.95366567337379"><ele>456.8571428571429</ele><time>2026-05-03T10:25:08.007Z</time></trkpt><trkpt lat="43.80612266608798" lon="10.953576945734557"><ele>454.57142857142856</ele><time>2026-05-03T10:25:13.007Z</time></trkpt><trkpt lat="43.80608390656564" lon="10.953478339920446"><ele>452.28571428571433</ele><time>2026-05-03T10:25:17.007Z</time></trkpt><trkpt lat="43.806030330187895" lon="10.953392756461826"><ele>450.00000000000006</ele><time>2026-05-03T10:25:21.007Z</time></trkpt><trkpt lat="43.80597073475911" lon="10.953360960750702"><ele>449.1428571428572</ele><time>2026-05-03T10:25:24.007Z</time></trkpt><trkpt lat="43.805904629818436" lon="10.953328748744008"><ele>448.28571428571433</ele><time>2026-05-03T10:25:28.007Z</time></trkpt><trkpt lat="43.805840536899844" lon="10.95321930702945"><ele>447.42857142857144</ele><time>2026-05-03T10:25:32.007Z</time></trkpt><trkpt lat="43.80578731283169" lon="10.953147899297688"><ele>446.5714285714286</ele><time>2026-05-03T10:25:36.007Z</time></trkpt><trkpt lat="43.805754295475026" lon="10.953065587092198"><ele>445.7142857142858</ele><time>2026-05-03T10:25:39.007Z</time></trkpt><trkpt lat="43.80571729336086" lon="10.952992882676353"><ele>444.85714285714283</ele><time>2026-05-03T10:25:42.007Z</time></trkpt><trkpt lat="43.805679708138" lon="10.952914867795766"><ele>444.0</ele><time>2026-05-03T10:25:45.007Z</time></trkpt><trkpt lat="43.80563647954472" lon="10.95281937468001"><ele>444.0</ele><time>2026-05-03T10:25:49.007Z</time></trkpt><trkpt lat="43.805591415979706" lon="10.952753161191092"><ele>444.0</ele><time>2026-05-03T10:25:52.007Z</time></trkpt><trkpt lat="43.805548548003635" lon="10.952686385716344"><ele>444.0</ele><time>2026-05-03T10:25:55.007Z</time></trkpt><trkpt lat="43.80548898510043" lon="10.952621325338063"><ele>444.0</ele><time>2026-05-03T10:25:58.007Z</time></trkpt><trkpt lat="43.80541460347035" lon="10.952632530675995"><ele>444.0</ele><time>2026-05-03T10:26:02.007Z</time></trkpt><trkpt lat="43.805353546685446" lon="10.952681987502011"><ele>444.0</ele><time>2026-05-03T10:26:05.007Z</time></trkpt><trkpt lat="43.80527924466086" lon="10.952726654784689"><ele>444.0</ele><time>2026-05-03T10:26:09.007Z</time></trkpt><trkpt lat="43.805205516180685" lon="10.952714169606601"><ele>444.0</ele><time>2026-05-03T10:26:13.007Z</time></trkpt><trkpt lat="43.80518975909668" lon="10.952605644115353"><ele>444.0</ele><time>2026-05-03T10:26:17.007Z</time></trkpt><trkpt lat="43.805169369792125" lon="10.952518489714771"><ele>444.0</ele><time>2026-05-03T10:26:20.007Z</time></trkpt><trkpt lat="43.8051608177569" lon="10.952422257076586"><ele>444.0</ele><time>2026-05-03T10:26:24.006Z</time></trkpt><trkpt lat="43.80513532397176" lon="10.952311182312355"><ele>444.0</ele><time>2026-05-03T10:26:28.006Z</time></trkpt><trkpt lat="43.80514226138264" lon="10.952222850484311"><ele>444.0</ele><time>2026-05-03T10:26:31.006Z</time></trkpt><trkpt lat="43.80516386501756" lon="10.952120835492673"><ele>444.0</ele><time>2026-05-03T10:26:35.006Z</time></trkpt><trkpt lat="43.80521436297132" lon="10.952057076723909"><ele>441.4285714285714</ele><time>2026-05-03T10:26:38.006Z</time></trkpt><trkpt lat="43.80526936941195" lon="10.95199541732722"><ele>438.8571428571429</ele><time>2026-05-03T10:26:43.006Z</time></trkpt><trkpt lat="43.80532073881912" lon="10.951907330189641"><ele>436.2857142857143</ele><time>2026-05-03T10:26:47.006Z</time></trkpt><trkpt lat="43.805345596148165" lon="10.951824237491143"><ele>433.71428571428567</ele><time>2026-05-03T10:26:51.006Z</time></trkpt><trkpt lat="43.8053573535517" lon="10.95172648017944"><ele>431.1428571428571</ele><time>2026-05-03T10:26:54.006Z</time></trkpt><trkpt lat="43.805323553067616" lon="10.951649206671885"><ele>428.57142857142856</ele><time>2026-05-03T10:26:57.006Z</time></trkpt><trkpt lat="43.80529783070528" lon="10.951561340960591"><ele>426.0</ele><time>2026-05-03T10:27:00.006Z</time></trkpt><trkpt lat="43.80526997842549" lon="10.951462913935709"><ele>423.71428571428567</ele><time>2026-05-03T10:27:03.006Z</time></trkpt><trkpt lat="43.805232997106096" lon="10.951374852365483"><ele>421.42857142857144</ele><time>2026-05-03T10:27:06.006Z</time></trkpt><trkpt lat="43.80520599745918" lon="10.951293253069053"><ele>419.1428571428571</ele><time>2026-05-03T10:27:09.007Z</time></trkpt><trkpt lat="43.80517725221499" lon="10.95120909969664"><ele>416.85714285714283</ele><time>2026-05-03T10:27:12.008Z</time></trkpt><trkpt lat="43.805155549622846" lon="10.951115805521086"><ele>414.57142857142856</ele><time>2026-05-03T10:27:15.008Z</time></trkpt><trkpt lat="43.80515067515186" lon="10.95102087500453"><ele>412.2857142857143</ele><time>2026-05-03T10:27:18.008Z</time></trkpt><trkpt lat="43.80513695470755" lon="10.950933640913384"><ele>410.0</ele><time>2026-05-03T10:27:21.008Z</time></trkpt><trkpt lat="43.805130150222915" lon="10.950823491794415"><ele>408.7142857142857</ele><time>2026-05-03T10:27:25.008Z</time></trkpt><trkpt lat="43.80509203854123" lon="10.950746564890574"><ele>407.4285714285714</ele><time>2026-05-03T10:27:28.008Z</time></trkpt><trkpt lat="43.80505684480184" lon="10.95066863084956"><ele>406.1428571428571</ele><time>2026-05-03T10:27:31.008Z</time></trkpt><trkpt lat="43.80502978239215" lon="10.950565413676246"><ele>404.8571428571429</ele><time>2026-05-03T10:27:35.008Z</time></trkpt><trkpt lat="43.805001663897635" lon="10.950474736216078"><ele>403.57142857142856</ele><time>2026-05-03T10:27:39.008Z</time></trkpt><trkpt lat="43.80497008189812" lon="10.950398646955096"><ele>402.2857142857143</ele><time>2026-05-03T10:27:42.008Z</time></trkpt><trkpt lat="43.804917113969665" lon="10.95029282628847"><ele>401.0</ele><time>2026-05-03T10:27:46.008Z</time></trkpt><trkpt lat="43.80486964393588" lon="10.950214447682288"><ele>401.0</ele><time>2026-05-03T10:27:49.008Z</time></trkpt><trkpt lat="43.804818844551384" lon="10.950143042525808"><ele>401.0</ele><time>2026-05-03T10:27:52.008Z</time></trkpt><trkpt lat="43.80477556496358" lon="10.950065084377252"><ele>401.0</ele><time>2026-05-03T10:27:55.008Z</time></trkpt><trkpt lat="43.80473122711187" lon="10.950002781123189"><ele>401.0</ele><time>2026-05-03T10:27:58.008Z</time></trkpt><trkpt lat="43.80468293596775" lon="10.9499468217342"><ele>401.0</ele><time>2026-05-03T10:28:01.008Z</time></trkpt><trkpt lat="43.80463152967091" lon="10.949883431607832"><ele>401.0</ele><time>2026-05-03T10:28:04.008Z</time></trkpt><trkpt lat="43.80458477290529" lon="10.94980207349977"><ele>401.0</ele><time>2026-05-03T10:28:07.008Z</time></trkpt><trkpt lat="43.80453694249199" lon="10.949723615951696"><ele>398.66666666666663</ele><time>2026-05-03T10:28:10.007Z</time></trkpt><trkpt lat="43.80448652671893" lon="10.949656261324561"><ele>396.3333333333333</ele><time>2026-05-03T10:28:13.007Z</time></trkpt><trkpt lat="43.80442753967222" lon="10.94958051083203"><ele>394.0</ele><time>2026-05-03T10:28:16.007Z</time></trkpt><trkpt lat="43.80437599889729" lon="10.94949680938925"><ele>391.66666666666663</ele><time>2026-05-03T10:28:19.007Z</time></trkpt><trkpt lat="43.804331041857665" lon="10.949409054519382"><ele>389.3333333333333</ele><time>2026-05-03T10:28:22.007Z</time></trkpt><trkpt lat="43.804266852073155" lon="10.949360454083074"><ele>387.0</ele><time>2026-05-03T10:28:25.007Z</time></trkpt><trkpt lat="43.80420729198118" lon="10.949302690659808"><ele>386.57142857142856</ele><time>2026-05-03T10:28:28.007Z</time></trkpt><trkpt lat="43.8041278058613" lon="10.94925608236743"><ele>386.14285714285717</ele><time>2026-05-03T10:28:31.007Z</time></trkpt><trkpt lat="43.80406747954467" lon="10.9492260363479"><ele>385.71428571428567</ele><time>2026-05-03T10:28:34.007Z</time></trkpt><trkpt lat="43.80401408106252" lon="10.949177802985108"><ele>385.2857142857143</ele><time>2026-05-03T10:28:36.007Z</time></trkpt><trkpt lat="43.80394817104187" lon="10.949114481771685"><ele>384.85714285714283</ele><time>2026-05-03T10:28:39.007Z</time></trkpt><trkpt lat="43.80390443433055" lon="10.949033680323064"><ele>384.4285714285714</ele><time>2026-05-03T10:28:42.007Z</time></trkpt><trkpt lat="43.80384744072173" lon="10.948962633110094"><ele>384.0</ele><time>2026-05-03T10:28:45.007Z</time></trkpt><trkpt lat="43.803783847240624" lon="10.948886323254387"><ele>383.99999999999994</ele><time>2026-05-03T10:28:48.007Z</time></trkpt><trkpt lat="43.803719875941326" lon="10.94883501799387"><ele>384.0</ele><time>2026-05-03T10:28:51.007Z</time></trkpt><trkpt lat="43.80365994330268" lon="10.948788445833863"><ele>384.0</ele><time>2026-05-03T10:28:54.007Z</time></trkpt><trkpt lat="43.80359534312361" lon="10.94874723587301"><ele>384.0</ele><time>2026-05-03T10:28:57.007Z</time></trkpt><trkpt lat="43.80353938005631" lon="10.948696731715646"><ele>384.0</ele><time>2026-05-03T10:29:00.007Z</time></trkpt><trkpt lat="43.80347645106308" lon="10.948660598893435"><ele>383.99999999999994</ele><time>2026-05-03T10:29:03.007Z</time></trkpt><trkpt lat="43.80343322923678" lon="10.948592166853455"><ele>384.0</ele><time>2026-05-03T10:29:06.007Z</time></trkpt><trkpt lat="43.803434086432915" lon="10.948493964610602"><ele>383.99999999999994</ele><time>2026-05-03T10:29:09.007Z</time></trkpt><trkpt lat="43.80349478311029" lon="10.948448290987645"><ele>384.0</ele><time>2026-05-03T10:29:12.007Z</time></trkpt><trkpt lat="43.80356495778496" lon="10.948418841176277"><ele>384.0</ele><time>2026-05-03T10:29:17.009Z</time></trkpt><trkpt lat="43.803642940240934" lon="10.948437066771035"><ele>384.0</ele><time>2026-05-03T10:29:21.008Z</time></trkpt><trkpt lat="43.80370722076562" lon="10.948459248026085"><ele>384.0</ele><time>2026-05-03T10:29:25.008Z</time></trkpt><trkpt lat="43.80376540073985" lon="10.94849502466238"><ele>383.99999999999994</ele><time>2026-05-03T10:29:28.009Z</time></trkpt><trkpt lat="43.80384662378039" lon="10.948516304454325"><ele>384.0</ele><time>2026-05-03T10:29:32.009Z</time></trkpt><trkpt lat="43.80392974699257" lon="10.948547791616138"><ele>384.0</ele><time>2026-05-03T10:29:36.009Z</time></trkpt><trkpt lat="43.804005968286255" lon="10.9485093401405"><ele>384.0</ele><time>2026-05-03T10:29:40.009Z</time></trkpt><trkpt lat="43.80401387114444" lon="10.948407288002244"><ele>384.0</ele><time>2026-05-03T10:29:44.009Z</time></trkpt><trkpt lat="43.80395259672422" lon="10.948339381814225"><ele>384.0</ele><time>2026-05-03T10:29:48.009Z</time></trkpt><trkpt lat="43.803886005678244" lon="10.94825516571759"><ele>384.0</ele><time>2026-05-03T10:29:52.009Z</time></trkpt><trkpt lat="43.80382641178464" lon="10.948203031965141"><ele>384.0</ele><time>2026-05-03T10:29:56.009Z</time></trkpt><trkpt lat="43.80376432049198" lon="10.948130935792161"><ele>381.2857142857143</ele><time>2026-05-03T10:30:00.009Z</time></trkpt><trkpt lat="43.80371272374349" lon="10.948075900145152"><ele>378.57142857142856</ele><time>2026-05-03T10:30:03.009Z</time></trkpt><trkpt lat="43.80365641525688" lon="10.94800836059172"><ele>375.8571428571429</ele><time>2026-05-03T10:30:07.008Z</time></trkpt><trkpt lat="43.8036038119827" lon="10.947950045514089"><ele>373.1428571428571</ele><time>2026-05-03T10:30:10.008Z</time></trkpt><trkpt lat="43.80354583254606" lon="10.94790792764738"><ele>370.42857142857144</ele><time>2026-05-03T10:30:13.008Z</time></trkpt><trkpt lat="43.80351045926026" lon="10.94782726963243"><ele>367.7142857142857</ele><time>2026-05-03T10:30:16.008Z</time></trkpt><trkpt lat="43.803456241073896" lon="10.94776263783261"><ele>365.0</ele><time>2026-05-03T10:30:20.008Z</time></trkpt><trkpt lat="43.80340101129762" lon="10.94768675436095"><ele>365.00000000000006</ele><time>2026-05-03T10:30:24.008Z</time></trkpt><trkpt lat="43.80334065600759" lon="10.947614195763324"><ele>365.0</ele><time>2026-05-03T10:30:28.008Z</time></trkpt><trkpt lat="43.80328657126475" lon="10.94753726270265"><ele>365.0</ele><time>2026-05-03T10:30:32.008Z</time></trkpt><trkpt lat="43.80323097847283" lon="10.947457689356085"><ele>365.0</ele><time>2026-05-03T10:30:36.008Z</time></trkpt><trkpt lat="43.80318855367487" lon="10.947374488623252"><ele>365.0</ele><time>2026-05-03T10:30:39.008Z</time></trkpt><trkpt lat="43.803140754636985" lon="10.947314824793947"><ele>365.00000000000006</ele><time>2026-05-03T10:30:42.008Z</time></trkpt><trkpt lat="43.80309560633744" lon="10.94724186808372"><ele>365.0</ele><time>2026-05-03T10:30:45.008Z</time></trkpt><trkpt lat="43.8030389236133" lon="10.947193212780375"><ele>361.8571428571429</ele><time>2026-05-03T10:30:48.008Z</time></trkpt><trkpt lat="43.80297518464212" lon="10.947127080911438"><ele>358.7142857142857</ele><time>2026-05-03T10:30:51.008Z</time></trkpt><trkpt lat="43.802913066725" lon="10.9470755379978"><ele>355.57142857142856</ele><time>2026-05-03T10:30:54.008Z</time></trkpt><trkpt lat="43.80285669609322" lon="10.947019411856042"><ele>352.42857142857144</ele><time>2026-05-03T10:30:57.008Z</time></trkpt><trkpt lat="43.802801157631514" lon="10.946964822591598"><ele>349.2857142857143</ele><time>2026-05-03T10:31:00.008Z</time></trkpt><trkpt lat="43.80274469347252" lon="10.946897842958581"><ele>346.14285714285717</ele><time>2026-05-03T10:31:03.008Z</time></trkpt><trkpt lat="43.80269059902117" lon="10.94684919648141"><ele>343.0</ele><time>2026-05-03T10:31:06.008Z</time></trkpt><trkpt lat="43.802626908859345" lon="10.946811879723946"><ele>342.42857142857144</ele><time>2026-05-03T10:31:09.008Z</time></trkpt><trkpt lat="43.80257349423096" lon="10.946759561430726"><ele>341.8571428571429</ele><time>2026-05-03T10:31:12.008Z</time></trkpt><trkpt lat="43.80251119607771" lon="10.946739862205161"><ele>341.2857142857143</ele><time>2026-05-03T10:31:15.008Z</time></trkpt><trkpt lat="43.80244615362588" lon="10.946702049101317"><ele>340.7142857142857</ele><time>2026-05-03T10:31:18.008Z</time></trkpt><trkpt lat="43.80238901905107" lon="10.946646825991003"><ele>340.14285714285717</ele><time>2026-05-03T10:31:21.009Z</time></trkpt><trkpt lat="43.80232592256592" lon="10.94661547195181"><ele>339.57142857142856</ele><time>2026-05-03T10:31:24.009Z</time></trkpt><trkpt lat="43.80226181807739" lon="10.946540723714849"><ele>339.0</ele><time>2026-05-03T10:31:27.009Z</time></trkpt><trkpt lat="43.802225761578754" lon="10.946456585644656"><ele>336.85714285714283</ele><time>2026-05-03T10:31:30.009Z</time></trkpt><trkpt lat="43.802208203858044" lon="10.94633198783894"><ele>334.7142857142857</ele><time>2026-05-03T10:31:34.009Z</time></trkpt><trkpt lat="43.80219815127825" lon="10.946237434845026"><ele>332.57142857142856</ele><time>2026-05-03T10:31:38.009Z</time></trkpt><trkpt lat="43.80222557312655" lon="10.946142437334016"><ele>330.42857142857144</ele><time>2026-05-03T10:31:42.009Z</time></trkpt><trkpt lat="43.80226938743722" lon="10.946075606825046"><ele>328.2857142857143</ele><time>2026-05-03T10:31:45.009Z</time></trkpt><trkpt lat="43.80230902959311" lon="10.945994513890824"><ele>326.14285714285717</ele><time>2026-05-03T10:31:49.009Z</time></trkpt><trkpt lat="43.802340194474816" lon="10.945897689259436"><ele>324.0</ele><time>2026-05-03T10:31:53.009Z</time></trkpt><trkpt lat="43.80235232188774" lon="10.945794446517755"><ele>321.3333333333333</ele><time>2026-05-03T10:31:57.009Z</time></trkpt><trkpt lat="43.80236201615628" lon="10.94568543722897"><ele>318.6666666666667</ele><time>2026-05-03T10:32:01.009Z</time></trkpt><trkpt lat="43.80236563329184" lon="10.945575103352411"><ele>316.0</ele><time>2026-05-03T10:32:05.009Z</time></trkpt><trkpt lat="43.8023506221352" lon="10.945490289570849"><ele>313.33333333333337</ele><time>2026-05-03T10:32:08.009Z</time></trkpt><trkpt lat="43.80232440898503" lon="10.945387031130949"><ele>310.6666666666667</ele><time>2026-05-03T10:32:12.009Z</time></trkpt><trkpt lat="43.80231551864169" lon="10.945269704898726"><ele>308.0</ele><time>2026-05-03T10:32:16.009Z</time></trkpt><trkpt lat="43.80228874731638" lon="10.945165078023273"><ele>308.0</ele><time>2026-05-03T10:32:20.009Z</time></trkpt><trkpt lat="43.80227964202227" lon="10.94507643327725"><ele>308.0</ele><time>2026-05-03T10:32:23.009Z</time></trkpt><trkpt lat="43.80226005218244" lon="10.944986304830833"><ele>308.0</ele><time>2026-05-03T10:32:26.009Z</time></trkpt><trkpt lat="43.80224144434271" lon="10.944887140217393"><ele>308.0</ele><time>2026-05-03T10:32:29.008Z</time></trkpt><trkpt lat="43.802227045997064" lon="10.944791500350085"><ele>308.0</ele><time>2026-05-03T10:32:32.008Z</time></trkpt><trkpt lat="43.80223243659621" lon="10.94466234970476"><ele>308.0</ele><time>2026-05-03T10:32:36.007Z</time></trkpt><trkpt lat="43.80224895646357" lon="10.944546610781082"><ele>306.2857142857143</ele><time>2026-05-03T10:32:40.007Z</time></trkpt><trkpt lat="43.802257415591434" lon="10.944427805108774"><ele>304.57142857142856</ele><time>2026-05-03T10:32:44.006Z</time></trkpt><trkpt lat="43.80227991117919" lon="10.94434557750567"><ele>302.8571428571429</ele><time>2026-05-03T10:32:47.006Z</time></trkpt><trkpt lat="43.80229932346043" lon="10.94426250289422"><ele>301.1428571428571</ele><time>2026-05-03T10:32:50.006Z</time></trkpt><trkpt lat="43.802308900061874" lon="10.944172480860555"><ele>299.42857142857144</ele><time>2026-05-03T10:32:53.006Z</time></trkpt><trkpt lat="43.802311707155305" lon="10.944059811673196"><ele>297.7142857142857</ele><time>2026-05-03T10:32:57.006Z</time></trkpt><trkpt lat="43.80231115422401" lon="10.943947608617588"><ele>296.0</ele><time>2026-05-03T10:33:00.005Z</time></trkpt><trkpt lat="43.80228983874441" lon="10.94382459107261"><ele>293.6666666666667</ele><time>2026-05-03T10:33:03.005Z</time></trkpt><trkpt lat="43.802242587009125" lon="10.94372130004281"><ele>291.33333333333337</ele><time>2026-05-03T10:33:06.005Z</time></trkpt><trkpt lat="43.80220548754084" lon="10.94361758981455"><ele>289.0</ele><time>2026-05-03T10:33:09.005Z</time></trkpt><trkpt lat="43.802161071575114" lon="10.943514409211843"><ele>286.6666666666667</ele><time>2026-05-03T10:33:12.005Z</time></trkpt><trkpt lat="43.80213212160755" lon="10.943397600552746"><ele>284.3333333333333</ele><time>2026-05-03T10:33:15.005Z</time></trkpt><trkpt lat="43.80210263750496" lon="10.943289887897603"><ele>282.0</ele><time>2026-05-03T10:33:18.005Z</time></trkpt><trkpt lat="43.80206072407702" lon="10.94319504522009"><ele>279.1666666666667</ele><time>2026-05-03T10:33:21.005Z</time></trkpt><trkpt lat="43.802025739849626" lon="10.943086108129847"><ele>276.3333333333333</ele><time>2026-05-03T10:33:24.005Z</time></trkpt><trkpt lat="43.80200892344064" lon="10.942979882837474"><ele>273.5</ele><time>2026-05-03T10:33:27.007Z</time></trkpt><trkpt lat="43.80197986652103" lon="10.942879398109385"><ele>270.66666666666663</ele><time>2026-05-03T10:33:30.006Z</time></trkpt><trkpt lat="43.80197326130424" lon="10.942772687205553"><ele>267.8333333333333</ele><time>2026-05-03T10:33:33.006Z</time></trkpt><trkpt lat="43.80193503695724" lon="10.94267762154469"><ele>265.0</ele><time>2026-05-03T10:33:36.006Z</time></trkpt><trkpt lat="43.80191403193678" lon="10.942595002066806"><ele>266.1428571428571</ele><time>2026-05-03T10:33:39.006Z</time></trkpt><trkpt lat="43.80189968423458" lon="10.942483521762592"><ele>267.2857142857143</ele><time>2026-05-03T10:33:42.006Z</time></trkpt><trkpt lat="43.80187399068239" lon="10.942379146052765"><ele>268.42857142857144</ele><time>2026-05-03T10:33:45.006Z</time></trkpt><trkpt lat="43.801857870973485" lon="10.942280885599716"><ele>269.57142857142856</ele><time>2026-05-03T10:33:48.006Z</time></trkpt><trkpt lat="43.80182359646999" lon="10.942199977906785"><ele>270.7142857142857</ele><time>2026-05-03T10:33:51.006Z</time></trkpt><trkpt lat="43.801770452701675" lon="10.942134029168468"><ele>271.85714285714283</ele><time>2026-05-03T10:33:54.006Z</time></trkpt><trkpt lat="43.801736940086734" lon="10.942050941234656"><ele>273.0</ele><time>2026-05-03T10:33:57.006Z</time></trkpt><trkpt lat="43.801699664420774" lon="10.941973735738767"><ele>273.0</ele><time>2026-05-03T10:34:00.006Z</time></trkpt><trkpt lat="43.80167358503014" lon="10.941888906237223"><ele>273.0</ele><time>2026-05-03T10:34:02.006Z</time></trkpt><trkpt lat="43.801644717835366" lon="10.94180324607753"><ele>273.0</ele><time>2026-05-03T10:34:05.006Z</time></trkpt><trkpt lat="43.8016144398003" lon="10.941704119672162"><ele>273.0</ele><time>2026-05-03T10:34:08.005Z</time></trkpt><trkpt lat="43.80158552106442" lon="10.941622284867076"><ele>273.0</ele><time>2026-05-03T10:34:11.005Z</time></trkpt><trkpt lat="43.801553475224814" lon="10.94153881841863"><ele>273.0</ele><time>2026-05-03T10:34:14.005Z</time></trkpt><trkpt lat="43.80150598401922" lon="10.941454310278534"><ele>273.0</ele><time>2026-05-03T10:34:17.005Z</time></trkpt><trkpt lat="43.80146073235108" lon="10.941373307633258"><ele>270.3333333333333</ele><time>2026-05-03T10:34:20.005Z</time></trkpt><trkpt lat="43.801401926902486" lon="10.941305103521435"><ele>267.6666666666667</ele><time>2026-05-03T10:34:23.005Z</time></trkpt><trkpt lat="43.80135552688342" lon="10.941204256607543"><ele>265.0</ele><time>2026-05-03T10:34:26.005Z</time></trkpt><trkpt lat="43.80131571648769" lon="10.94109675893051"><ele>262.33333333333337</ele><time>2026-05-03T10:34:29.005Z</time></trkpt><trkpt lat="43.80126848803141" lon="10.941017814312998"><ele>259.6666666666667</ele><time>2026-05-03T10:34:32.005Z</time></trkpt><trkpt lat="43.80122471491431" lon="10.940923325784954"><ele>257.0</ele><time>2026-05-03T10:34:35.005Z</time></trkpt><trkpt lat="43.80115801728325" lon="10.940880157651744"><ele>253.85714285714283</ele><time>2026-05-03T10:34:38.005Z</time></trkpt><trkpt lat="43.801088909004235" lon="10.94082381299233"><ele>250.71428571428572</ele><time>2026-05-03T10:34:41.005Z</time></trkpt><trkpt lat="43.80104774830781" lon="10.940740109776103"><ele>247.57142857142856</ele><time>2026-05-03T10:34:44.005Z</time></trkpt><trkpt lat="43.80108095375694" lon="10.940657456722187"><ele>244.42857142857142</ele><time>2026-05-03T10:34:47.005Z</time></trkpt><trkpt lat="43.801156069490396" lon="10.940631053644708"><ele>241.28571428571428</ele><time>2026-05-03T10:34:51.005Z</time></trkpt><trkpt lat="43.80122063272043" lon="10.940619230781166"><ele>238.14285714285714</ele><time>2026-05-03T10:34:55.005Z</time></trkpt><trkpt lat="43.80127421369152" lon="10.940565053367923"><ele>235.0</ele><time>2026-05-03T10:34:59.005Z</time></trkpt><trkpt lat="43.8012681988519" lon="10.940450041617813"><ele>234.99999999999997</ele><time>2026-05-03T10:35:03.005Z</time></trkpt><trkpt lat="43.8012471213676" lon="10.940356992892747"><ele>235.0</ele><time>2026-05-03T10:35:07.005Z</time></trkpt><trkpt lat="43.80119832012919" lon="10.940275328951634"><ele>235.0</ele><time>2026-05-03T10:35:11.005Z</time></trkpt><trkpt lat="43.80113641891008" lon="10.940194741272375"><ele>235.0</ele><time>2026-05-03T10:35:15.005Z</time></trkpt><trkpt lat="43.80108388430732" lon="10.940136741928436"><ele>234.99999999999997</ele><time>2026-05-03T10:35:18.005Z</time></trkpt><trkpt lat="43.80101869353283" lon="10.940076685172098"><ele>235.0</ele><time>2026-05-03T10:35:21.005Z</time></trkpt><trkpt lat="43.80094746635725" lon="10.940016351614332"><ele>234.0</ele><time>2026-05-03T10:35:25.005Z</time></trkpt><trkpt lat="43.80088663532537" lon="10.939987114234716"><ele>232.99999999999997</ele><time>2026-05-03T10:35:28.005Z</time></trkpt><trkpt lat="43.80082703686939" lon="10.939942106188267"><ele>232.0</ele><time>2026-05-03T10:35:31.005Z</time></trkpt><trkpt lat="43.8007697895293" lon="10.939902681523801"><ele>231.0</ele><time>2026-05-03T10:35:34.006Z</time></trkpt><trkpt lat="43.80070242647865" lon="10.93985705487239"><ele>229.99999999999997</ele><time>2026-05-03T10:35:37.007Z</time></trkpt><trkpt lat="43.80063224682377" lon="10.939815674165379"><ele>229.0</ele><time>2026-05-03T10:35:40.007Z</time></trkpt><trkpt lat="43.80056528875249" lon="10.939773080659757"><ele>228.0</ele><time>2026-05-03T10:35:43.007Z</time></trkpt><trkpt lat="43.80050826709455" lon="10.939718279070386"><ele>228.0</ele><time>2026-05-03T10:35:46.007Z</time></trkpt><trkpt lat="43.80044760761672" lon="10.939655504113711"><ele>227.99999999999997</ele><time>2026-05-03T10:35:49.007Z</time></trkpt><trkpt lat="43.800383983977575" lon="10.939591469650578"><ele>228.0</ele><time>2026-05-03T10:35:52.007Z</time></trkpt><trkpt lat="43.80031173091664" lon="10.939558520164313"><ele>228.0</ele><time>2026-05-03T10:35:55.007Z</time></trkpt><trkpt lat="43.80024961913783" lon="10.939502902327979"><ele>227.99999999999997</ele><time>2026-05-03T10:35:58.007Z</time></trkpt><trkpt lat="43.800177110888946" lon="10.939477900095248"><ele>228.0</ele><time>2026-05-03T10:36:01.007Z</time></trkpt><trkpt lat="43.800114116809866" lon="10.93945557761553"><ele>228.0</ele><time>2026-05-03T10:36:05.007Z</time></trkpt><trkpt lat="43.80003658159033" lon="10.93942808142969"><ele>226.85714285714283</ele><time>2026-05-03T10:36:08.007Z</time></trkpt><trkpt lat="43.79998238521818" lon="10.939378728143453"><ele>225.7142857142857</ele><time>2026-05-03T10:36:11.007Z</time></trkpt><trkpt lat="43.79993274710492" lon="10.939316573297578"><ele>224.57142857142856</ele><time>2026-05-03T10:36:14.007Z</time></trkpt><trkpt lat="43.79990154766955" lon="10.939232371996868"><ele>223.42857142857142</ele><time>2026-05-03T10:36:17.007Z</time></trkpt><trkpt lat="43.799841572376536" lon="10.939187497951409"><ele>222.28571428571428</ele><time>2026-05-03T10:36:20.007Z</time></trkpt><trkpt lat="43.79977198933789" lon="10.939128255871253"><ele>221.1428571428571</ele><time>2026-05-03T10:36:24.007Z</time></trkpt><trkpt lat="43.799717305097566" lon="10.939027620306687"><ele>220.0</ele><time>2026-05-03T10:37:26.006Z</time></trkpt><trkpt lat="43.7996566473163" lon="10.938946886485374"><ele>218.49999999999997</ele><time>2026-05-03T10:37:48.008Z</time></trkpt><trkpt lat="43.79961799942934" lon="10.938860553000968"><ele>217.0</ele><time>2026-05-03T10:37:54.007Z</time></trkpt><trkpt lat="43.79959469271574" lon="10.938770820898583"><ele>215.5</ele><time>2026-05-03T10:37:59.007Z</time></trkpt><trkpt lat="43.799557060916364" lon="10.938678004501375"><ele>214.0</ele><time>2026-05-03T10:38:04.007Z</time></trkpt><trkpt lat="43.79952337405269" lon="10.938572733451565"><ele>212.49999999999997</ele><time>2026-05-03T10:38:09.007Z</time></trkpt><trkpt lat="43.79948243835552" lon="10.938478010619484"><ele>211.0</ele><time>2026-05-03T10:38:13.007Z</time></trkpt><trkpt lat="43.799447420975035" lon="10.938382383212344"><ele>209.99999999999997</ele><time>2026-05-03T10:38:17.007Z</time></trkpt><trkpt lat="43.79943518439747" lon="10.938271025582146"><ele>209.0</ele><time>2026-05-03T10:38:21.007Z</time></trkpt><trkpt lat="43.79943647185924" lon="10.938163344136823"><ele>208.0</ele><time>2026-05-03T10:38:25.007Z</time></trkpt><trkpt lat="43.799411918437386" lon="10.938054379421384"><ele>207.0</ele><time>2026-05-03T10:38:29.007Z</time></trkpt><trkpt lat="43.79939588402955" lon="10.937951999529583"><ele>205.99999999999997</ele><time>2026-05-03T10:38:33.007Z</time></trkpt><trkpt lat="43.79938360496873" lon="10.937836529760975"><ele>205.0</ele><time>2026-05-03T10:38:37.007Z</time></trkpt><trkpt lat="43.79936067178565" lon="10.93772823313159"><ele>205.0</ele><time>2026-05-03T10:38:41.006Z</time></trkpt><trkpt lat="43.79933712887578" lon="10.937644002127744"><ele>205.0</ele><time>2026-05-03T10:38:44.006Z</time></trkpt><trkpt lat="43.799316807861054" lon="10.937536958827586"><ele>205.0</ele><time>2026-05-03T10:38:48.006Z</time></trkpt><trkpt lat="43.79929783643252" lon="10.937447726659041"><ele>205.0</ele><time>2026-05-03T10:38:51.006Z</time></trkpt><trkpt lat="43.79926492292369" lon="10.937359511046093"><ele>205.0</ele><time>2026-05-03T10:38:54.006Z</time></trkpt><trkpt lat="43.79924332202225" lon="10.937270629371515"><ele>205.0</ele><time>2026-05-03T10:38:57.006Z</time></trkpt><trkpt lat="43.79922324577951" lon="10.937187538381433"><ele>205.0</ele><time>2026-05-03T10:39:00.006Z</time></trkpt><trkpt lat="43.79917441873088" lon="10.93712256487489"><ele>205.14285714285714</ele><time>2026-05-03T10:39:03.006Z</time></trkpt><trkpt lat="43.7991312826898" lon="10.937050415279728"><ele>205.28571428571428</ele><time>2026-05-03T10:39:06.006Z</time></trkpt><trkpt lat="43.79909658519168" lon="10.936972608358673"><ele>205.42857142857142</ele><time>2026-05-03T10:39:09.006Z</time></trkpt><trkpt lat="43.7990633211373" lon="10.936889889865798"><ele>205.57142857142856</ele><time>2026-05-03T10:39:12.006Z</time></trkpt><trkpt lat="43.799020619086356" lon="10.93681105347323"><ele>205.71428571428572</ele><time>2026-05-03T10:39:15.006Z</time></trkpt><trkpt lat="43.798986875121535" lon="10.93673104243208"><ele>205.85714285714283</ele><time>2026-05-03T10:39:18.006Z</time></trkpt><trkpt lat="43.798950202015796" lon="10.936650737109659"><ele>206.0</ele><time>2026-05-03T10:39:21.006Z</time></trkpt><trkpt lat="43.7989185588872" lon="10.936560503571796"><ele>205.99999999999997</ele><time>2026-05-03T10:39:24.006Z</time></trkpt><trkpt lat="43.79889395993618" lon="10.936465003230163"><ele>206.0</ele><time>2026-05-03T10:39:27.006Z</time></trkpt><trkpt lat="43.798870386707726" lon="10.936370434520775"><ele>206.0</ele><time>2026-05-03T10:39:30.006Z</time></trkpt><trkpt lat="43.79884007530967" lon="10.93628679349235"><ele>206.0</ele><time>2026-05-03T10:39:33.006Z</time></trkpt><trkpt lat="43.79880682590381" lon="10.936201936932402"><ele>206.0</ele><time>2026-05-03T10:39:36.006Z</time></trkpt><trkpt lat="43.7987848028512" lon="10.936101841601584"><ele>205.99999999999997</ele><time>2026-05-03T10:39:39.006Z</time></trkpt><trkpt lat="43.79876504596956" lon="10.936002727898543"><ele>206.0</ele><time>2026-05-03T10:39:42.006Z</time></trkpt><trkpt lat="43.79874502617434" lon="10.935897514047738"><ele>205.57142857142856</ele><time>2026-05-03T10:39:45.007Z</time></trkpt><trkpt lat="43.79872084056667" lon="10.935808991154111"><ele>205.14285714285714</ele><time>2026-05-03T10:39:48.008Z</time></trkpt><trkpt lat="43.798684147638895" lon="10.935724157598525"><ele>204.71428571428572</ele><time>2026-05-03T10:39:51.008Z</time></trkpt><trkpt lat="43.79861147099622" lon="10.935735089867112"><ele>204.28571428571428</ele><time>2026-05-03T10:39:54.008Z</time></trkpt><trkpt lat="43.79854485164167" lon="10.935777305866278"><ele>203.85714285714286</ele><time>2026-05-03T10:39:57.008Z</time></trkpt><trkpt lat="43.798460117959166" lon="10.93580336643912"><ele>203.42857142857142</ele><time>2026-05-03T10:40:01.008Z</time></trkpt><trkpt lat="43.798398679080755" lon="10.935842514212768"><ele>203.0</ele><time>2026-05-03T10:40:04.008Z</time></trkpt><trkpt lat="43.79833201599965" lon="10.935866843546039"><ele>203.14285714285714</ele><time>2026-05-03T10:40:07.008Z</time></trkpt><trkpt lat="43.79827261884295" lon="10.935905374943852"><ele>203.28571428571428</ele><time>2026-05-03T10:40:10.008Z</time></trkpt><trkpt lat="43.798206255327386" lon="10.935927045434836"><ele>203.42857142857144</ele><time>2026-05-03T10:40:13.008Z</time></trkpt><trkpt lat="43.79813760312688" lon="10.935982072684066"><ele>203.57142857142856</ele><time>2026-05-03T10:40:16.008Z</time></trkpt><trkpt lat="43.79806208413467" lon="10.936004591183849"><ele>203.71428571428572</ele><time>2026-05-03T10:40:19.008Z</time></trkpt><trkpt lat="43.79799808413886" lon="10.936032341314412"><ele>203.85714285714286</ele><time>2026-05-03T10:40:22.008Z</time></trkpt><trkpt lat="43.79792624395403" lon="10.93603569636765"><ele>204.0</ele><time>2026-05-03T10:40:25.008Z</time></trkpt><trkpt lat="43.797856284986345" lon="10.936007943091095"><ele>204.0</ele><time>2026-05-03T10:40:28.008Z</time></trkpt><trkpt lat="43.79778446208166" lon="10.93600366467633"><ele>204.0</ele><time>2026-05-03T10:40:31.008Z</time></trkpt><trkpt lat="43.79771385833946" lon="10.935995834088498"><ele>204.0</ele><time>2026-05-03T10:40:34.008Z</time></trkpt><trkpt lat="43.79764334857577" lon="10.935981881161736"><ele>204.0</ele><time>2026-05-03T10:40:37.007Z</time></trkpt><trkpt lat="43.797590621987865" lon="10.935890294036366"><ele>204.0</ele><time>2026-05-03T10:40:40.007Z</time></trkpt><trkpt lat="43.797557266929665" lon="10.935809137538746"><ele>204.0</ele><time>2026-05-03T10:40:43.007Z</time></trkpt><trkpt lat="43.79751429780788" lon="10.93574196716747"><ele>204.0</ele><time>2026-05-03T10:40:46.007Z</time></trkpt><trkpt lat="43.797483373018835" lon="10.935660179173857"><ele>202.14285714285714</ele><time>2026-05-03T10:40:49.007Z</time></trkpt><trkpt lat="43.797440842418766" lon="10.935595575679736"><ele>200.28571428571428</ele><time>2026-05-03T10:40:52.007Z</time></trkpt><trkpt lat="43.79740715161904" lon="10.935521694890214"><ele>198.42857142857144</ele><time>2026-05-03T10:40:55.007Z</time></trkpt><trkpt lat="43.79735919006396" lon="10.935435155101443"><ele>196.57142857142856</ele><time>2026-05-03T10:40:59.007Z</time></trkpt><trkpt lat="43.797302991661994" lon="10.935379583343934"><ele>194.7142857142857</ele><time>2026-05-03T10:41:02.007Z</time></trkpt><trkpt lat="43.79723480003684" lon="10.93534269199627"><ele>192.85714285714286</ele><time>2026-05-03T10:41:05.007Z</time></trkpt><trkpt lat="43.79717262293995" lon="10.935321954940013"><ele>191.0</ele><time>2026-05-03T10:41:08.007Z</time></trkpt><trkpt lat="43.79711134997411" lon="10.93527737523114"><ele>191.0</ele><time>2026-05-03T10:41:11.007Z</time></trkpt><trkpt lat="43.79706693640608" lon="10.935205866376034"><ele>191.0</ele><time>2026-05-03T10:41:14.007Z</time></trkpt><trkpt lat="43.79702992043287" lon="10.935117733006184"><ele>191.0</ele><time>2026-05-03T10:41:17.007Z</time></trkpt><trkpt lat="43.79699236897388" lon="10.935041256347427"><ele>191.0</ele><time>2026-05-03T10:41:20.007Z</time></trkpt><trkpt lat="43.79694443530123" lon="10.934966029522869"><ele>191.0</ele><time>2026-05-03T10:41:23.007Z</time></trkpt><trkpt lat="43.79690114801402" lon="10.934884646538015"><ele>191.0</ele><time>2026-05-03T10:41:26.007Z</time></trkpt><trkpt lat="43.79685201482346" lon="10.934826154442149"><ele>191.0</ele><time>2026-05-03T10:41:29.007Z</time></trkpt><trkpt lat="43.79680792063133" lon="10.9347626378875"><ele>188.0</ele><time>2026-05-03T10:41:32.007Z</time></trkpt><trkpt lat="43.79675711276404" lon="10.934696500544414"><ele>185.0</ele><time>2026-05-03T10:41:35.007Z</time></trkpt><trkpt lat="43.796708040837785" lon="10.93462182654445"><ele>182.0</ele><time>2026-05-03T10:41:38.007Z</time></trkpt><trkpt lat="43.79663397060729" lon="10.934569155886912"><ele>179.0</ele><time>2026-05-03T10:41:42.007Z</time></trkpt><trkpt lat="43.79656601918747" lon="10.934502870531317"><ele>176.0</ele><time>2026-05-03T10:41:46.007Z</time></trkpt><trkpt lat="43.79651998809111" lon="10.934438662247388"><ele>173.0</ele><time>2026-05-03T10:41:49.007Z</time></trkpt><trkpt lat="43.79647255174897" lon="10.934364875591127"><ele>170.0</ele><time>2026-05-03T10:41:52.009Z</time></trkpt><trkpt lat="43.796411174398834" lon="10.9342891417108"><ele>170.0</ele><time>2026-05-03T10:41:56.009Z</time></trkpt><trkpt lat="43.79635943410199" lon="10.934224475300683"><ele>170.0</ele><time>2026-05-03T10:41:59.009Z</time></trkpt><trkpt lat="43.79631575675504" lon="10.934138609895147"><ele>170.0</ele><time>2026-05-03T10:42:02.009Z</time></trkpt><trkpt lat="43.796278405414554" lon="10.934061003561094"><ele>170.0</ele><time>2026-05-03T10:42:05.009Z</time></trkpt><trkpt lat="43.79623453695559" lon="10.933975623836734"><ele>170.0</ele><time>2026-05-03T10:42:08.009Z</time></trkpt><trkpt lat="43.79617693613924" lon="10.933910027731532"><ele>170.0</ele><time>2026-05-03T10:42:11.009Z</time></trkpt><trkpt lat="43.79613189154298" lon="10.933844525685146"><ele>170.0</ele><time>2026-05-03T10:42:14.009Z</time></trkpt><trkpt lat="43.79609946978161" lon="10.933765854768932"><ele>169.66666666666666</ele><time>2026-05-03T10:42:17.009Z</time></trkpt><trkpt lat="43.79604821254028" lon="10.933692888934482"><ele>169.33333333333331</ele><time>2026-05-03T10:42:20.009Z</time></trkpt><trkpt lat="43.79597780473881" lon="10.933631305944976"><ele>169.0</ele><time>2026-05-03T10:42:23.009Z</time></trkpt><trkpt lat="43.795913967268426" lon="10.933564598482352"><ele>168.66666666666666</ele><time>2026-05-03T10:42:26.009Z</time></trkpt><trkpt lat="43.79584730835234" lon="10.933512202705161"><ele>168.33333333333334</ele><time>2026-05-03T10:42:29.009Z</time></trkpt><trkpt lat="43.795790229132066" lon="10.933452926041635"><ele>168.0</ele><time>2026-05-03T10:42:32.009Z</time></trkpt><trkpt lat="43.795724523292655" lon="10.933403489531758"><ele>166.66666666666666</ele><time>2026-05-03T10:42:35.009Z</time></trkpt><trkpt lat="43.79566210356188" lon="10.933343182915447"><ele>165.33333333333334</ele><time>2026-05-03T10:42:38.009Z</time></trkpt><trkpt lat="43.795609225016314" lon="10.93328197704133"><ele>164.0</ele><time>2026-05-03T10:42:41.009Z</time></trkpt><trkpt lat="43.795551138282526" lon="10.933210241918852"><ele>162.66666666666669</ele><time>2026-05-03T10:42:44.009Z</time></trkpt><trkpt lat="43.79548401137032" lon="10.933145223241945"><ele>161.33333333333334</ele><time>2026-05-03T10:42:47.009Z</time></trkpt><trkpt lat="43.795421189199814" lon="10.933099043072373"><ele>160.0</ele><time>2026-05-03T10:42:50.009Z</time></trkpt><trkpt lat="43.79535513680193" lon="10.933039230113833"><ele>160.0</ele><time>2026-05-03T10:42:53.009Z</time></trkpt><trkpt lat="43.79529458157751" lon="10.932978958663487"><ele>160.0</ele><time>2026-05-03T10:42:56.008Z</time></trkpt><trkpt lat="43.795229593751955" lon="10.93291707346954"><ele>160.0</ele><time>2026-05-03T10:42:59.008Z</time></trkpt><trkpt lat="43.795165555494464" lon="10.932871017187402"><ele>160.0</ele><time>2026-05-03T10:43:02.008Z</time></trkpt><trkpt lat="43.79510170002004" lon="10.93280925168922"><ele>160.0</ele><time>2026-05-03T10:43:05.008Z</time></trkpt><trkpt lat="43.79503522049822" lon="10.932761899527758"><ele>160.0</ele><time>2026-05-03T10:43:08.008Z</time></trkpt><trkpt lat="43.79496690723027" lon="10.932694780391076"><ele>159.71428571428572</ele><time>2026-05-03T10:43:11.008Z</time></trkpt><trkpt lat="43.794905170928345" lon="10.932634842207596"><ele>159.42857142857144</ele><time>2026-05-03T10:43:14.008Z</time></trkpt><trkpt lat="43.79484437236787" lon="10.932586265642364"><ele>159.14285714285717</ele><time>2026-05-03T10:43:17.008Z</time></trkpt><trkpt lat="43.79478583375922" lon="10.932530501253666"><ele>158.85714285714286</ele><time>2026-05-03T10:43:20.008Z</time></trkpt><trkpt lat="43.79472832278033" lon="10.932463640092188"><ele>158.57142857142858</ele><time>2026-05-03T10:43:23.008Z</time></trkpt><trkpt lat="43.794663008561656" lon="10.93242040868774"><ele>158.2857142857143</ele><time>2026-05-03T10:43:26.008Z</time></trkpt><trkpt lat="43.794604183686424" lon="10.932373099268384"><ele>158.0</ele><time>2026-05-03T10:43:29.008Z</time></trkpt><trkpt lat="43.79453916861963" lon="10.93231341859572"><ele>158.0</ele><time>2026-05-03T10:43:32.008Z</time></trkpt><trkpt lat="43.79448133345811" lon="10.93225426130581"><ele>158.0</ele><time>2026-05-03T10:43:35.008Z</time></trkpt><trkpt lat="43.794417422161544" lon="10.93218518207356"><ele>158.0</ele><time>2026-05-03T10:43:38.008Z</time></trkpt><trkpt lat="43.79435060899728" lon="10.932131333727407"><ele>158.0</ele><time>2026-05-03T10:43:41.008Z</time></trkpt><trkpt lat="43.79428080830033" lon="10.93206668388075"><ele>158.0</ele><time>2026-05-03T10:43:44.008Z</time></trkpt><trkpt lat="43.794200850627405" lon="10.93203917770467"><ele>158.0</ele><time>2026-05-03T10:43:47.008Z</time></trkpt><trkpt lat="43.794131888524554" lon="10.93204178012636"><ele>156.2857142857143</ele><time>2026-05-03T10:43:50.008Z</time></trkpt><trkpt lat="43.7940595227316" lon="10.932046631765422"><ele>154.57142857142858</ele><time>2026-05-03T10:43:53.008Z</time></trkpt><trkpt lat="43.79399165494796" lon="10.932045478577937"><ele>152.85714285714286</ele><time>2026-05-03T10:43:56.008Z</time></trkpt><trkpt lat="43.793925431465325" lon="10.932028271732987"><ele>151.14285714285717</ele><time>2026-05-03T10:43:59.009Z</time></trkpt><trkpt lat="43.79385707337232" lon="10.932027045437069"><ele>149.42857142857144</ele><time>2026-05-03T10:44:02.009Z</time></trkpt><trkpt lat="43.793788090042085" lon="10.932013449627048"><ele>147.71428571428572</ele><time>2026-05-03T10:44:05.009Z</time></trkpt><trkpt lat="43.793716659078015" lon="10.932031478426858"><ele>146.0</ele><time>2026-05-03T10:44:08.009Z</time></trkpt><trkpt lat="43.79363698435375" lon="10.932007619845397"><ele>146.0</ele><time>2026-05-03T10:44:12.009Z</time></trkpt><trkpt lat="43.79359028236523" lon="10.931919463910106"><ele>146.0</ele><time>2026-05-03T10:44:15.009Z</time></trkpt><trkpt lat="43.7935729755625" lon="10.93181227593111"><ele>146.0</ele><time>2026-05-03T10:44:18.009Z</time></trkpt><trkpt lat="43.79354820677612" lon="10.931729532768308"><ele>146.0</ele><time>2026-05-03T10:44:21.009Z</time></trkpt><trkpt lat="43.79352663770615" lon="10.931629605579367"><ele>146.0</ele><time>2026-05-03T10:44:24.009Z</time></trkpt><trkpt lat="43.79348761610176" lon="10.931527501269235"><ele>146.0</ele><time>2026-05-03T10:44:27.008Z</time></trkpt><trkpt lat="43.793479563868395" lon="10.931417206636807"><ele>146.0</ele><time>2026-05-03T10:44:31.008Z</time></trkpt><trkpt lat="43.793538526025586" lon="10.931334945339836"><ele>146.0</ele><time>2026-05-03T10:44:34.008Z</time></trkpt><trkpt lat="43.793581917859726" lon="10.93125635111939"><ele>146.0</ele><time>2026-05-03T10:44:37.008Z</time></trkpt><trkpt lat="43.793618692984936" lon="10.931176771038597"><ele>146.0</ele><time>2026-05-03T10:44:40.008Z</time></trkpt><trkpt lat="43.793660513645065" lon="10.931091152170685"><ele>146.0</ele><time>2026-05-03T10:44:43.008Z</time></trkpt><trkpt lat="43.79372658135758" lon="10.93102476290882"><ele>146.0</ele><time>2026-05-03T10:44:46.008Z</time></trkpt><trkpt lat="43.793795781904" lon="10.93095459045527"><ele>146.0</ele><time>2026-05-03T10:44:49.008Z</time></trkpt><trkpt lat="43.79385028126668" lon="10.930894188242553"><ele>146.0</ele><time>2026-05-03T10:44:52.008Z</time></trkpt><trkpt lat="43.793928341325355" lon="10.930888740317284"><ele>146.0</ele><time>2026-05-03T10:44:55.008Z</time></trkpt><trkpt lat="43.79399533664106" lon="10.93087993261033"><ele>146.0</ele><time>2026-05-03T10:44:58.008Z</time></trkpt><trkpt lat="43.794065325370035" lon="10.930881738492795"><ele>146.0</ele><time>2026-05-03T10:45:02.008Z</time></trkpt><trkpt lat="43.794146611019855" lon="10.930854938058143"><ele>146.0</ele><time>2026-05-03T10:45:06.008Z</time></trkpt><trkpt lat="43.79422079346992" lon="10.930839922263221"><ele>146.0</ele><time>2026-05-03T10:45:10.008Z</time></trkpt><trkpt lat="43.79429882524026" lon="10.930831352646468"><ele>143.71428571428572</ele><time>2026-05-03T10:45:14.008Z</time></trkpt><trkpt lat="43.79437549916248" lon="10.930823075832423"><ele>141.42857142857144</ele><time>2026-05-03T10:45:18.008Z</time></trkpt><trkpt lat="43.79445410839766" lon="10.930808175118658"><ele>139.14285714285717</ele><time>2026-05-03T10:45:22.008Z</time></trkpt><trkpt lat="43.794516931511176" lon="10.930797429915987"><ele>136.85714285714286</ele><time>2026-05-03T10:45:25.008Z</time></trkpt><trkpt lat="43.79459976293602" lon="10.930798908828093"><ele>134.57142857142858</ele><time>2026-05-03T10:45:29.008Z</time></trkpt><trkpt lat="43.79466206780464" lon="10.930811505191306"><ele>132.2857142857143</ele><time>2026-05-03T10:45:32.008Z</time></trkpt><trkpt lat="43.79472410227419" lon="10.930790935119443"><ele>130.0</ele><time>2026-05-03T10:45:35.008Z</time></trkpt><trkpt lat="43.79479336262945" lon="10.93079049891734"><ele>130.00000000000003</ele><time>2026-05-03T10:45:38.008Z</time></trkpt><trkpt lat="43.79486284318363" lon="10.93077998991556"><ele>130.0</ele><time>2026-05-03T10:45:41.008Z</time></trkpt><trkpt lat="43.79492901661968" lon="10.930767608604938"><ele>130.0</ele><time>2026-05-03T10:45:44.008Z</time></trkpt><trkpt lat="43.79499776331139" lon="10.930769985085298"><ele>130.0</ele><time>2026-05-03T10:45:47.008Z</time></trkpt><trkpt lat="43.79506114824001" lon="10.930749097429352"><ele>130.0</ele><time>2026-05-03T10:45:50.008Z</time></trkpt><trkpt lat="43.79512761207524" lon="10.930748610822658"><ele>130.00000000000003</ele><time>2026-05-03T10:45:53.008Z</time></trkpt><trkpt lat="43.795198173113064" lon="10.930741002723943"><ele>130.0</ele><time>2026-05-03T10:45:56.008Z</time></trkpt><trkpt lat="43.79526999393026" lon="10.930732621870904"><ele>131.14285714285717</ele><time>2026-05-03T10:45:59.008Z</time></trkpt><trkpt lat="43.7953253659486" lon="10.930683412697839"><ele>132.28571428571428</ele><time>2026-05-03T10:46:02.008Z</time></trkpt><trkpt lat="43.795354820274135" lon="10.930594486873868"><ele>133.42857142857144</ele><time>2026-05-03T10:46:05.009Z</time></trkpt><trkpt lat="43.79537665025241" lon="10.930501481664338"><ele>134.57142857142858</ele><time>2026-05-03T10:46:08.01Z</time></trkpt><trkpt lat="43.795389575008215" lon="10.930411227851241"><ele>135.71428571428572</ele><time>2026-05-03T10:46:11.009Z</time></trkpt><trkpt lat="43.79541741975209" lon="10.93030640553809"><ele>136.85714285714286</ele><time>2026-05-03T10:46:15.009Z</time></trkpt><trkpt lat="43.7954259844547" lon="10.9302176899119"><ele>138.0</ele><time>2026-05-03T10:46:18.01Z</time></trkpt><trkpt lat="43.79545268951116" lon="10.930106173919748"><ele>137.14285714285714</ele><time>2026-05-03T10:46:22.01Z</time></trkpt><trkpt lat="43.79547461541482" lon="10.929998445750781"><ele>136.2857142857143</ele><time>2026-05-03T10:46:26.01Z</time></trkpt><trkpt lat="43.795477876479275" lon="10.929908545539272"><ele>135.42857142857144</ele><time>2026-05-03T10:46:29.01Z</time></trkpt><trkpt lat="43.79548256954134" lon="10.929808082251993"><ele>134.57142857142858</ele><time>2026-05-03T10:46:33.01Z</time></trkpt><trkpt lat="43.79550396615188" lon="10.929700183756378"><ele>133.71428571428572</ele><time>2026-05-03T10:46:37.01Z</time></trkpt><trkpt lat="43.79551107655969" lon="10.929596017941398"><ele>132.85714285714286</ele><time>2026-05-03T10:46:41.009Z</time></trkpt><trkpt lat="43.7954623176424" lon="10.929533401648769"><ele>132.0</ele><time>2026-05-03T10:46:44.009Z</time></trkpt><trkpt lat="43.795414275541575" lon="10.929474117644872"><ele>132.0</ele><time>2026-05-03T10:46:47.009Z</time></trkpt><trkpt lat="43.79535504238421" lon="10.929393016628683"><ele>132.0</ele><time>2026-05-03T10:46:51.009Z</time></trkpt><trkpt lat="43.79530813166767" lon="10.929323186126181"><ele>132.0</ele><time>2026-05-03T10:46:54.009Z</time></trkpt><trkpt lat="43.795260941908815" lon="10.92926123539972"><ele>132.0</ele><time>2026-05-03T10:46:57.009Z</time></trkpt><trkpt lat="43.79521841068623" lon="10.929189832246324"><ele>132.0</ele><time>2026-05-03T10:47:00.009Z</time></trkpt><trkpt lat="43.795190668475634" lon="10.929101821018019"><ele>132.0</ele><time>2026-05-03T10:47:03.009Z</time></trkpt><trkpt lat="43.79513968011017" lon="10.929049922824742"><ele>132.0</ele><time>2026-05-03T10:47:06.009Z</time></trkpt><trkpt lat="43.79507031342439" lon="10.929018782448498"><ele>130.57142857142856</ele><time>2026-05-03T10:47:09.009Z</time></trkpt><trkpt lat="43.79499516457396" lon="10.928970298484117"><ele>129.14285714285714</ele><time>2026-05-03T10:47:13.009Z</time></trkpt><trkpt lat="43.79492458920391" lon="10.928915327965722"><ele>127.71428571428571</ele><time>2026-05-03T10:47:17.009Z</time></trkpt><trkpt lat="43.79486294908591" lon="10.928883497218711"><ele>126.28571428571428</ele><time>2026-05-03T10:47:20.009Z</time></trkpt><trkpt lat="43.79480562631895" lon="10.928840432703566"><ele>124.85714285714286</ele><time>2026-05-03T10:47:23.009Z</time></trkpt><trkpt lat="43.79474855402911" lon="10.928791177582752"><ele>123.42857142857142</ele><time>2026-05-03T10:47:26.009Z</time></trkpt><trkpt lat="43.79469544833256" lon="10.928736888197522"><ele>121.99999999999999</ele><time>2026-05-03T10:47:29.009Z</time></trkpt><trkpt lat="43.79461866681185" lon="10.928688452084284"><ele>121.99999999999999</ele><time>2026-05-03T10:47:33.009Z</time></trkpt><trkpt lat="43.7945610190352" lon="10.92864475071236"><ele>122.0</ele><time>2026-05-03T10:47:36.009Z</time></trkpt><trkpt lat="43.79451383687304" lon="10.928578047755195"><ele>121.99999999999999</ele><time>2026-05-03T10:47:39.009Z</time></trkpt><trkpt lat="43.79444077782323" lon="10.928520780287576"><ele>121.99999999999999</ele><time>2026-05-03T10:47:43.009Z</time></trkpt><trkpt lat="43.79438548321269" lon="10.92846714500914"><ele>122.0</ele><time>2026-05-03T10:47:46.009Z</time></trkpt><trkpt lat="43.79433474269568" lon="10.928405262922748"><ele>121.99999999999999</ele><time>2026-05-03T10:47:49.009Z</time></trkpt><trkpt lat="43.79428158552243" lon="10.928319921832497"><ele>121.99999999999999</ele><time>2026-05-03T10:47:53.009Z</time></trkpt><trkpt lat="43.79423151234204" lon="10.928242113702256"><ele>120.83333333333333</ele><time>2026-05-03T10:47:57.009Z</time></trkpt><trkpt lat="43.79418082667762" lon="10.928162517729342"><ele>119.66666666666666</ele><time>2026-05-03T10:48:01.009Z</time></trkpt><trkpt lat="43.794110477226376" lon="10.928072103402897"><ele>118.5</ele><time>2026-05-03T10:48:06.009Z</time></trkpt><trkpt lat="43.7940610871943" lon="10.928007143853353"><ele>117.33333333333334</ele><time>2026-05-03T10:48:10.009Z</time></trkpt><trkpt lat="43.79399897048812" lon="10.927947247263639"><ele>116.16666666666667</ele><time>2026-05-03T10:48:14.01Z</time></trkpt><trkpt lat="43.79393939325256" lon="10.927867383690552"><ele>115.0</ele><time>2026-05-03T10:48:18.01Z</time></trkpt><trkpt lat="43.79389106293706" lon="10.927771410307061"><ele>114.99999999999999</ele><time>2026-05-03T10:48:22.01Z</time></trkpt><trkpt lat="43.793841754534526" lon="10.927710071859284"><ele>115.0</ele><time>2026-05-03T10:48:25.01Z</time></trkpt><trkpt lat="43.7937953045102" lon="10.927649983437995"><ele>114.99999999999999</ele><time>2026-05-03T10:48:28.01Z</time></trkpt><trkpt lat="43.79374102532815" lon="10.927591896576722"><ele>114.99999999999999</ele><time>2026-05-03T10:48:31.009Z</time></trkpt><trkpt lat="43.79367889796979" lon="10.927555010467675"><ele>115.0</ele><time>2026-05-03T10:48:34.009Z</time></trkpt><trkpt lat="43.79360733950096" lon="10.927499142037364"><ele>114.99999999999999</ele><time>2026-05-03T10:48:38.009Z</time></trkpt><trkpt lat="43.79354994601604" lon="10.927456431031496"><ele>114.99999999999999</ele><time>2026-05-03T10:48:41.009Z</time></trkpt><trkpt lat="43.79349303221122" lon="10.927407681514522"><ele>115.7142857142857</ele><time>2026-05-03T10:48:44.009Z</time></trkpt><trkpt lat="43.79343513559515" lon="10.92737300587694"><ele>116.42857142857142</ele><time>2026-05-03T10:48:47.009Z</time></trkpt><trkpt lat="43.79337948429855" lon="10.927313584470562"><ele>117.14285714285714</ele><time>2026-05-03T10:48:50.009Z</time></trkpt><trkpt lat="43.79332532930311" lon="10.927249777121954"><ele>117.85714285714285</ele><time>2026-05-03T10:48:53.009Z</time></trkpt><trkpt lat="43.793274259227765" lon="10.927190233476281"><ele>118.57142857142856</ele><time>2026-05-03T10:48:56.009Z</time></trkpt><trkpt lat="43.79321365652038" lon="10.927120666417457"><ele>119.28571428571429</ele><time>2026-05-03T10:49:00.009Z</time></trkpt><trkpt lat="43.793152586580696" lon="10.927038716162707"><ele>120.0</ele><time>2026-05-03T10:49:04.009Z</time></trkpt><trkpt lat="43.793102645167" lon="10.926972692341565"><ele>120.0</ele><time>2026-05-03T10:49:07.009Z</time></trkpt><trkpt lat="43.793055230048445" lon="10.92688757900386"><ele>120.0</ele><time>2026-05-03T10:49:11.009Z</time></trkpt><trkpt lat="43.79299402132746" lon="10.926816750722336"><ele>120.0</ele><time>2026-05-03T10:49:15.009Z</time></trkpt><trkpt lat="43.79293476987196" lon="10.92675736722205"><ele>120.0</ele><time>2026-05-03T10:49:19.009Z</time></trkpt><trkpt lat="43.79287768438561" lon="10.926690647348448"><ele>120.0</ele><time>2026-05-03T10:49:23.009Z</time></trkpt><trkpt lat="43.792817230734606" lon="10.926615447587228"><ele>120.0</ele><time>2026-05-03T10:49:27.009Z</time></trkpt><trkpt lat="43.79275444730967" lon="10.926559204762675"><ele>120.0</ele><time>2026-05-03T10:49:31.009Z</time></trkpt><trkpt lat="43.79270650755368" lon="10.926480592867268"><ele>120.0</ele><time>2026-05-03T10:49:35.009Z</time></trkpt><trkpt lat="43.79265503331167" lon="10.926397517989168"><ele>120.0</ele><time>2026-05-03T10:49:39.009Z</time></trkpt><trkpt lat="43.79259687995857" lon="10.926325144460714"><ele>120.0</ele><time>2026-05-03T10:49:43.009Z</time></trkpt><trkpt lat="43.792539783631476" lon="10.926264696670653"><ele>120.0</ele><time>2026-05-03T10:49:47.009Z</time></trkpt><trkpt lat="43.79247444745899" lon="10.926199144955556"><ele>120.0</ele><time>2026-05-03T10:49:51.009Z</time></trkpt><trkpt lat="43.792421540937305" lon="10.926127439286105"><ele>120.0</ele><time>2026-05-03T10:49:55.009Z</time></trkpt><trkpt lat="43.79235740180548" lon="10.926066529056358"><ele>120.0</ele><time>2026-05-03T10:49:59.009Z</time></trkpt><trkpt lat="43.79229248462138" lon="10.926015634077299"><ele>120.0</ele><time>2026-05-03T10:50:03.009Z</time></trkpt><trkpt lat="43.79224042530242" lon="10.925946246002901"><ele>120.0</ele><time>2026-05-03T10:50:07.009Z</time></trkpt><trkpt lat="43.792196566974724" lon="10.925865165189098"><ele>120.0</ele><time>2026-05-03T10:50:11.009Z</time></trkpt><trkpt lat="43.79215774286949" lon="10.92578098683474"><ele>120.0</ele><time>2026-05-03T10:50:15.01Z</time></trkpt><trkpt lat="43.79211720618777" lon="10.925702135744853"><ele>120.0</ele><time>2026-05-03T10:50:19.01Z</time></trkpt><trkpt lat="43.79206435327014" lon="10.925628666291923"><ele>119.57142857142858</ele><time>2026-05-03T10:50:24.01Z</time></trkpt><trkpt lat="43.79202451973716" lon="10.925532257176444"><ele>119.14285714285714</ele><time>2026-05-03T10:50:29.01Z</time></trkpt><trkpt lat="43.79198832633064" lon="10.925441921623579"><ele>118.71428571428572</ele><time>2026-05-03T10:50:35.01Z</time></trkpt><trkpt lat="43.791960872291064" lon="10.925344480236408"><ele>118.28571428571429</ele><time>2026-05-03T10:50:40.01Z</time></trkpt><trkpt lat="43.79193037591158" lon="10.925261923074576"><ele>117.85714285714286</ele><time>2026-05-03T10:50:44.01Z</time></trkpt><trkpt lat="43.79188822713787" lon="10.925177201729761"><ele>117.42857142857143</ele><time>2026-05-03T10:50:48.01Z</time></trkpt><trkpt lat="43.79183668020183" lon="10.925101242256977"><ele>117.0</ele><time>2026-05-03T10:50:52.01Z</time></trkpt><trkpt lat="43.79179497195293" lon="10.925013200643203"><ele>116.71428571428572</ele><time>2026-05-03T10:50:56.01Z</time></trkpt><trkpt lat="43.79175806202156" lon="10.924915720685695"><ele>116.42857142857144</ele><time>2026-05-03T10:51:00.01Z</time></trkpt><trkpt lat="43.79172115969721" lon="10.9248199430088"><ele>116.14285714285714</ele><time>2026-05-03T10:51:04.01Z</time></trkpt><trkpt lat="43.79166310223778" lon="10.924754334054464"><ele>115.85714285714286</ele><time>2026-05-03T10:51:08.01Z</time></trkpt><trkpt lat="43.79159501248847" lon="10.924739196583694"><ele>115.57142857142857</ele><time>2026-05-03T10:51:12.01Z</time></trkpt><trkpt lat="43.79153048446065" lon="10.924768124745164"><ele>115.28571428571428</ele><time>2026-05-03T10:51:16.01Z</time></trkpt><trkpt lat="43.791467434764066" lon="10.924800163208003"><ele>114.99999999999999</ele><time>2026-05-03T10:51:21.01Z</time></trkpt><trkpt lat="43.79141902455153" lon="10.924867122732932"><ele>114.99999999999999</ele><time>2026-05-03T10:51:25.01Z</time></trkpt><trkpt lat="43.7913685564933" lon="10.924930481126992"><ele>115.0</ele><time>2026-05-03T10:51:29.01Z</time></trkpt><trkpt lat="43.79131230646521" lon="10.925006677938919"><ele>114.99999999999999</ele><time>2026-05-03T10:51:34.01Z</time></trkpt><trkpt lat="43.79124468738679" lon="10.92505286313017"><ele>114.99999999999999</ele><time>2026-05-03T10:51:39.01Z</time></trkpt><trkpt lat="43.79118081458935" lon="10.925085038032751"><ele>115.0</ele><time>2026-05-03T10:51:44.01Z</time></trkpt><trkpt lat="43.79111076040221" lon="10.92504599535424"><ele>114.99999999999999</ele><time>2026-05-03T10:51:50.01Z</time></trkpt><trkpt lat="43.79104985383921" lon="10.92501465240204"><ele>114.99999999999999</ele><time>2026-05-03T10:51:54.01Z</time></trkpt><trkpt lat="43.79097762479129" lon="10.924994256937765"><ele>113.14285714285712</ele><time>2026-05-03T10:51:58.01Z</time></trkpt><trkpt lat="43.790901912398695" lon="10.9249746465959"><ele>111.28571428571428</ele><time>2026-05-03T10:52:02.009Z</time></trkpt><trkpt lat="43.79082900030371" lon="10.924986214474565"><ele>109.42857142857142</ele><time>2026-05-03T10:52:06.009Z</time></trkpt><trkpt lat="43.79076291130502" lon="10.924970382316133"><ele>107.57142857142856</ele><time>2026-05-03T10:52:09.009Z</time></trkpt><trkpt lat="43.79069988906118" lon="10.924972039173813"><ele>105.71428571428572</ele><time>2026-05-03T10:52:12.009Z</time></trkpt><trkpt lat="43.790630698097424" lon="10.92498283740723"><ele>103.85714285714286</ele><time>2026-05-03T10:52:15.009Z</time></trkpt><trkpt lat="43.790565469122825" lon="10.92497726107902"><ele>102.0</ele><time>2026-05-03T10:52:18.009Z</time></trkpt><trkpt lat="43.79048402411031" lon="10.924992576950851"><ele>102.0</ele><time>2026-05-03T10:52:22.011Z</time></trkpt><trkpt lat="43.79041472924164" lon="10.925006749386192"><ele>102.0</ele><time>2026-05-03T10:52:25.011Z</time></trkpt><trkpt lat="43.790346908899004" lon="10.924985727034962"><ele>102.0</ele><time>2026-05-03T10:52:28.011Z</time></trkpt><trkpt lat="43.790282876974544" lon="10.924961314391755"><ele>102.0</ele><time>2026-05-03T10:52:31.011Z</time></trkpt><trkpt lat="43.790203074168524" lon="10.92494294579256"><ele>102.0</ele><time>2026-05-03T10:52:35.011Z</time></trkpt><trkpt lat="43.790135664346195" lon="10.924925803664484"><ele>102.0</ele><time>2026-05-03T10:52:38.011Z</time></trkpt><trkpt lat="43.79007262937256" lon="10.924901548301358"><ele>102.0</ele><time>2026-05-03T10:52:41.011Z</time></trkpt><trkpt lat="43.79000994174839" lon="10.92486257424509"><ele>101.42857142857143</ele><time>2026-05-03T10:52:44.011Z</time></trkpt><trkpt lat="43.78994783191859" lon="10.92480320730703"><ele>100.85714285714286</ele><time>2026-05-03T10:52:47.011Z</time></trkpt><trkpt lat="43.789888688225425" lon="10.924750471744607"><ele>100.28571428571428</ele><time>2026-05-03T10:52:50.011Z</time></trkpt><trkpt lat="43.78982317573707" lon="10.92469854269542"><ele>99.71428571428572</ele><time>2026-05-03T10:52:53.011Z</time></trkpt><trkpt lat="43.789759218400256" lon="10.924653703363225"><ele>99.14285714285714</ele><time>2026-05-03T10:52:56.011Z</time></trkpt><trkpt lat="43.78969400142683" lon="10.924614358185968"><ele>98.57142857142857</ele><time>2026-05-03T10:52:59.011Z</time></trkpt><trkpt lat="43.78963117904796" lon="10.924576162918312"><ele>98.0</ele><time>2026-05-03T10:53:02.011Z</time></trkpt><trkpt lat="43.78957996370444" lon="10.924508504929832"><ele>97.99999999999999</ele><time>2026-05-03T10:53:05.011Z</time></trkpt><trkpt lat="43.789548379957054" lon="10.924415296528656"><ele>98.0</ele><time>2026-05-03T10:53:08.011Z</time></trkpt><trkpt lat="43.78952862156851" lon="10.924315996161008"><ele>98.0</ele><time>2026-05-03T10:53:11.011Z</time></trkpt><trkpt lat="43.789502943345006" lon="10.924209075566672"><ele>98.0</ele><time>2026-05-03T10:53:15.011Z</time></trkpt><trkpt lat="43.78950294385303" lon="10.924095132824169"><ele>97.99999999999999</ele><time>2026-05-03T10:53:19.01Z</time></trkpt><trkpt lat="43.78951359719354" lon="10.923982615832433"><ele>98.0</ele><time>2026-05-03T10:53:23.002Z</time></trkpt><trkpt lat="43.78949038652452" lon="10.923873117288261"><ele>97.16666666666666</ele><time>2026-05-03T10:53:26.995Z</time></trkpt><trkpt lat="43.78944752546818" lon="10.923788322503405"><ele>96.33333333333333</ele><time>2026-05-03T10:53:30.99Z</time></trkpt><trkpt lat="43.78937296714991" lon="10.923747356037758"><ele>95.5</ele><time>2026-05-03T10:53:34.985Z</time></trkpt><trkpt lat="43.78929637445978" lon="10.92372182621575"><ele>94.66666666666666</ele><time>2026-05-03T10:53:38.982Z</time></trkpt><trkpt lat="43.78921355668265" lon="10.923704523833381"><ele>93.83333333333333</ele><time>2026-05-03T10:53:42.979Z</time></trkpt><trkpt lat="43.78913687381555" lon="10.923678356424762"><ele>93.0</ele><time>2026-05-03T10:53:46.977Z</time></trkpt><trkpt lat="43.78907074596633" lon="10.9236409088819"><ele>93.00000000000001</ele><time>2026-05-03T10:53:49.976Z</time></trkpt><trkpt lat="43.789002482395944" lon="10.923635383122342"><ele>93.0</ele><time>2026-05-03T10:53:52.975Z</time></trkpt><trkpt lat="43.78893221431328" lon="10.923646818295827"><ele>93.0</ele><time>2026-05-03T10:53:55.974Z</time></trkpt><trkpt lat="43.78886458635453" lon="10.923642095665702"><ele>93.0</ele><time>2026-05-03T10:53:58.974Z</time></trkpt><trkpt lat="43.788789783159054" lon="10.923631988611515"><ele>93.0</ele><time>2026-05-03T10:54:01.973Z</time></trkpt><trkpt lat="43.788719318290944" lon="10.923647733092666"><ele>93.00000000000001</ele><time>2026-05-03T10:54:04.973Z</time></trkpt><trkpt lat="43.788645357482444" lon="10.92364128408494"><ele>93.0</ele><time>2026-05-03T10:54:07.972Z</time></trkpt><trkpt lat="43.78857096190294" lon="10.923663154841798"><ele>91.85714285714286</ele><time>2026-05-03T10:54:10.972Z</time></trkpt><trkpt lat="43.78849525821428" lon="10.923666045644042"><ele>90.71428571428572</ele><time>2026-05-03T10:54:13.972Z</time></trkpt><trkpt lat="43.78842449123354" lon="10.923663649133669"><ele>89.57142857142858</ele><time>2026-05-03T10:54:16.971Z</time></trkpt><trkpt lat="43.788344434239086" lon="10.923667645772483"><ele>88.42857142857143</ele><time>2026-05-03T10:54:19.971Z</time></trkpt><trkpt lat="43.788268148669424" lon="10.923651589672861"><ele>87.28571428571428</ele><time>2026-05-03T10:54:22.971Z</time></trkpt><trkpt lat="43.788219573595526" lon="10.923571837418708"><ele>86.14285714285715</ele><time>2026-05-03T10:54:25.971Z</time></trkpt><trkpt lat="43.788196278760154" lon="10.923481402973774"><ele>85.0</ele><time>2026-05-03T10:54:28.972Z</time></trkpt><trkpt lat="43.78816916771092" lon="10.923396515719245"><ele>84.0</ele><time>2026-05-03T10:54:31.972Z</time></trkpt><trkpt lat="43.78812603761851" lon="10.92329817107258"><ele>83.0</ele><time>2026-05-03T10:54:34.971Z</time></trkpt><trkpt lat="43.78807862873674" lon="10.923216957927435"><ele>82.0</ele><time>2026-05-03T10:54:37.972Z</time></trkpt><trkpt lat="43.78803726780633" lon="10.923122802729939"><ele>81.0</ele><time>2026-05-03T10:54:40.972Z</time></trkpt><trkpt lat="43.78799531140515" lon="10.923036032434878"><ele>80.0</ele><time>2026-05-03T10:54:43.972Z</time></trkpt><trkpt lat="43.7879457077389" lon="10.922968109605694"><ele>79.0</ele><time>2026-05-03T10:54:46.972Z</time></trkpt><trkpt lat="43.78789636341158" lon="10.922883110097347"><ele>79.0</ele><time>2026-05-03T10:54:49.972Z</time></trkpt><trkpt lat="43.78784187773388" lon="10.922809858577374"><ele>79.0</ele><time>2026-05-03T10:54:52.972Z</time></trkpt><trkpt lat="43.78779685720363" lon="10.92272467644735"><ele>79.0</ele><time>2026-05-03T10:54:55.972Z</time></trkpt><trkpt lat="43.787748594024364" lon="10.922628940647273"><ele>79.0</ele><time>2026-05-03T10:54:58.972Z</time></trkpt><trkpt lat="43.78770876432905" lon="10.922531366287282"><ele>79.0</ele><time>2026-05-03T10:55:01.972Z</time></trkpt><trkpt lat="43.78767406208541" lon="10.922427516423257"><ele>79.0</ele><time>2026-05-03T10:55:04.971Z</time></trkpt><trkpt lat="43.78765139303626" lon="10.922323071518981"><ele>78.16666666666666</ele><time>2026-05-03T10:55:07.971Z</time></trkpt><trkpt lat="43.7876253242739" lon="10.922216099327493"><ele>77.33333333333333</ele><time>2026-05-03T10:55:10.971Z</time></trkpt><trkpt lat="43.78759783651668" lon="10.922106414284471"><ele>76.5</ele><time>2026-05-03T10:55:13.971Z</time></trkpt><trkpt lat="43.78755815732051" lon="10.922005463582673"><ele>75.66666666666667</ele><time>2026-05-03T10:55:16.971Z</time></trkpt><trkpt lat="43.78752327362428" lon="10.92190579736469"><ele>74.83333333333334</ele><time>2026-05-03T10:55:19.971Z</time></trkpt><trkpt lat="43.78748792425382" lon="10.921804806111506"><ele>74.0</ele><time>2026-05-03T10:55:22.971Z</time></trkpt><trkpt lat="43.787452383611985" lon="10.921695653961647"><ele>73.85714285714286</ele><time>2026-05-03T10:55:26.971Z</time></trkpt><trkpt lat="43.787423383891856" lon="10.921616569475981"><ele>73.71428571428571</ele><time>2026-05-03T10:55:29.971Z</time></trkpt><trkpt lat="43.78738163927135" lon="10.921522080750227"><ele>73.57142857142857</ele><time>2026-05-03T10:55:33.971Z</time></trkpt><trkpt lat="43.787311246090965" lon="10.921481089875845"><ele>73.42857142857143</ele><time>2026-05-03T10:55:37.971Z</time></trkpt><trkpt lat="43.78724919852536" lon="10.921508291935467"><ele>73.28571428571429</ele><time>2026-05-03T10:55:40.971Z</time></trkpt><trkpt lat="43.78719006146396" lon="10.9215761099727"><ele>73.14285714285714</ele><time>2026-05-03T10:55:44.971Z</time></trkpt><trkpt lat="43.78712578928186" lon="10.921629002326434"><ele>73.0</ele><time>2026-05-03T10:55:48.971Z</time></trkpt><trkpt lat="43.78707003385132" lon="10.921687319944276"><ele>73.16666666666666</ele><time>2026-05-03T10:55:52.971Z</time></trkpt><trkpt lat="43.78700862994495" lon="10.921751063257586"><ele>73.33333333333333</ele><time>2026-05-03T10:55:56.97Z</time></trkpt><trkpt lat="43.78693861064332" lon="10.921805132744161"><ele>73.5</ele><time>2026-05-03T10:56:00.97Z</time></trkpt><trkpt lat="43.786884070840124" lon="10.921855751056098"><ele>73.66666666666667</ele><time>2026-05-03T10:56:03.97Z</time></trkpt><trkpt lat="43.78681595750396" lon="10.921904074835496"><ele>73.83333333333334</ele><time>2026-05-03T10:56:07.97Z</time></trkpt><trkpt lat="43.78674832339554" lon="10.921964876440073"><ele>74.0</ele><time>2026-05-03T10:56:11.97Z</time></trkpt><trkpt lat="43.786679830699576" lon="10.922028636707811"><ele>72.57142857142857</ele><time>2026-05-03T10:56:15.97Z</time></trkpt><trkpt lat="43.78662589488727" lon="10.922076142606496"><ele>71.14285714285714</ele><time>2026-05-03T10:56:18.97Z</time></trkpt><trkpt lat="43.78656925666324" lon="10.922118095655476"><ele>69.71428571428571</ele><time>2026-05-03T10:56:21.97Z</time></trkpt><trkpt lat="43.78650134678941" lon="10.922185743805068"><ele>68.28571428571428</ele><time>2026-05-03T10:56:25.97Z</time></trkpt><trkpt lat="43.786425320948844" lon="10.922151753249597"><ele>66.85714285714285</ele><time>2026-05-03T10:56:29.97Z</time></trkpt><trkpt lat="43.786378277527824" lon="10.92209019553004"><ele>65.42857142857143</ele><time>2026-05-03T10:56:32.971Z</time></trkpt><trkpt lat="43.786322082941695" lon="10.922018479106084"><ele>64.0</ele><time>2026-05-03T10:56:36.971Z</time></trkpt><trkpt lat="43.786272032434226" lon="10.921930139312517"><ele>63.99999999999999</ele><time>2026-05-03T10:56:40.97Z</time></trkpt><trkpt lat="43.786203036047446" lon="10.92188465661961"><ele>64.0</ele><time>2026-05-03T10:56:44.971Z</time></trkpt><trkpt lat="43.78615791393825" lon="10.921957986473325"><ele>64.0</ele><time>2026-05-03T10:56:47.971Z</time></trkpt><trkpt lat="43.7860843402165" lon="10.92199802321196"><ele>64.0</ele><time>2026-05-03T10:56:51.971Z</time></trkpt><trkpt lat="43.7860288053187" lon="10.922039127885482"><ele>63.99999999999999</ele><time>2026-05-03T10:56:54.971Z</time></trkpt><trkpt lat="43.785951705762905" lon="10.922083374926912"><ele>64.0</ele><time>2026-05-03T10:56:58.971Z</time></trkpt><trkpt lat="43.78587251343293" lon="10.922121333275745"><ele>62.71428571428571</ele><time>2026-05-03T10:57:02.971Z</time></trkpt><trkpt lat="43.785805011990696" lon="10.92214393240962"><ele>61.42857142857142</ele><time>2026-05-03T10:57:05.971Z</time></trkpt><trkpt lat="43.7857400203561" lon="10.922168320872238"><ele>60.14285714285714</ele><time>2026-05-03T10:57:08.97Z</time></trkpt><trkpt lat="43.785672801915574" lon="10.922182178011653"><ele>58.857142857142854</ele><time>2026-05-03T10:57:11.97Z</time></trkpt><trkpt lat="43.78561086359969" lon="10.922213894365282"><ele>57.57142857142857</ele><time>2026-05-03T10:57:14.97Z</time></trkpt><trkpt lat="43.78554311783253" lon="10.922230815953982"><ele>56.28571428571428</ele><time>2026-05-03T10:57:17.97Z</time></trkpt><trkpt lat="43.785477993318004" lon="10.922263703694096"><ele>55.0</ele><time>2026-05-03T10:57:20.97Z</time></trkpt><trkpt lat="43.785411398602555" lon="10.922316365799661"><ele>54.99999999999999</ele><time>2026-05-03T10:57:23.97Z</time></trkpt><trkpt lat="43.78534275008689" lon="10.922355385124632"><ele>55.0</ele><time>2026-05-03T10:57:26.97Z</time></trkpt><trkpt lat="43.78527748290396" lon="10.922329972977463"><ele>55.0</ele><time>2026-05-03T10:57:29.97Z</time></trkpt><trkpt lat="43.78521980827416" lon="10.922259456914754"><ele>55.0</ele><time>2026-05-03T10:57:33.97Z</time></trkpt><trkpt lat="43.78515479673333" lon="10.922204718380716"><ele>55.0</ele><time>2026-05-03T10:57:37.97Z</time></trkpt><trkpt lat="43.78510319870568" lon="10.922131529402302"><ele>54.99999999999999</ele><time>2026-05-03T10:57:41.97Z</time></trkpt><trkpt lat="43.7850506225727" lon="10.92204950634516"><ele>55.0</ele><time>2026-05-03T10:57:45.97Z</time></trkpt><trkpt lat="43.78500160695422" lon="10.9219637426642"><ele>55.14285714285714</ele><time>2026-05-03T10:57:49.97Z</time></trkpt><trkpt lat="43.78493890051198" lon="10.921888493808488"><ele>55.285714285714285</ele><time>2026-05-03T10:57:53.97Z</time></trkpt><trkpt lat="43.784886086299224" lon="10.921805284884705"><ele>55.42857142857143</ele><time>2026-05-03T10:57:57.97Z</time></trkpt><trkpt lat="43.78484488276731" lon="10.921723264116126"><ele>55.57142857142857</ele><time>2026-05-03T10:58:01.969Z</time></trkpt><trkpt lat="43.784785083945174" lon="10.921649744992662"><ele>55.714285714285715</ele><time>2026-05-03T10:58:05.969Z</time></trkpt><trkpt lat="43.784724079428365" lon="10.921625916606999"><ele>55.857142857142854</ele><time>2026-05-03T10:58:08.969Z</time></trkpt><trkpt lat="43.78465784956508" lon="10.921639099708848"><ele>56.0</ele><time>2026-05-03T10:58:11.969Z</time></trkpt><trkpt lat="43.78459517121072" lon="10.921662675620787"><ele>56.0</ele><time>2026-05-03T10:58:14.969Z</time></trkpt><trkpt lat="43.78453544943991" lon="10.921627780289057"><ele>56.0</ele><time>2026-05-03T10:58:17.969Z</time></trkpt><trkpt lat="43.78448554925996" lon="10.921570717434413"><ele>56.0</ele><time>2026-05-03T10:58:20.969Z</time></trkpt><trkpt lat="43.7844200864506" lon="10.921492803566643"><ele>56.0</ele><time>2026-05-03T10:58:24.969Z</time></trkpt><trkpt lat="43.7843686937213" lon="10.921436848599052"><ele>56.0</ele><time>2026-05-03T10:58:27.969Z</time></trkpt><trkpt lat="43.78431864988414" lon="10.921374364122011"><ele>56.0</ele><time>2026-05-03T10:58:30.969Z</time></trkpt><trkpt lat="43.784279047468566" lon="10.921300953846314"><ele>56.0</ele><time>2026-05-03T10:58:33.969Z</time></trkpt><trkpt lat="43.784259871980936" lon="10.921209018468748"><ele>55.142857142857146</ele><time>2026-05-03T10:58:36.969Z</time></trkpt><trkpt lat="43.78424528619214" lon="10.921119251561494"><ele>54.285714285714285</ele><time>2026-05-03T10:58:39.97Z</time></trkpt><trkpt lat="43.78421712055002" lon="10.921030830257735"><ele>53.42857142857143</ele><time>2026-05-03T10:58:42.97Z</time></trkpt><trkpt lat="43.784187252989966" lon="10.920943650829416"><ele>52.57142857142857</ele><time>2026-05-03T10:58:45.97Z</time></trkpt><trkpt lat="43.784153617305556" lon="10.920860008200313"><ele>51.714285714285715</ele><time>2026-05-03T10:58:48.97Z</time></trkpt><trkpt lat="43.784129987243944" lon="10.920769997798073"><ele>50.85714285714286</ele><time>2026-05-03T10:58:51.97Z</time></trkpt><trkpt lat="43.784101239578405" lon="10.92068302014548"><ele>50.0</ele><time>2026-05-03T10:58:54.97Z</time></trkpt><trkpt lat="43.78407431219748" lon="10.920597050654244"><ele>49.714285714285715</ele><time>2026-05-03T10:58:57.97Z</time></trkpt><trkpt lat="43.78404599572055" lon="10.920509575115865"><ele>49.42857142857143</ele><time>2026-05-03T10:59:00.969Z</time></trkpt><trkpt lat="43.78397782602263" lon="10.920488949951801"><ele>49.14285714285714</ele><time>2026-05-03T10:59:03.969Z</time></trkpt><trkpt lat="43.78390874000285" lon="10.920533908093867"><ele>48.85714285714286</ele><time>2026-05-03T10:59:07.969Z</time></trkpt><trkpt lat="43.78384217469974" lon="10.920594539934548"><ele>48.57142857142857</ele><time>2026-05-03T10:59:12.969Z</time></trkpt><trkpt lat="43.78378309741844" lon="10.920651073676156"><ele>48.285714285714285</ele><time>2026-05-03T10:59:19.969Z</time></trkpt><trkpt lat="43.783723062894836" lon="10.92070222527615"><ele>48.0</ele><time>2026-05-03T10:59:25.969Z</time></trkpt><trkpt lat="43.78366197159139" lon="10.92076154406551"><ele>47.99999999999999</ele><time>2026-05-03T10:59:31.969Z</time></trkpt><trkpt lat="43.783601800209844" lon="10.920815410848732"><ele>48.0</ele><time>2026-05-03T10:59:37.969Z</time></trkpt><trkpt lat="43.78354147580838" lon="10.920879031648022"><ele>48.0</ele><time>2026-05-03T10:59:43.969Z</time></trkpt><trkpt lat="43.78347344938432" lon="10.920928148175635"><ele>48.0</ele><time>2026-05-03T10:59:49.968Z</time></trkpt><trkpt lat="43.783408030519844" lon="10.920971147915656"><ele>48.0</ele><time>2026-05-03T10:59:57.968Z</time></trkpt><trkpt lat="43.78333910419982" lon="10.921011819586866"><ele>47.99999999999999</ele><time>2026-05-03T11:00:04.968Z</time></trkpt><trkpt lat="43.78328444640457" lon="10.921070244398088"><ele>48.0</ele><time>2026-05-03T11:00:10.968Z</time></trkpt><trkpt lat="43.783218639915695" lon="10.92111840499406"><ele>49.42857142857142</ele><time>2026-05-03T11:00:16.968Z</time></trkpt><trkpt lat="43.78315480849183" lon="10.921169729770812"><ele>50.85714285714286</ele><time>2026-05-03T11:00:22.968Z</time></trkpt><trkpt lat="43.783099516162345" lon="10.921225716184365"><ele>52.28571428571429</ele><time>2026-05-03T11:00:28.968Z</time></trkpt><trkpt lat="43.783041139669045" lon="10.921263542380755"><ele>53.714285714285715</ele><time>2026-05-03T11:00:33.968Z</time></trkpt><trkpt lat="43.78296947949936" lon="10.921303883694698"><ele>55.142857142857146</ele><time>2026-05-03T11:00:38.968Z</time></trkpt><trkpt lat="43.78291945198534" lon="10.92136350925404"><ele>56.57142857142858</ele><time>2026-05-03T11:00:44.969Z</time></trkpt><trkpt lat="43.78284553210191" lon="10.921368387741175"><ele>58.00000000000001</ele><time>2026-05-03T11:00:49.969Z</time></trkpt><trkpt lat="43.78279061340342" lon="10.921418477456172"><ele>58.00000000000001</ele><time>2026-05-03T11:00:55.969Z</time></trkpt><trkpt lat="43.78273075314641" lon="10.921474054358567"><ele>58.0</ele><time>2026-05-03T11:01:02.969Z</time></trkpt><trkpt lat="43.78267861491121" lon="10.921533967401441"><ele>58.00000000000001</ele><time>2026-05-03T11:01:08.969Z</time></trkpt><trkpt lat="43.78262586274376" lon="10.921585181369577"><ele>58.00000000000001</ele><time>2026-05-03T11:01:16.968Z</time></trkpt><trkpt lat="43.78257449120265" lon="10.921645981555143"><ele>58.0</ele><time>2026-05-03T11:01:23.968Z</time></trkpt><trkpt lat="43.78252150938386" lon="10.921707042275466"><ele>58.00000000000001</ele><time>2026-05-03T11:01:30.968Z</time></trkpt><trkpt lat="43.78247175176576" lon="10.921765398358891"><ele>58.00000000000001</ele><time>2026-05-03T11:01:37.968Z</time></trkpt><trkpt lat="43.782488425688626" lon="10.92185536270418"><ele>66.0</ele><time>2026-05-03T11:01:43.968Z</time></trkpt><trkpt lat="43.782548448271" lon="10.921889295552782"><ele>66.0</ele><time>2026-05-03T11:01:50.968Z</time></trkpt></trkseg></trk></gpx>